<?xml version='1.0' encoding='UTF-8'?><gpx version="1.1" creator="JPX - https://github.com/jenetics/jpx" xmlns="http://www.topografix.com/GPX/1/1"><trk><trkseg><trkpt lat="44.2812305" lon="11.1116414"><ele>197.00000000000003</ele><time>2026-04-25T15:53:35.229Z</time></trkpt><trkpt lat="44.2813493" lon="11.1117592"><ele>197.0</ele><time>2026-04-25T15:53:37.159Z</time></trkpt><trkpt lat="44.2814181" lon="11.1117788"><ele>197.0</ele><time>2026-04-25T15:53:39.082Z</time></trkpt><trkpt lat="44.2814891" lon="11.1117362"><ele>197.0</ele><time>2026-04-25T15:53:41.081Z</time></trkpt><trkpt lat="44.2815131" lon="11.1116523"><ele>197.00000000000003</ele><time>2026-04-25T15:53:43.089Z</time></trkpt><trkpt lat="44.28151" lon="11.1115492"><ele>197.0</ele><time>2026-04-25T15:53:45.087Z</time></trkpt><trkpt lat="44.2815151" lon="11.1114501"><ele>197.00000000000003</ele><time>2026-04-25T15:53:47.087Z</time></trkpt><trkpt lat="44.2815178" lon="11.1113391"><ele>197.0</ele><time>2026-04-25T15:53:50.083Z</time></trkpt><trkpt lat="44.2814604" lon="11.1112694"><ele>197.0</ele><time>2026-04-25T15:53:52.091Z</time></trkpt><trkpt lat="44.2813975" lon="11.1112055"><ele>197.0</ele><time>2026-04-25T15:53:54.083Z</time></trkpt><trkpt lat="44.2813438" lon="11.1111412"><ele>197.00000000000003</ele><time>2026-04-25T15:53:56.086Z</time></trkpt><trkpt lat="44.2812636" lon="11.111066"><ele>197.0</ele><time>2026-04-25T15:53:59.086Z</time></trkpt><trkpt lat="44.2812034" lon="11.1110129"><ele>197.42857142857144</ele><time>2026-04-25T15:54:01.08Z</time></trkpt><trkpt lat="44.2811452" lon="11.1109621"><ele>197.85714285714286</ele><time>2026-04-25T15:54:03.081Z</time></trkpt><trkpt lat="44.2810883" lon="11.1109042"><ele>198.28571428571428</ele><time>2026-04-25T15:54:05.093Z</time></trkpt><trkpt lat="44.2810386" lon="11.1108361"><ele>198.71428571428572</ele><time>2026-04-25T15:54:07.079Z</time></trkpt><trkpt lat="44.2810208" lon="11.1107145"><ele>199.14285714285714</ele><time>2026-04-25T15:54:10.077Z</time></trkpt><trkpt lat="44.2810335" lon="11.1106028"><ele>199.57142857142858</ele><time>2026-04-25T15:54:13.087Z</time></trkpt><trkpt lat="44.2810514" lon="11.1105183"><ele>200.0</ele><time>2026-04-25T15:54:18.083Z</time></trkpt><trkpt lat="44.2810357" lon="11.1104253"><ele>201.16666666666669</ele><time>2026-04-25T15:55:38.082Z</time></trkpt><trkpt lat="44.2809814" lon="11.1103626"><ele>202.33333333333334</ele><time>2026-04-25T15:55:40.089Z</time></trkpt><trkpt lat="44.2809125" lon="11.1103297"><ele>203.5</ele><time>2026-04-25T15:55:42.084Z</time></trkpt><trkpt lat="44.2808283" lon="11.1102825"><ele>204.66666666666669</ele><time>2026-04-25T15:55:44.088Z</time></trkpt><trkpt lat="44.2807352" lon="11.1102383"><ele>205.83333333333334</ele><time>2026-04-25T15:55:46.083Z</time></trkpt><trkpt lat="44.2806523" lon="11.1102148"><ele>207.0</ele><time>2026-04-25T15:55:48.088Z</time></trkpt><trkpt lat="44.2805614" lon="11.1101859"><ele>207.0</ele><time>2026-04-25T15:55:50.089Z</time></trkpt><trkpt lat="44.2804575" lon="11.1101336"><ele>207.0</ele><time>2026-04-25T15:55:52.089Z</time></trkpt><trkpt lat="44.2803874" lon="11.1100536"><ele>207.0</ele><time>2026-04-25T15:55:54.08Z</time></trkpt><trkpt lat="44.2803429" lon="11.1099808"><ele>207.0</ele><time>2026-04-25T15:55:56.076Z</time></trkpt><trkpt lat="44.2802969" lon="11.1099095"><ele>207.0</ele><time>2026-04-25T15:55:58.08Z</time></trkpt><trkpt lat="44.2802395" lon="11.1098177"><ele>207.0</ele><time>2026-04-25T15:56:01.083Z</time></trkpt><trkpt lat="44.2801932" lon="11.1097261"><ele>208.5</ele><time>2026-04-25T15:56:04.091Z</time></trkpt><trkpt lat="44.2801399" lon="11.1096305"><ele>210.0</ele><time>2026-04-25T15:56:07.088Z</time></trkpt><trkpt lat="44.2800809" lon="11.1095446"><ele>211.5</ele><time>2026-04-25T15:56:10.084Z</time></trkpt><trkpt lat="44.2800206" lon="11.1094499"><ele>213.0</ele><time>2026-04-25T15:56:13.088Z</time></trkpt><trkpt lat="44.2799697" lon="11.1093895"><ele>214.5</ele><time>2026-04-25T15:56:15.086Z</time></trkpt><trkpt lat="44.279896" lon="11.1093022"><ele>216.0</ele><time>2026-04-25T15:56:18.083Z</time></trkpt><trkpt lat="44.2798328" lon="11.1092855"><ele>215.33333333333334</ele><time>2026-04-25T15:56:20.084Z</time></trkpt><trkpt lat="44.2797616" lon="11.1092701"><ele>214.66666666666669</ele><time>2026-04-25T15:56:22.082Z</time></trkpt><trkpt lat="44.2796756" lon="11.109232"><ele>214.0</ele><time>2026-04-25T15:56:25.077Z</time></trkpt><trkpt lat="44.2795909" lon="11.1092266"><ele>213.33333333333334</ele><time>2026-04-25T15:56:28.079Z</time></trkpt><trkpt lat="44.2795258" lon="11.1092108"><ele>212.66666666666669</ele><time>2026-04-25T15:56:30.088Z</time></trkpt><trkpt lat="44.2794569" lon="11.109198"><ele>212.0</ele><time>2026-04-25T15:56:32.085Z</time></trkpt><trkpt lat="44.2793874" lon="11.1091934"><ele>212.00000000000003</ele><time>2026-04-25T15:56:34.083Z</time></trkpt><trkpt lat="44.2793121" lon="11.1091709"><ele>212.0</ele><time>2026-04-25T15:56:36.089Z</time></trkpt><trkpt lat="44.279239" lon="11.1091585"><ele>212.0</ele><time>2026-04-25T15:56:38.089Z</time></trkpt><trkpt lat="44.2791678" lon="11.1091302"><ele>212.0</ele><time>2026-04-25T15:56:40.08Z</time></trkpt><trkpt lat="44.2790998" lon="11.1091026"><ele>212.00000000000003</ele><time>2026-04-25T15:56:42.075Z</time></trkpt><trkpt lat="44.2790214" lon="11.1090534"><ele>212.0</ele><time>2026-04-25T15:56:45.089Z</time></trkpt><trkpt lat="44.2789438" lon="11.108987"><ele>214.14285714285717</ele><time>2026-04-25T15:56:48.078Z</time></trkpt><trkpt lat="44.2788806" lon="11.1089439"><ele>216.28571428571428</ele><time>2026-04-25T15:56:50.094Z</time></trkpt><trkpt lat="44.2788154" lon="11.1088975"><ele>218.42857142857144</ele><time>2026-04-25T15:56:52.082Z</time></trkpt><trkpt lat="44.2787554" lon="11.1088444"><ele>220.57142857142858</ele><time>2026-04-25T15:56:54.092Z</time></trkpt><trkpt lat="44.2786895" lon="11.1088044"><ele>222.71428571428572</ele><time>2026-04-25T15:56:56.087Z</time></trkpt><trkpt lat="44.2786175" lon="11.1087679"><ele>224.85714285714286</ele><time>2026-04-25T15:56:58.084Z</time></trkpt><trkpt lat="44.2785527" lon="11.1087329"><ele>227.0</ele><time>2026-04-25T15:57:00.083Z</time></trkpt><trkpt lat="44.2784906" lon="11.1087014"><ele>227.0</ele><time>2026-04-25T15:57:02.081Z</time></trkpt><trkpt lat="44.2784253" lon="11.1086696"><ele>227.00000000000003</ele><time>2026-04-25T15:57:04.08Z</time></trkpt><trkpt lat="44.2783577" lon="11.1086385"><ele>227.0</ele><time>2026-04-25T15:57:06.081Z</time></trkpt><trkpt lat="44.2782889" lon="11.1086184"><ele>227.0</ele><time>2026-04-25T15:57:08.085Z</time></trkpt><trkpt lat="44.2782149" lon="11.1086105"><ele>227.00000000000003</ele><time>2026-04-25T15:57:10.084Z</time></trkpt><trkpt lat="44.2781435" lon="11.1086203"><ele>227.0</ele><time>2026-04-25T15:57:12.082Z</time></trkpt><trkpt lat="44.278059" lon="11.1086162"><ele>227.0</ele><time>2026-04-25T15:57:14.087Z</time></trkpt><trkpt lat="44.2779649" lon="11.1086164"><ele>225.39999999999998</ele><time>2026-04-25T15:57:16.085Z</time></trkpt><trkpt lat="44.2778692" lon="11.1086162"><ele>223.79999999999998</ele><time>2026-04-25T15:57:18.083Z</time></trkpt><trkpt lat="44.2777767" lon="11.1086277"><ele>222.2</ele><time>2026-04-25T15:57:20.086Z</time></trkpt><trkpt lat="44.2776799" lon="11.1086323"><ele>220.6</ele><time>2026-04-25T15:57:22.09Z</time></trkpt><trkpt lat="44.2775833" lon="11.1086437"><ele>219.0</ele><time>2026-04-25T15:57:24.087Z</time></trkpt><trkpt lat="44.2774981" lon="11.1086365"><ele>219.0</ele><time>2026-04-25T15:57:26.087Z</time></trkpt><trkpt lat="44.2774018" lon="11.1086337"><ele>218.99999999999997</ele><time>2026-04-25T15:57:28.085Z</time></trkpt><trkpt lat="44.2773113" lon="11.1086412"><ele>218.99999999999997</ele><time>2026-04-25T15:57:30.079Z</time></trkpt><trkpt lat="44.2772205" lon="11.1086407"><ele>219.0</ele><time>2026-04-25T15:57:32.084Z</time></trkpt><trkpt lat="44.277128" lon="11.1086352"><ele>219.0</ele><time>2026-04-25T15:57:34.081Z</time></trkpt><trkpt lat="44.2770456" lon="11.1086156"><ele>219.39999999999998</ele><time>2026-04-25T15:57:36.089Z</time></trkpt><trkpt lat="44.2769525" lon="11.1085707"><ele>219.79999999999998</ele><time>2026-04-25T15:57:38.086Z</time></trkpt><trkpt lat="44.2768607" lon="11.1085698"><ele>220.20000000000002</ele><time>2026-04-25T15:57:40.09Z</time></trkpt><trkpt lat="44.2767543" lon="11.1085224"><ele>220.60000000000002</ele><time>2026-04-25T15:57:43.083Z</time></trkpt><trkpt lat="44.2766782" lon="11.1084741"><ele>221.0</ele><time>2026-04-25T15:57:45.086Z</time></trkpt><trkpt lat="44.2765878" lon="11.1084515"><ele>221.0</ele><time>2026-04-25T15:57:47.081Z</time></trkpt><trkpt lat="44.276489" lon="11.108437"><ele>221.00000000000003</ele><time>2026-04-25T15:57:49.084Z</time></trkpt><trkpt lat="44.2763954" lon="11.1084026"><ele>221.00000000000003</ele><time>2026-04-25T15:57:51.085Z</time></trkpt><trkpt lat="44.276304" lon="11.1083827"><ele>221.0</ele><time>2026-04-25T15:57:53.082Z</time></trkpt><trkpt lat="44.2762063" lon="11.1084006"><ele>221.0</ele><time>2026-04-25T15:57:55.083Z</time></trkpt><trkpt lat="44.2761245" lon="11.1084135"><ele>221.20000000000002</ele><time>2026-04-25T15:57:57.092Z</time></trkpt><trkpt lat="44.2760147" lon="11.1084581"><ele>221.40000000000003</ele><time>2026-04-25T15:57:59.088Z</time></trkpt><trkpt lat="44.2759572" lon="11.1084989"><ele>221.6</ele><time>2026-04-25T15:58:00.079Z</time></trkpt><trkpt lat="44.2758616" lon="11.1085955"><ele>221.8</ele><time>2026-04-25T15:58:02.083Z</time></trkpt><trkpt lat="44.2757552" lon="11.1086708"><ele>222.0</ele><time>2026-04-25T15:58:04.085Z</time></trkpt><trkpt lat="44.2756907" lon="11.1086996"><ele>222.0</ele><time>2026-04-25T15:58:05.09Z</time></trkpt><trkpt lat="44.2756272" lon="11.1087198"><ele>222.0</ele><time>2026-04-25T15:58:06.084Z</time></trkpt><trkpt lat="44.2755034" lon="11.1087663"><ele>222.0</ele><time>2026-04-25T15:58:08.083Z</time></trkpt><trkpt lat="44.2754399" lon="11.1087912"><ele>222.0</ele><time>2026-04-25T15:58:09.079Z</time></trkpt><trkpt lat="44.2753241" lon="11.1088476"><ele>222.0</ele><time>2026-04-25T15:58:11.085Z</time></trkpt><trkpt lat="44.2752676" lon="11.1088917"><ele>222.0</ele><time>2026-04-25T15:58:12.086Z</time></trkpt><trkpt lat="44.2752068" lon="11.1089212"><ele>222.8</ele><time>2026-04-25T15:58:13.081Z</time></trkpt><trkpt lat="44.2750867" lon="11.1089217"><ele>223.6</ele><time>2026-04-25T15:58:15.092Z</time></trkpt><trkpt lat="44.2749924" lon="11.1089267"><ele>224.40000000000003</ele><time>2026-04-25T15:58:17.084Z</time></trkpt><trkpt lat="44.2749077" lon="11.1088978"><ele>225.20000000000002</ele><time>2026-04-25T15:58:19.08Z</time></trkpt><trkpt lat="44.274811" lon="11.1088737"><ele>226.0</ele><time>2026-04-25T15:58:21.088Z</time></trkpt><trkpt lat="44.2747308" lon="11.1088205"><ele>226.20000000000002</ele><time>2026-04-25T15:58:23.082Z</time></trkpt><trkpt lat="44.2746664" lon="11.1087223"><ele>226.40000000000003</ele><time>2026-04-25T15:58:25.086Z</time></trkpt><trkpt lat="44.2745762" lon="11.1086848"><ele>226.6</ele><time>2026-04-25T15:58:27.081Z</time></trkpt><trkpt lat="44.2744807" lon="11.1086611"><ele>226.8</ele><time>2026-04-25T15:58:29.094Z</time></trkpt><trkpt lat="44.2743874" lon="11.1086492"><ele>227.0</ele><time>2026-04-25T15:58:31.087Z</time></trkpt><trkpt lat="44.2742854" lon="11.1086347"><ele>227.00000000000003</ele><time>2026-04-25T15:58:33.088Z</time></trkpt><trkpt lat="44.2742153" lon="11.1086618"><ele>227.0</ele><time>2026-04-25T15:58:35.081Z</time></trkpt><trkpt lat="44.274139" lon="11.108715"><ele>227.0</ele><time>2026-04-25T15:58:37.088Z</time></trkpt><trkpt lat="44.2740609" lon="11.1087867"><ele>227.0</ele><time>2026-04-25T15:58:39.084Z</time></trkpt><trkpt lat="44.2739733" lon="11.1088455"><ele>227.00000000000003</ele><time>2026-04-25T15:58:41.08Z</time></trkpt><trkpt lat="44.2738903" lon="11.1088755"><ele>227.0</ele><time>2026-04-25T15:58:43.084Z</time></trkpt><trkpt lat="44.2737937" lon="11.1089042"><ele>227.00000000000003</ele><time>2026-04-25T15:58:45.082Z</time></trkpt><trkpt lat="44.2737184" lon="11.1089013"><ele>227.0</ele><time>2026-04-25T15:58:47.087Z</time></trkpt><trkpt lat="44.2736327" lon="11.1088826"><ele>227.0</ele><time>2026-04-25T15:58:49.084Z</time></trkpt><trkpt lat="44.2735516" lon="11.1088517"><ele>227.0</ele><time>2026-04-25T15:58:51.082Z</time></trkpt><trkpt lat="44.2734685" lon="11.1088055"><ele>227.00000000000003</ele><time>2026-04-25T15:58:53.083Z</time></trkpt><trkpt lat="44.2733846" lon="11.108765"><ele>227.0</ele><time>2026-04-25T15:58:55.08Z</time></trkpt><trkpt lat="44.2733015" lon="11.1086879"><ele>227.0</ele><time>2026-04-25T15:58:57.088Z</time></trkpt><trkpt lat="44.2732157" lon="11.1085955"><ele>227.0</ele><time>2026-04-25T15:58:59.091Z</time></trkpt><trkpt lat="44.2731676" lon="11.1085348"><ele>227.0</ele><time>2026-04-25T15:59:00.087Z</time></trkpt><trkpt lat="44.273076" lon="11.1084446"><ele>227.0</ele><time>2026-04-25T15:59:02.082Z</time></trkpt><trkpt lat="44.2729992" lon="11.1083788"><ele>227.0</ele><time>2026-04-25T15:59:04.086Z</time></trkpt><trkpt lat="44.2729098" lon="11.1083088"><ele>226.0</ele><time>2026-04-25T15:59:06.087Z</time></trkpt><trkpt lat="44.2728305" lon="11.1082539"><ele>225.0</ele><time>2026-04-25T15:59:08.089Z</time></trkpt><trkpt lat="44.2727459" lon="11.108196"><ele>224.0</ele><time>2026-04-25T15:59:10.083Z</time></trkpt><trkpt lat="44.2726706" lon="11.1081251"><ele>223.0</ele><time>2026-04-25T15:59:12.086Z</time></trkpt><trkpt lat="44.2725959" lon="11.1080266"><ele>222.0</ele><time>2026-04-25T15:59:14.085Z</time></trkpt><trkpt lat="44.2725383" lon="11.1079598"><ele>223.5</ele><time>2026-04-25T15:59:16.085Z</time></trkpt><trkpt lat="44.2724752" lon="11.1078783"><ele>225.0</ele><time>2026-04-25T15:59:18.082Z</time></trkpt><trkpt lat="44.2723985" lon="11.1078222"><ele>226.5</ele><time>2026-04-25T15:59:20.087Z</time></trkpt><trkpt lat="44.2723145" lon="11.1078037"><ele>228.0</ele><time>2026-04-25T15:59:22.084Z</time></trkpt><trkpt lat="44.2722251" lon="11.1078294"><ele>229.5</ele><time>2026-04-25T15:59:24.078Z</time></trkpt><trkpt lat="44.2721404" lon="11.1078059"><ele>231.0</ele><time>2026-04-25T15:59:26.084Z</time></trkpt><trkpt lat="44.2720611" lon="11.1078043"><ele>231.0</ele><time>2026-04-25T15:59:28.086Z</time></trkpt><trkpt lat="44.2719846" lon="11.1077894"><ele>231.0</ele><time>2026-04-25T15:59:30.079Z</time></trkpt><trkpt lat="44.271902" lon="11.1077523"><ele>231.0</ele><time>2026-04-25T15:59:32.084Z</time></trkpt><trkpt lat="44.2718194" lon="11.1077004"><ele>231.0</ele><time>2026-04-25T15:59:34.085Z</time></trkpt><trkpt lat="44.2717311" lon="11.1076887"><ele>231.0</ele><time>2026-04-25T15:59:36.09Z</time></trkpt><trkpt lat="44.2716584" lon="11.1076633"><ele>231.0</ele><time>2026-04-25T15:59:38.084Z</time></trkpt><trkpt lat="44.2715652" lon="11.1076569"><ele>231.0</ele><time>2026-04-25T15:59:40.084Z</time></trkpt><trkpt lat="44.2714693" lon="11.1076784"><ele>231.0</ele><time>2026-04-25T15:59:42.088Z</time></trkpt><trkpt lat="44.2713963" lon="11.107713"><ele>231.0</ele><time>2026-04-25T15:59:44.084Z</time></trkpt><trkpt lat="44.2713236" lon="11.1077477"><ele>231.0</ele><time>2026-04-25T15:59:46.077Z</time></trkpt><trkpt lat="44.2712543" lon="11.1077564"><ele>231.0</ele><time>2026-04-25T15:59:48.079Z</time></trkpt><trkpt lat="44.2711755" lon="11.1077809"><ele>231.0</ele><time>2026-04-25T15:59:50.085Z</time></trkpt><trkpt lat="44.2710893" lon="11.1078102"><ele>232.33333333333334</ele><time>2026-04-25T15:59:52.089Z</time></trkpt><trkpt lat="44.2710009" lon="11.107847"><ele>233.66666666666669</ele><time>2026-04-25T15:59:54.085Z</time></trkpt><trkpt lat="44.2709171" lon="11.1078889"><ele>235.0</ele><time>2026-04-25T15:59:56.08Z</time></trkpt><trkpt lat="44.2708311" lon="11.107929"><ele>236.33333333333334</ele><time>2026-04-25T15:59:58.085Z</time></trkpt><trkpt lat="44.2707561" lon="11.1079755"><ele>237.66666666666669</ele><time>2026-04-25T16:00:00.084Z</time></trkpt><trkpt lat="44.2706734" lon="11.1080125"><ele>239.0</ele><time>2026-04-25T16:00:02.082Z</time></trkpt><trkpt lat="44.2705938" lon="11.1080657"><ele>238.33333333333334</ele><time>2026-04-25T16:00:04.085Z</time></trkpt><trkpt lat="44.2705195" lon="11.1081252"><ele>237.66666666666669</ele><time>2026-04-25T16:00:06.097Z</time></trkpt><trkpt lat="44.2704488" lon="11.1082001"><ele>237.0</ele><time>2026-04-25T16:00:08.084Z</time></trkpt><trkpt lat="44.2703863" lon="11.1082875"><ele>236.33333333333331</ele><time>2026-04-25T16:00:10.088Z</time></trkpt><trkpt lat="44.2703309" lon="11.1083764"><ele>235.66666666666666</ele><time>2026-04-25T16:00:12.087Z</time></trkpt><trkpt lat="44.2702839" lon="11.1084559"><ele>235.0</ele><time>2026-04-25T16:00:14.081Z</time></trkpt><trkpt lat="44.2702399" lon="11.1085325"><ele>234.99999999999997</ele><time>2026-04-25T16:00:16.083Z</time></trkpt><trkpt lat="44.2701891" lon="11.1085947"><ele>235.0</ele><time>2026-04-25T16:00:18.079Z</time></trkpt><trkpt lat="44.2701261" lon="11.108647"><ele>235.0</ele><time>2026-04-25T16:00:20.078Z</time></trkpt><trkpt lat="44.2700552" lon="11.1086798"><ele>235.0</ele><time>2026-04-25T16:00:22.082Z</time></trkpt><trkpt lat="44.269974" lon="11.1087046"><ele>234.99999999999997</ele><time>2026-04-25T16:00:24.086Z</time></trkpt><trkpt lat="44.2698941" lon="11.1087288"><ele>235.0</ele><time>2026-04-25T16:00:26.082Z</time></trkpt><trkpt lat="44.2698167" lon="11.1087607"><ele>235.66666666666666</ele><time>2026-04-25T16:00:28.082Z</time></trkpt><trkpt lat="44.26974" lon="11.1087977"><ele>236.33333333333331</ele><time>2026-04-25T16:00:30.088Z</time></trkpt><trkpt lat="44.2696619" lon="11.1088172"><ele>237.0</ele><time>2026-04-25T16:00:32.081Z</time></trkpt><trkpt lat="44.2695751" lon="11.1088312"><ele>237.66666666666669</ele><time>2026-04-25T16:00:34.081Z</time></trkpt><trkpt lat="44.2694871" lon="11.1088113"><ele>238.33333333333334</ele><time>2026-04-25T16:00:36.094Z</time></trkpt><trkpt lat="44.2693968" lon="11.1087802"><ele>239.0</ele><time>2026-04-25T16:00:38.077Z</time></trkpt><trkpt lat="44.269307" lon="11.1087454"><ele>239.00000000000003</ele><time>2026-04-25T16:00:40.087Z</time></trkpt><trkpt lat="44.2692175" lon="11.1087194"><ele>239.0</ele><time>2026-04-25T16:00:42.093Z</time></trkpt><trkpt lat="44.2691325" lon="11.1086877"><ele>239.0</ele><time>2026-04-25T16:00:44.084Z</time></trkpt><trkpt lat="44.2690613" lon="11.1086418"><ele>239.0</ele><time>2026-04-25T16:00:46.084Z</time></trkpt><trkpt lat="44.2689998" lon="11.1085881"><ele>239.00000000000003</ele><time>2026-04-25T16:00:48.08Z</time></trkpt><trkpt lat="44.2689455" lon="11.1085358"><ele>239.0</ele><time>2026-04-25T16:00:50.084Z</time></trkpt><trkpt lat="44.2688878" lon="11.108492"><ele>238.66666666666669</ele><time>2026-04-25T16:00:52.083Z</time></trkpt><trkpt lat="44.2688161" lon="11.1084539"><ele>238.33333333333334</ele><time>2026-04-25T16:00:55.08Z</time></trkpt><trkpt lat="44.2687283" lon="11.1084465"><ele>238.0</ele><time>2026-04-25T16:00:58.076Z</time></trkpt><trkpt lat="44.2686324" lon="11.1084487"><ele>237.66666666666669</ele><time>2026-04-25T16:01:01.077Z</time></trkpt><trkpt lat="44.268552" lon="11.108461"><ele>237.33333333333334</ele><time>2026-04-25T16:01:03.098Z</time></trkpt><trkpt lat="44.2684514" lon="11.1084891"><ele>237.0</ele><time>2026-04-25T16:01:05.086Z</time></trkpt><trkpt lat="44.268352" lon="11.1085205"><ele>237.0</ele><time>2026-04-25T16:01:07.084Z</time></trkpt><trkpt lat="44.2682373" lon="11.1085563"><ele>237.0</ele><time>2026-04-25T16:01:09.087Z</time></trkpt><trkpt lat="44.268136" lon="11.1085791"><ele>237.0</ele><time>2026-04-25T16:01:11.088Z</time></trkpt><trkpt lat="44.2680464" lon="11.1086032"><ele>237.0</ele><time>2026-04-25T16:01:13.082Z</time></trkpt><trkpt lat="44.2679634" lon="11.1086425"><ele>237.0</ele><time>2026-04-25T16:01:15.085Z</time></trkpt><trkpt lat="44.2678749" lon="11.1086394"><ele>237.0</ele><time>2026-04-25T16:01:17.081Z</time></trkpt><trkpt lat="44.2677673" lon="11.1086078"><ele>237.0</ele><time>2026-04-25T16:01:19.088Z</time></trkpt><trkpt lat="44.267665" lon="11.1085454"><ele>237.0</ele><time>2026-04-25T16:01:21.082Z</time></trkpt><trkpt lat="44.267605" lon="11.108518"><ele>237.0</ele><time>2026-04-25T16:01:22.088Z</time></trkpt><trkpt lat="44.2675444" lon="11.1084774"><ele>237.0</ele><time>2026-04-25T16:01:23.085Z</time></trkpt><trkpt lat="44.2674793" lon="11.1084466"><ele>237.0</ele><time>2026-04-25T16:01:24.08Z</time></trkpt><trkpt lat="44.2673723" lon="11.1083492"><ele>237.0</ele><time>2026-04-25T16:01:26.086Z</time></trkpt><trkpt lat="44.2672868" lon="11.1083191"><ele>237.0</ele><time>2026-04-25T16:01:27.086Z</time></trkpt><trkpt lat="44.2671999" lon="11.1082896"><ele>237.0</ele><time>2026-04-25T16:01:28.089Z</time></trkpt><trkpt lat="44.2670985" lon="11.1082742"><ele>237.0</ele><time>2026-04-25T16:01:29.083Z</time></trkpt><trkpt lat="44.2669954" lon="11.1082722"><ele>237.0</ele><time>2026-04-25T16:01:30.082Z</time></trkpt><trkpt lat="44.2668991" lon="11.1082852"><ele>235.83333333333334</ele><time>2026-04-25T16:01:31.085Z</time></trkpt><trkpt lat="44.2668043" lon="11.1083182"><ele>234.66666666666669</ele><time>2026-04-25T16:01:32.086Z</time></trkpt><trkpt lat="44.2667135" lon="11.108338"><ele>233.5</ele><time>2026-04-25T16:01:33.085Z</time></trkpt><trkpt lat="44.2666252" lon="11.108339"><ele>232.33333333333334</ele><time>2026-04-25T16:01:34.085Z</time></trkpt><trkpt lat="44.266544" lon="11.1083225"><ele>231.16666666666669</ele><time>2026-04-25T16:01:35.118Z</time></trkpt><trkpt lat="44.2664562" lon="11.108341"><ele>230.0</ele><time>2026-04-25T16:01:36.081Z</time></trkpt><trkpt lat="44.2663579" lon="11.1083525"><ele>229.16666666666669</ele><time>2026-04-25T16:01:37.083Z</time></trkpt><trkpt lat="44.2662695" lon="11.1083219"><ele>228.33333333333334</ele><time>2026-04-25T16:01:38.082Z</time></trkpt><trkpt lat="44.2661905" lon="11.1082658"><ele>227.5</ele><time>2026-04-25T16:01:39.092Z</time></trkpt><trkpt lat="44.2661499" lon="11.1081766"><ele>226.66666666666669</ele><time>2026-04-25T16:01:40.081Z</time></trkpt><trkpt lat="44.2661233" lon="11.1080561"><ele>225.83333333333334</ele><time>2026-04-25T16:01:41.088Z</time></trkpt><trkpt lat="44.266126" lon="11.1079306"><ele>225.0</ele><time>2026-04-25T16:01:42.077Z</time></trkpt><trkpt lat="44.266149" lon="11.1077955"><ele>225.0</ele><time>2026-04-25T16:01:43.086Z</time></trkpt><trkpt lat="44.2661603" lon="11.1076731"><ele>225.0</ele><time>2026-04-25T16:01:44.087Z</time></trkpt><trkpt lat="44.2661452" lon="11.1075687"><ele>225.0</ele><time>2026-04-25T16:01:45.086Z</time></trkpt><trkpt lat="44.2661182" lon="11.1074618"><ele>225.0</ele><time>2026-04-25T16:01:46.087Z</time></trkpt><trkpt lat="44.2660766" lon="11.1073933"><ele>225.0</ele><time>2026-04-25T16:01:47.089Z</time></trkpt><trkpt lat="44.2659949" lon="11.1073938"><ele>225.0</ele><time>2026-04-25T16:01:48.084Z</time></trkpt><trkpt lat="44.2659182" lon="11.1073997"><ele>225.0</ele><time>2026-04-25T16:01:49.083Z</time></trkpt><trkpt lat="44.265846" lon="11.107412"><ele>225.0</ele><time>2026-04-25T16:01:50.081Z</time></trkpt><trkpt lat="44.2657667" lon="11.1074255"><ele>225.0</ele><time>2026-04-25T16:01:51.085Z</time></trkpt><trkpt lat="44.2656919" lon="11.1074351"><ele>225.0</ele><time>2026-04-25T16:01:52.086Z</time></trkpt><trkpt lat="44.2656063" lon="11.1074247"><ele>225.0</ele><time>2026-04-25T16:01:53.085Z</time></trkpt><trkpt lat="44.2655388" lon="11.1074346"><ele>225.0</ele><time>2026-04-25T16:01:54.083Z</time></trkpt><trkpt lat="44.265468" lon="11.1074394"><ele>224.83333333333334</ele><time>2026-04-25T16:01:55.091Z</time></trkpt><trkpt lat="44.2653953" lon="11.1074486"><ele>224.66666666666669</ele><time>2026-04-25T16:01:56.091Z</time></trkpt><trkpt lat="44.2653295" lon="11.1074395"><ele>224.5</ele><time>2026-04-25T16:01:57.083Z</time></trkpt><trkpt lat="44.2652599" lon="11.1074536"><ele>224.33333333333334</ele><time>2026-04-25T16:01:58.084Z</time></trkpt><trkpt lat="44.2651352" lon="11.1074976"><ele>224.16666666666669</ele><time>2026-04-25T16:02:00.09Z</time></trkpt><trkpt lat="44.2650669" lon="11.1075093"><ele>224.0</ele><time>2026-04-25T16:02:01.09Z</time></trkpt><trkpt lat="44.2649996" lon="11.1075148"><ele>224.0</ele><time>2026-04-25T16:02:02.084Z</time></trkpt><trkpt lat="44.2649359" lon="11.1075096"><ele>223.99999999999997</ele><time>2026-04-25T16:02:03.081Z</time></trkpt><trkpt lat="44.2648255" lon="11.1074859"><ele>223.99999999999997</ele><time>2026-04-25T16:02:05.087Z</time></trkpt><trkpt lat="44.2647616" lon="11.1074887"><ele>224.0</ele><time>2026-04-25T16:02:06.085Z</time></trkpt><trkpt lat="44.2646542" lon="11.1074387"><ele>224.0</ele><time>2026-04-25T16:02:08.084Z</time></trkpt><trkpt lat="44.2645481" lon="11.1073633"><ele>225.5</ele><time>2026-04-25T16:02:10.081Z</time></trkpt><trkpt lat="44.2644581" lon="11.1072741"><ele>227.0</ele><time>2026-04-25T16:02:12.082Z</time></trkpt><trkpt lat="44.2643761" lon="11.1071714"><ele>228.5</ele><time>2026-04-25T16:02:14.084Z</time></trkpt><trkpt lat="44.2643086" lon="11.1070461"><ele>230.0</ele><time>2026-04-25T16:02:16.087Z</time></trkpt><trkpt lat="44.2642449" lon="11.1069084"><ele>230.0</ele><time>2026-04-25T16:02:18.093Z</time></trkpt><trkpt lat="44.2641777" lon="11.1067754"><ele>230.0</ele><time>2026-04-25T16:02:20.085Z</time></trkpt><trkpt lat="44.2640678" lon="11.1066835"><ele>230.0</ele><time>2026-04-25T16:02:22.082Z</time></trkpt><trkpt lat="44.2639502" lon="11.1066719"><ele>230.0</ele><time>2026-04-25T16:02:24.092Z</time></trkpt><trkpt lat="44.2638784" lon="11.1066662"><ele>230.0</ele><time>2026-04-25T16:02:25.093Z</time></trkpt><trkpt lat="44.2637677" lon="11.1066627"><ele>229.50000000000003</ele><time>2026-04-25T16:02:27.084Z</time></trkpt><trkpt lat="44.2637037" lon="11.106673"><ele>229.0</ele><time>2026-04-25T16:02:28.085Z</time></trkpt><trkpt lat="44.2635876" lon="11.1067405"><ele>228.5</ele><time>2026-04-25T16:02:30.087Z</time></trkpt><trkpt lat="44.2635277" lon="11.1067701"><ele>228.0</ele><time>2026-04-25T16:02:31.091Z</time></trkpt><trkpt lat="44.2634607" lon="11.1068014"><ele>227.50000000000003</ele><time>2026-04-25T16:02:32.086Z</time></trkpt><trkpt lat="44.2633384" lon="11.1068334"><ele>227.0</ele><time>2026-04-25T16:02:34.08Z</time></trkpt><trkpt lat="44.2632763" lon="11.1068512"><ele>227.0</ele><time>2026-04-25T16:02:35.084Z</time></trkpt><trkpt lat="44.263213" lon="11.1068593"><ele>227.00000000000003</ele><time>2026-04-25T16:02:36.086Z</time></trkpt><trkpt lat="44.2631465" lon="11.1068549"><ele>227.0</ele><time>2026-04-25T16:02:37.083Z</time></trkpt><trkpt lat="44.2630812" lon="11.1068387"><ele>227.0</ele><time>2026-04-25T16:02:38.088Z</time></trkpt><trkpt lat="44.2630163" lon="11.1068448"><ele>227.00000000000003</ele><time>2026-04-25T16:02:39.084Z</time></trkpt><trkpt lat="44.2629466" lon="11.1068492"><ele>227.0</ele><time>2026-04-25T16:02:40.085Z</time></trkpt><trkpt lat="44.262831" lon="11.1068304"><ele>227.0</ele><time>2026-04-25T16:02:42.088Z</time></trkpt><trkpt lat="44.2627679" lon="11.1068116"><ele>227.66666666666669</ele><time>2026-04-25T16:02:43.086Z</time></trkpt><trkpt lat="44.2627105" lon="11.1067684"><ele>228.33333333333334</ele><time>2026-04-25T16:02:44.085Z</time></trkpt><trkpt lat="44.2626533" lon="11.1067135"><ele>229.0</ele><time>2026-04-25T16:02:45.083Z</time></trkpt><trkpt lat="44.2626017" lon="11.1066516"><ele>229.66666666666669</ele><time>2026-04-25T16:02:46.086Z</time></trkpt><trkpt lat="44.262518" lon="11.1065196"><ele>230.33333333333334</ele><time>2026-04-25T16:02:48.089Z</time></trkpt><trkpt lat="44.2624746" lon="11.1064447"><ele>231.0</ele><time>2026-04-25T16:02:49.086Z</time></trkpt><trkpt lat="44.2624252" lon="11.1063722"><ele>231.0</ele><time>2026-04-25T16:02:50.086Z</time></trkpt><trkpt lat="44.2623906" lon="11.1062962"><ele>231.0</ele><time>2026-04-25T16:02:51.087Z</time></trkpt><trkpt lat="44.2623503" lon="11.1062133"><ele>231.0</ele><time>2026-04-25T16:02:52.084Z</time></trkpt><trkpt lat="44.2623086" lon="11.1061407"><ele>231.0</ele><time>2026-04-25T16:02:53.081Z</time></trkpt><trkpt lat="44.2622693" lon="11.106063"><ele>231.0</ele><time>2026-04-25T16:02:54.084Z</time></trkpt><trkpt lat="44.2622275" lon="11.1059752"><ele>231.0</ele><time>2026-04-25T16:02:55.086Z</time></trkpt><trkpt lat="44.2621792" lon="11.1058892"><ele>231.0</ele><time>2026-04-25T16:02:56.085Z</time></trkpt><trkpt lat="44.2621322" lon="11.1058203"><ele>230.0</ele><time>2026-04-25T16:02:57.084Z</time></trkpt><trkpt lat="44.2620751" lon="11.1057559"><ele>229.00000000000003</ele><time>2026-04-25T16:02:58.083Z</time></trkpt><trkpt lat="44.2620016" lon="11.105708"><ele>228.00000000000003</ele><time>2026-04-25T16:02:59.084Z</time></trkpt><trkpt lat="44.2619403" lon="11.1056583"><ele>227.0</ele><time>2026-04-25T16:03:00.085Z</time></trkpt><trkpt lat="44.2618096" lon="11.1055605"><ele>226.0</ele><time>2026-04-25T16:03:02.084Z</time></trkpt><trkpt lat="44.261739" lon="11.1055053"><ele>225.99999999999997</ele><time>2026-04-25T16:03:03.087Z</time></trkpt><trkpt lat="44.261668" lon="11.1054661"><ele>226.0</ele><time>2026-04-25T16:03:04.088Z</time></trkpt><trkpt lat="44.2615928" lon="11.1054293"><ele>226.0</ele><time>2026-04-25T16:03:05.084Z</time></trkpt><trkpt lat="44.2615167" lon="11.1053796"><ele>226.0</ele><time>2026-04-25T16:03:06.087Z</time></trkpt><trkpt lat="44.2614447" lon="11.1053468"><ele>225.99999999999997</ele><time>2026-04-25T16:03:07.085Z</time></trkpt><trkpt lat="44.2613389" lon="11.1052481"><ele>226.0</ele><time>2026-04-25T16:03:09.09Z</time></trkpt><trkpt lat="44.2612734" lon="11.105209"><ele>224.71428571428572</ele><time>2026-04-25T16:03:10.081Z</time></trkpt><trkpt lat="44.2612091" lon="11.1051625"><ele>223.42857142857142</ele><time>2026-04-25T16:03:11.083Z</time></trkpt><trkpt lat="44.2611462" lon="11.1051111"><ele>222.14285714285714</ele><time>2026-04-25T16:03:12.085Z</time></trkpt><trkpt lat="44.261086" lon="11.10507"><ele>220.85714285714286</ele><time>2026-04-25T16:03:13.091Z</time></trkpt><trkpt lat="44.2610204" lon="11.1050458"><ele>219.57142857142856</ele><time>2026-04-25T16:03:14.088Z</time></trkpt><trkpt lat="44.2609517" lon="11.1050106"><ele>218.28571428571428</ele><time>2026-04-25T16:03:15.084Z</time></trkpt><trkpt lat="44.2608846" lon="11.1049777"><ele>217.0</ele><time>2026-04-25T16:03:16.08Z</time></trkpt><trkpt lat="44.2608216" lon="11.1049296"><ele>217.42857142857142</ele><time>2026-04-25T16:03:17.079Z</time></trkpt><trkpt lat="44.2607488" lon="11.1048787"><ele>217.85714285714286</ele><time>2026-04-25T16:03:18.082Z</time></trkpt><trkpt lat="44.2606874" lon="11.1048352"><ele>218.28571428571428</ele><time>2026-04-25T16:03:19.085Z</time></trkpt><trkpt lat="44.2606207" lon="11.1047867"><ele>218.71428571428572</ele><time>2026-04-25T16:03:20.083Z</time></trkpt><trkpt lat="44.2605584" lon="11.1047333"><ele>219.14285714285714</ele><time>2026-04-25T16:03:21.082Z</time></trkpt><trkpt lat="44.2604959" lon="11.1046692"><ele>219.57142857142856</ele><time>2026-04-25T16:03:22.082Z</time></trkpt><trkpt lat="44.2604352" lon="11.1046143"><ele>220.0</ele><time>2026-04-25T16:03:23.084Z</time></trkpt><trkpt lat="44.2603792" lon="11.1045523"><ele>219.99999999999997</ele><time>2026-04-25T16:03:24.083Z</time></trkpt><trkpt lat="44.2603186" lon="11.1044949"><ele>220.0</ele><time>2026-04-25T16:03:25.087Z</time></trkpt><trkpt lat="44.2602578" lon="11.1044305"><ele>220.0</ele><time>2026-04-25T16:03:26.089Z</time></trkpt><trkpt lat="44.2602067" lon="11.1043641"><ele>220.0</ele><time>2026-04-25T16:03:27.085Z</time></trkpt><trkpt lat="44.2601472" lon="11.1042955"><ele>220.0</ele><time>2026-04-25T16:03:28.077Z</time></trkpt><trkpt lat="44.2600936" lon="11.1042391"><ele>219.99999999999997</ele><time>2026-04-25T16:03:29.084Z</time></trkpt><trkpt lat="44.2600297" lon="11.1041904"><ele>220.0</ele><time>2026-04-25T16:03:30.086Z</time></trkpt><trkpt lat="44.2599749" lon="11.1041365"><ele>219.99999999999997</ele><time>2026-04-25T16:03:31.088Z</time></trkpt><trkpt lat="44.2599133" lon="11.104083"><ele>220.0</ele><time>2026-04-25T16:03:32.083Z</time></trkpt><trkpt lat="44.2598559" lon="11.1040374"><ele>220.0</ele><time>2026-04-25T16:03:33.084Z</time></trkpt><trkpt lat="44.2597969" lon="11.1040013"><ele>220.0</ele><time>2026-04-25T16:03:34.078Z</time></trkpt><trkpt lat="44.2597255" lon="11.1039753"><ele>220.0</ele><time>2026-04-25T16:03:35.083Z</time></trkpt><trkpt lat="44.2596548" lon="11.1039686"><ele>219.99999999999997</ele><time>2026-04-25T16:03:36.085Z</time></trkpt><trkpt lat="44.2595902" lon="11.1039868"><ele>220.0</ele><time>2026-04-25T16:03:37.079Z</time></trkpt><trkpt lat="44.259514" lon="11.1040177"><ele>220.66666666666666</ele><time>2026-04-25T16:03:38.083Z</time></trkpt><trkpt lat="44.2594448" lon="11.104075"><ele>221.33333333333331</ele><time>2026-04-25T16:03:39.087Z</time></trkpt><trkpt lat="44.259374" lon="11.1041379"><ele>222.0</ele><time>2026-04-25T16:03:40.089Z</time></trkpt><trkpt lat="44.2593177" lon="11.1042023"><ele>222.66666666666669</ele><time>2026-04-25T16:03:41.071Z</time></trkpt><trkpt lat="44.2592716" lon="11.1042746"><ele>223.33333333333334</ele><time>2026-04-25T16:03:42.088Z</time></trkpt><trkpt lat="44.259218" lon="11.1043453"><ele>224.0</ele><time>2026-04-25T16:03:43.077Z</time></trkpt><trkpt lat="44.2591057" lon="11.1044234"><ele>223.00000000000003</ele><time>2026-04-25T16:03:45.086Z</time></trkpt><trkpt lat="44.2590424" lon="11.1044791"><ele>222.0</ele><time>2026-04-25T16:03:46.077Z</time></trkpt><trkpt lat="44.2589824" lon="11.1045148"><ele>221.0</ele><time>2026-04-25T16:03:47.08Z</time></trkpt><trkpt lat="44.2588627" lon="11.1045689"><ele>220.0</ele><time>2026-04-25T16:03:49.085Z</time></trkpt><trkpt lat="44.258798" lon="11.1045684"><ele>219.00000000000003</ele><time>2026-04-25T16:03:50.081Z</time></trkpt><trkpt lat="44.2586799" lon="11.1045879"><ele>218.0</ele><time>2026-04-25T16:03:52.085Z</time></trkpt><trkpt lat="44.2585737" lon="11.104586"><ele>218.0</ele><time>2026-04-25T16:03:54.079Z</time></trkpt><trkpt lat="44.2584676" lon="11.1045773"><ele>218.0</ele><time>2026-04-25T16:03:56.083Z</time></trkpt><trkpt lat="44.258362" lon="11.1046207"><ele>218.0</ele><time>2026-04-25T16:03:58.085Z</time></trkpt><trkpt lat="44.258304" lon="11.1045729"><ele>218.0</ele><time>2026-04-25T16:03:59.085Z</time></trkpt><trkpt lat="44.2581821" lon="11.1045189"><ele>218.0</ele><time>2026-04-25T16:04:01.083Z</time></trkpt><trkpt lat="44.2580729" lon="11.1044817"><ele>218.2</ele><time>2026-04-25T16:04:03.079Z</time></trkpt><trkpt lat="44.2579743" lon="11.1044078"><ele>218.4</ele><time>2026-04-25T16:04:05.085Z</time></trkpt><trkpt lat="44.2578846" lon="11.1043266"><ele>218.59999999999997</ele><time>2026-04-25T16:04:07.083Z</time></trkpt><trkpt lat="44.2578076" lon="11.1042238"><ele>218.79999999999998</ele><time>2026-04-25T16:04:09.085Z</time></trkpt><trkpt lat="44.2577428" lon="11.1041021"><ele>219.0</ele><time>2026-04-25T16:04:11.08Z</time></trkpt><trkpt lat="44.2576989" lon="11.1040115"><ele>219.0</ele><time>2026-04-25T16:04:12.084Z</time></trkpt><trkpt lat="44.2576287" lon="11.1038884"><ele>218.99999999999997</ele><time>2026-04-25T16:04:14.083Z</time></trkpt><trkpt lat="44.2575728" lon="11.1037796"><ele>218.99999999999997</ele><time>2026-04-25T16:04:16.091Z</time></trkpt><trkpt lat="44.2575105" lon="11.1036554"><ele>219.0</ele><time>2026-04-25T16:04:18.085Z</time></trkpt><trkpt lat="44.2574491" lon="11.1035272"><ele>219.0</ele><time>2026-04-25T16:04:20.082Z</time></trkpt><trkpt lat="44.257363" lon="11.1034146"><ele>218.75</ele><time>2026-04-25T16:04:22.089Z</time></trkpt><trkpt lat="44.2572687" lon="11.1033547"><ele>218.5</ele><time>2026-04-25T16:04:24.09Z</time></trkpt><trkpt lat="44.2571532" lon="11.1032792"><ele>218.25</ele><time>2026-04-25T16:04:26.085Z</time></trkpt><trkpt lat="44.2570357" lon="11.1032596"><ele>218.0</ele><time>2026-04-25T16:04:28.08Z</time></trkpt><trkpt lat="44.2569143" lon="11.1032489"><ele>218.0</ele><time>2026-04-25T16:04:30.087Z</time></trkpt><trkpt lat="44.2568092" lon="11.1032784"><ele>218.0</ele><time>2026-04-25T16:04:32.078Z</time></trkpt><trkpt lat="44.2567231" lon="11.1033358"><ele>218.0</ele><time>2026-04-25T16:04:34.087Z</time></trkpt><trkpt lat="44.2566268" lon="11.1034014"><ele>218.0</ele><time>2026-04-25T16:04:36.079Z</time></trkpt><trkpt lat="44.2565667" lon="11.1034357"><ele>218.0</ele><time>2026-04-25T16:04:37.09Z</time></trkpt><trkpt lat="44.2564576" lon="11.1034881"><ele>217.4</ele><time>2026-04-25T16:04:39.084Z</time></trkpt><trkpt lat="44.256339" lon="11.1034844"><ele>216.8</ele><time>2026-04-25T16:04:41.088Z</time></trkpt><trkpt lat="44.256211" lon="11.1034059"><ele>216.2</ele><time>2026-04-25T16:04:43.088Z</time></trkpt><trkpt lat="44.2561534" lon="11.1033679"><ele>215.6</ele><time>2026-04-25T16:04:44.087Z</time></trkpt><trkpt lat="44.2560931" lon="11.1033201"><ele>215.0</ele><time>2026-04-25T16:04:45.089Z</time></trkpt><trkpt lat="44.2559805" lon="11.1032843"><ele>215.6</ele><time>2026-04-25T16:04:47.086Z</time></trkpt><trkpt lat="44.2558826" lon="11.103243"><ele>216.2</ele><time>2026-04-25T16:04:49.088Z</time></trkpt><trkpt lat="44.255778" lon="11.1031825"><ele>216.8</ele><time>2026-04-25T16:04:51.091Z</time></trkpt><trkpt lat="44.255671" lon="11.1031253"><ele>217.4</ele><time>2026-04-25T16:04:53.087Z</time></trkpt><trkpt lat="44.2555589" lon="11.1030687"><ele>218.0</ele><time>2026-04-25T16:04:55.081Z</time></trkpt><trkpt lat="44.2554624" lon="11.102987"><ele>218.00000000000003</ele><time>2026-04-25T16:04:57.09Z</time></trkpt><trkpt lat="44.25541" lon="11.1029339"><ele>218.0</ele><time>2026-04-25T16:04:58.082Z</time></trkpt><trkpt lat="44.2553213" lon="11.102861"><ele>218.0</ele><time>2026-04-25T16:05:00.088Z</time></trkpt><trkpt lat="44.2552582" lon="11.1028114"><ele>218.0</ele><time>2026-04-25T16:05:01.085Z</time></trkpt><trkpt lat="44.2551611" lon="11.1027562"><ele>218.00000000000003</ele><time>2026-04-25T16:05:03.078Z</time></trkpt><trkpt lat="44.2550642" lon="11.1027184"><ele>218.0</ele><time>2026-04-25T16:05:05.087Z</time></trkpt><trkpt lat="44.2549691" lon="11.1026776"><ele>218.00000000000003</ele><time>2026-04-25T16:05:07.088Z</time></trkpt><trkpt lat="44.2549141" lon="11.1026102"><ele>218.0</ele><time>2026-04-25T16:05:09.076Z</time></trkpt><trkpt lat="44.2548691" lon="11.1025213"><ele>218.0</ele><time>2026-04-25T16:05:13.082Z</time></trkpt><trkpt lat="44.2548058" lon="11.1024492"><ele>218.0</ele><time>2026-04-25T16:05:17.078Z</time></trkpt><trkpt lat="44.2547364" lon="11.1024024"><ele>218.00000000000003</ele><time>2026-04-25T16:05:20.075Z</time></trkpt><trkpt lat="44.2546619" lon="11.1023288"><ele>218.0</ele><time>2026-04-25T16:05:23.079Z</time></trkpt><trkpt lat="44.2545915" lon="11.1022684"><ele>217.4</ele><time>2026-04-25T16:05:25.09Z</time></trkpt><trkpt lat="44.2545286" lon="11.1021976"><ele>216.8</ele><time>2026-04-25T16:05:27.082Z</time></trkpt><trkpt lat="44.2544663" lon="11.1021068"><ele>216.2</ele><time>2026-04-25T16:05:29.085Z</time></trkpt><trkpt lat="44.2543965" lon="11.1020078"><ele>215.6</ele><time>2026-04-25T16:05:31.083Z</time></trkpt><trkpt lat="44.2543274" lon="11.1019031"><ele>215.0</ele><time>2026-04-25T16:05:33.091Z</time></trkpt><trkpt lat="44.2542568" lon="11.101806"><ele>215.0</ele><time>2026-04-25T16:05:35.084Z</time></trkpt><trkpt lat="44.2542045" lon="11.1016885"><ele>215.0</ele><time>2026-04-25T16:05:37.087Z</time></trkpt><trkpt lat="44.254184" lon="11.1015513"><ele>215.0</ele><time>2026-04-25T16:05:39.086Z</time></trkpt><trkpt lat="44.2541806" lon="11.1014222"><ele>215.0</ele><time>2026-04-25T16:05:41.092Z</time></trkpt><trkpt lat="44.2541805" lon="11.1012701"><ele>215.0</ele><time>2026-04-25T16:05:43.084Z</time></trkpt><trkpt lat="44.25418" lon="11.1011289"><ele>215.6</ele><time>2026-04-25T16:05:45.083Z</time></trkpt><trkpt lat="44.2541504" lon="11.1010003"><ele>216.2</ele><time>2026-04-25T16:05:47.081Z</time></trkpt><trkpt lat="44.2541386" lon="11.1008643"><ele>216.8</ele><time>2026-04-25T16:05:49.083Z</time></trkpt><trkpt lat="44.2540933" lon="11.1007468"><ele>217.4</ele><time>2026-04-25T16:05:51.085Z</time></trkpt><trkpt lat="44.254058" lon="11.1006169"><ele>218.0</ele><time>2026-04-25T16:05:53.08Z</time></trkpt><trkpt lat="44.2540228" lon="11.1005056"><ele>218.16666666666669</ele><time>2026-04-25T16:05:55.083Z</time></trkpt><trkpt lat="44.2539959" lon="11.1003867"><ele>218.33333333333334</ele><time>2026-04-25T16:05:57.084Z</time></trkpt><trkpt lat="44.2539722" lon="11.1002726"><ele>218.5</ele><time>2026-04-25T16:05:59.087Z</time></trkpt><trkpt lat="44.2539279" lon="11.100153"><ele>218.66666666666669</ele><time>2026-04-25T16:06:01.087Z</time></trkpt><trkpt lat="44.2539034" lon="11.1000596"><ele>218.83333333333334</ele><time>2026-04-25T16:06:03.087Z</time></trkpt><trkpt lat="44.2538735" lon="11.0999799"><ele>219.0</ele><time>2026-04-25T16:06:05.084Z</time></trkpt><trkpt lat="44.2538309" lon="11.0998972"><ele>219.0</ele><time>2026-04-25T16:06:07.085Z</time></trkpt><trkpt lat="44.2537709" lon="11.0998031"><ele>218.99999999999997</ele><time>2026-04-25T16:06:09.084Z</time></trkpt><trkpt lat="44.2536868" lon="11.0997022"><ele>218.99999999999997</ele><time>2026-04-25T16:06:11.083Z</time></trkpt><trkpt lat="44.253606" lon="11.0996168"><ele>219.0</ele><time>2026-04-25T16:06:13.08Z</time></trkpt><trkpt lat="44.2535215" lon="11.0995493"><ele>219.0</ele><time>2026-04-25T16:06:15.083Z</time></trkpt><trkpt lat="44.2534499" lon="11.099479"><ele>219.0</ele><time>2026-04-25T16:06:17.082Z</time></trkpt><trkpt lat="44.2533912" lon="11.0993897"><ele>219.0</ele><time>2026-04-25T16:06:19.084Z</time></trkpt><trkpt lat="44.2533449" lon="11.0992885"><ele>219.0</ele><time>2026-04-25T16:06:21.084Z</time></trkpt><trkpt lat="44.2533217" lon="11.0991692"><ele>219.0</ele><time>2026-04-25T16:06:23.086Z</time></trkpt><trkpt lat="44.2532883" lon="11.099073"><ele>219.0</ele><time>2026-04-25T16:06:25.081Z</time></trkpt><trkpt lat="44.2532535" lon="11.0989807"><ele>219.0</ele><time>2026-04-25T16:06:27.084Z</time></trkpt><trkpt lat="44.2532079" lon="11.0988896"><ele>218.66666666666666</ele><time>2026-04-25T16:06:29.081Z</time></trkpt><trkpt lat="44.2531626" lon="11.0987971"><ele>218.33333333333331</ele><time>2026-04-25T16:06:31.084Z</time></trkpt><trkpt lat="44.253108" lon="11.098705"><ele>218.0</ele><time>2026-04-25T16:06:33.081Z</time></trkpt><trkpt lat="44.2530427" lon="11.0986126"><ele>217.66666666666666</ele><time>2026-04-25T16:06:35.087Z</time></trkpt><trkpt lat="44.2529773" lon="11.0985352"><ele>217.33333333333331</ele><time>2026-04-25T16:06:37.082Z</time></trkpt><trkpt lat="44.2529052" lon="11.0984639"><ele>217.0</ele><time>2026-04-25T16:06:39.086Z</time></trkpt><trkpt lat="44.2528421" lon="11.0984023"><ele>216.99999999999997</ele><time>2026-04-25T16:06:41.086Z</time></trkpt><trkpt lat="44.2527798" lon="11.0983498"><ele>217.0</ele><time>2026-04-25T16:06:43.085Z</time></trkpt><trkpt lat="44.2527135" lon="11.0982843"><ele>217.0</ele><time>2026-04-25T16:06:45.085Z</time></trkpt><trkpt lat="44.2526495" lon="11.0982013"><ele>217.0</ele><time>2026-04-25T16:06:47.087Z</time></trkpt><trkpt lat="44.2525724" lon="11.098115"><ele>216.99999999999997</ele><time>2026-04-25T16:06:49.089Z</time></trkpt><trkpt lat="44.2525008" lon="11.0980293"><ele>217.0</ele><time>2026-04-25T16:06:51.089Z</time></trkpt><trkpt lat="44.2524624" lon="11.0979482"><ele>217.0</ele><time>2026-04-25T16:06:52.086Z</time></trkpt><trkpt lat="44.2523732" lon="11.0978744"><ele>217.0</ele><time>2026-04-25T16:06:54.087Z</time></trkpt><trkpt lat="44.2522823" lon="11.0977585"><ele>217.0</ele><time>2026-04-25T16:06:56.079Z</time></trkpt><trkpt lat="44.2522102" lon="11.0976437"><ele>217.0</ele><time>2026-04-25T16:06:58.09Z</time></trkpt><trkpt lat="44.2521549" lon="11.0975321"><ele>217.0</ele><time>2026-04-25T16:07:00.083Z</time></trkpt><trkpt lat="44.2521082" lon="11.0974399"><ele>218.83333333333331</ele><time>2026-04-25T16:07:02.086Z</time></trkpt><trkpt lat="44.2520691" lon="11.0973546"><ele>220.66666666666666</ele><time>2026-04-25T16:07:04.085Z</time></trkpt><trkpt lat="44.2520189" lon="11.0972553"><ele>222.5</ele><time>2026-04-25T16:07:06.084Z</time></trkpt><trkpt lat="44.2519704" lon="11.0971613"><ele>224.33333333333331</ele><time>2026-04-25T16:07:08.082Z</time></trkpt><trkpt lat="44.2519107" lon="11.0970862"><ele>226.16666666666666</ele><time>2026-04-25T16:07:10.081Z</time></trkpt><trkpt lat="44.2518475" lon="11.09703"><ele>228.0</ele><time>2026-04-25T16:07:12.086Z</time></trkpt><trkpt lat="44.2517867" lon="11.096996"><ele>228.0</ele><time>2026-04-25T16:07:14.078Z</time></trkpt><trkpt lat="44.2517063" lon="11.0969594"><ele>228.0</ele><time>2026-04-25T16:07:17.083Z</time></trkpt><trkpt lat="44.2516231" lon="11.0969399"><ele>228.0</ele><time>2026-04-25T16:07:20.086Z</time></trkpt><trkpt lat="44.2515436" lon="11.0968901"><ele>228.0</ele><time>2026-04-25T16:07:23.08Z</time></trkpt><trkpt lat="44.2514644" lon="11.0968636"><ele>228.0</ele><time>2026-04-25T16:07:26.09Z</time></trkpt><trkpt lat="44.251391" lon="11.0968392"><ele>228.0</ele><time>2026-04-25T16:07:29.102Z</time></trkpt><trkpt lat="44.2513097" lon="11.0968055"><ele>227.5</ele><time>2026-04-25T16:07:33.081Z</time></trkpt><trkpt lat="44.2512429" lon="11.0967782"><ele>227.0</ele><time>2026-04-25T16:07:36.082Z</time></trkpt><trkpt lat="44.2511693" lon="11.0967237"><ele>226.5</ele><time>2026-04-25T16:07:39.082Z</time></trkpt><trkpt lat="44.2510831" lon="11.0966829"><ele>226.0</ele><time>2026-04-25T16:07:42.085Z</time></trkpt><trkpt lat="44.2510057" lon="11.0966691"><ele>225.5</ele><time>2026-04-25T16:07:44.084Z</time></trkpt><trkpt lat="44.2509318" lon="11.096646"><ele>225.0</ele><time>2026-04-25T16:07:46.08Z</time></trkpt><trkpt lat="44.2508633" lon="11.0966165"><ele>226.2</ele><time>2026-04-25T16:07:48.072Z</time></trkpt><trkpt lat="44.2507905" lon="11.0965812"><ele>227.4</ele><time>2026-04-25T16:07:50.092Z</time></trkpt><trkpt lat="44.250726" lon="11.0965492"><ele>228.60000000000002</ele><time>2026-04-25T16:07:51.087Z</time></trkpt><trkpt lat="44.2506297" lon="11.0965175"><ele>229.8</ele><time>2026-04-25T16:07:53.082Z</time></trkpt><trkpt lat="44.2505182" lon="11.0965109"><ele>231.0</ele><time>2026-04-25T16:07:55.092Z</time></trkpt><trkpt lat="44.2504169" lon="11.096459"><ele>231.0</ele><time>2026-04-25T16:07:57.084Z</time></trkpt><trkpt lat="44.2503139" lon="11.0964502"><ele>231.00000000000003</ele><time>2026-04-25T16:07:59.079Z</time></trkpt><trkpt lat="44.2502181" lon="11.0964239"><ele>231.00000000000003</ele><time>2026-04-25T16:08:01.088Z</time></trkpt><trkpt lat="44.2501341" lon="11.096397"><ele>231.0</ele><time>2026-04-25T16:08:03.088Z</time></trkpt><trkpt lat="44.2500448" lon="11.0963937"><ele>231.0</ele><time>2026-04-25T16:08:05.086Z</time></trkpt><trkpt lat="44.2499534" lon="11.0964214"><ele>231.0</ele><time>2026-04-25T16:08:07.084Z</time></trkpt><trkpt lat="44.2498794" lon="11.096438"><ele>231.0</ele><time>2026-04-25T16:08:09.084Z</time></trkpt><trkpt lat="44.2498061" lon="11.0964583"><ele>231.0</ele><time>2026-04-25T16:08:11.087Z</time></trkpt><trkpt lat="44.2497331" lon="11.0964593"><ele>231.0</ele><time>2026-04-25T16:08:13.087Z</time></trkpt><trkpt lat="44.2496675" lon="11.0964454"><ele>231.0</ele><time>2026-04-25T16:08:15.082Z</time></trkpt><trkpt lat="44.249606" lon="11.0964203"><ele>231.0</ele><time>2026-04-25T16:08:17.086Z</time></trkpt><trkpt lat="44.2495388" lon="11.0963991"><ele>231.0</ele><time>2026-04-25T16:08:19.092Z</time></trkpt><trkpt lat="44.2494686" lon="11.0963671"><ele>230.57142857142856</ele><time>2026-04-25T16:08:21.086Z</time></trkpt><trkpt lat="44.249397" lon="11.0963362"><ele>230.14285714285714</ele><time>2026-04-25T16:08:23.087Z</time></trkpt><trkpt lat="44.2493299" lon="11.0963068"><ele>229.71428571428572</ele><time>2026-04-25T16:08:25.085Z</time></trkpt><trkpt lat="44.2492624" lon="11.096283"><ele>229.28571428571428</ele><time>2026-04-25T16:08:27.087Z</time></trkpt><trkpt lat="44.2491964" lon="11.0962434"><ele>228.85714285714283</ele><time>2026-04-25T16:08:29.086Z</time></trkpt><trkpt lat="44.2491288" lon="11.0962185"><ele>228.42857142857142</ele><time>2026-04-25T16:08:31.084Z</time></trkpt><trkpt lat="44.2490605" lon="11.0961997"><ele>228.0</ele><time>2026-04-25T16:08:33.083Z</time></trkpt><trkpt lat="44.2489933" lon="11.0961773"><ele>228.28571428571428</ele><time>2026-04-25T16:08:35.086Z</time></trkpt><trkpt lat="44.2489305" lon="11.0961539"><ele>228.57142857142856</ele><time>2026-04-25T16:08:37.078Z</time></trkpt><trkpt lat="44.2488485" lon="11.0961146"><ele>228.85714285714283</ele><time>2026-04-25T16:08:40.092Z</time></trkpt><trkpt lat="44.2487765" lon="11.096078"><ele>229.1428571428571</ele><time>2026-04-25T16:08:43.09Z</time></trkpt><trkpt lat="44.248706" lon="11.0960494"><ele>229.42857142857142</ele><time>2026-04-25T16:08:46.08Z</time></trkpt><trkpt lat="44.2486351" lon="11.0960252"><ele>229.71428571428567</ele><time>2026-04-25T16:08:49.084Z</time></trkpt><trkpt lat="44.2485683" lon="11.0959909"><ele>229.99999999999997</ele><time>2026-04-25T16:08:52.08Z</time></trkpt><trkpt lat="44.2484892" lon="11.0959535"><ele>229.99999999999997</ele><time>2026-04-25T16:08:55.084Z</time></trkpt><trkpt lat="44.2484086" lon="11.0959184"><ele>230.0</ele><time>2026-04-25T16:08:58.082Z</time></trkpt><trkpt lat="44.2483371" lon="11.0958772"><ele>229.99999999999997</ele><time>2026-04-25T16:09:01.093Z</time></trkpt><trkpt lat="44.2482767" lon="11.0958226"><ele>229.99999999999997</ele><time>2026-04-25T16:09:04.075Z</time></trkpt><trkpt lat="44.2482126" lon="11.0957866"><ele>230.0</ele><time>2026-04-25T16:09:07.081Z</time></trkpt><trkpt lat="44.2481391" lon="11.0957502"><ele>229.99999999999997</ele><time>2026-04-25T16:09:11.087Z</time></trkpt><trkpt lat="44.2480807" lon="11.0957022"><ele>229.99999999999997</ele><time>2026-04-25T16:09:15.085Z</time></trkpt><trkpt lat="44.2480129" lon="11.0956524"><ele>231.1428571428571</ele><time>2026-04-25T16:09:19.086Z</time></trkpt><trkpt lat="44.2479471" lon="11.0956247"><ele>232.28571428571428</ele><time>2026-04-25T16:09:23.086Z</time></trkpt><trkpt lat="44.2478738" lon="11.0955767"><ele>233.42857142857142</ele><time>2026-04-25T16:09:27.084Z</time></trkpt><trkpt lat="44.2478233" lon="11.0955139"><ele>234.57142857142856</ele><time>2026-04-25T16:09:30.084Z</time></trkpt><trkpt lat="44.2477711" lon="11.0954637"><ele>235.71428571428572</ele><time>2026-04-25T16:09:33.088Z</time></trkpt><trkpt lat="44.2477131" lon="11.095417"><ele>236.85714285714286</ele><time>2026-04-25T16:09:36.082Z</time></trkpt><trkpt lat="44.2476504" lon="11.095369"><ele>238.0</ele><time>2026-04-25T16:09:39.084Z</time></trkpt><trkpt lat="44.2475749" lon="11.095317"><ele>237.99999999999997</ele><time>2026-04-25T16:09:43.086Z</time></trkpt><trkpt lat="44.2475104" lon="11.0952647"><ele>238.0</ele><time>2026-04-25T16:09:46.086Z</time></trkpt><trkpt lat="44.2474438" lon="11.0952131"><ele>238.0</ele><time>2026-04-25T16:09:49.084Z</time></trkpt><trkpt lat="44.2473669" lon="11.0951282"><ele>238.0</ele><time>2026-04-25T16:09:52.085Z</time></trkpt><trkpt lat="44.2473069" lon="11.0950614"><ele>237.99999999999997</ele><time>2026-04-25T16:09:54.079Z</time></trkpt><trkpt lat="44.2472596" lon="11.0949643"><ele>238.0</ele><time>2026-04-25T16:09:56.086Z</time></trkpt><trkpt lat="44.2472379" lon="11.0948279"><ele>235.8</ele><time>2026-04-25T16:09:58.084Z</time></trkpt><trkpt lat="44.247234" lon="11.0946691"><ele>233.60000000000002</ele><time>2026-04-25T16:10:00.082Z</time></trkpt><trkpt lat="44.2472416" lon="11.0945157"><ele>231.39999999999998</ele><time>2026-04-25T16:10:02.081Z</time></trkpt><trkpt lat="44.2472382" lon="11.0943702"><ele>229.2</ele><time>2026-04-25T16:10:04.081Z</time></trkpt><trkpt lat="44.2472296" lon="11.0942752"><ele>227.0</ele><time>2026-04-25T16:10:05.095Z</time></trkpt><trkpt lat="44.2472237" lon="11.0941771"><ele>226.66666666666669</ele><time>2026-04-25T16:10:06.087Z</time></trkpt><trkpt lat="44.2471872" lon="11.0940595"><ele>226.33333333333334</ele><time>2026-04-25T16:10:08.079Z</time></trkpt><trkpt lat="44.2471421" lon="11.0939681"><ele>226.0</ele><time>2026-04-25T16:10:12.082Z</time></trkpt><trkpt lat="44.2471506" lon="11.0938743"><ele>225.66666666666669</ele><time>2026-04-25T16:10:15.089Z</time></trkpt><trkpt lat="44.247169" lon="11.093741"><ele>225.33333333333334</ele><time>2026-04-25T16:10:18.079Z</time></trkpt><trkpt lat="44.2471695" lon="11.0936384"><ele>225.0</ele><time>2026-04-25T16:10:20.085Z</time></trkpt><trkpt lat="44.2471715" lon="11.0935447"><ele>225.0</ele><time>2026-04-25T16:10:22.083Z</time></trkpt><trkpt lat="44.2471693" lon="11.0934523"><ele>225.0</ele><time>2026-04-25T16:10:24.082Z</time></trkpt><trkpt lat="44.247149" lon="11.0933644"><ele>225.0</ele><time>2026-04-25T16:10:26.092Z</time></trkpt><trkpt lat="44.2471091" lon="11.0932733"><ele>225.0</ele><time>2026-04-25T16:10:28.085Z</time></trkpt><trkpt lat="44.2470517" lon="11.0931857"><ele>225.0</ele><time>2026-04-25T16:10:30.09Z</time></trkpt><trkpt lat="44.2469996" lon="11.0930975"><ele>225.0</ele><time>2026-04-25T16:10:32.086Z</time></trkpt><trkpt lat="44.2469436" lon="11.0930042"><ele>225.71428571428575</ele><time>2026-04-25T16:10:34.085Z</time></trkpt><trkpt lat="44.2468934" lon="11.092912"><ele>226.42857142857144</ele><time>2026-04-25T16:10:36.079Z</time></trkpt><trkpt lat="44.2468688" lon="11.0928198"><ele>227.14285714285714</ele><time>2026-04-25T16:10:38.085Z</time></trkpt><trkpt lat="44.2468449" lon="11.0927293"><ele>227.85714285714286</ele><time>2026-04-25T16:10:40.094Z</time></trkpt><trkpt lat="44.2468017" lon="11.0926374"><ele>228.57142857142856</ele><time>2026-04-25T16:10:42.093Z</time></trkpt><trkpt lat="44.2467644" lon="11.092546"><ele>229.28571428571425</ele><time>2026-04-25T16:10:44.081Z</time></trkpt><trkpt lat="44.246731" lon="11.0924596"><ele>229.99999999999997</ele><time>2026-04-25T16:10:46.085Z</time></trkpt><trkpt lat="44.2466922" lon="11.092374"><ele>230.71428571428567</ele><time>2026-04-25T16:10:48.082Z</time></trkpt><trkpt lat="44.246651" lon="11.0922865"><ele>231.42857142857142</ele><time>2026-04-25T16:10:50.087Z</time></trkpt><trkpt lat="44.2466088" lon="11.0922016"><ele>232.1428571428571</ele><time>2026-04-25T16:10:52.088Z</time></trkpt><trkpt lat="44.2465652" lon="11.0921215"><ele>232.85714285714283</ele><time>2026-04-25T16:10:54.096Z</time></trkpt><trkpt lat="44.2465247" lon="11.0920416"><ele>233.57142857142856</ele><time>2026-04-25T16:10:56.084Z</time></trkpt><trkpt lat="44.2464844" lon="11.0919652"><ele>234.28571428571428</ele><time>2026-04-25T16:10:58.083Z</time></trkpt><trkpt lat="44.2464464" lon="11.0918819"><ele>235.0</ele><time>2026-04-25T16:11:00.086Z</time></trkpt><trkpt lat="44.2464079" lon="11.0917861"><ele>234.49999999999997</ele><time>2026-04-25T16:11:02.083Z</time></trkpt><trkpt lat="44.2463614" lon="11.0916938"><ele>234.0</ele><time>2026-04-25T16:11:04.089Z</time></trkpt><trkpt lat="44.2463136" lon="11.091596"><ele>233.5</ele><time>2026-04-25T16:11:06.088Z</time></trkpt><trkpt lat="44.2462725" lon="11.0914911"><ele>233.0</ele><time>2026-04-25T16:11:08.081Z</time></trkpt><trkpt lat="44.2462332" lon="11.091386"><ele>232.49999999999997</ele><time>2026-04-25T16:11:10.088Z</time></trkpt><trkpt lat="44.246197" lon="11.09128"><ele>232.0</ele><time>2026-04-25T16:11:12.089Z</time></trkpt><trkpt lat="44.2461576" lon="11.0911794"><ele>231.99999999999997</ele><time>2026-04-25T16:11:14.081Z</time></trkpt><trkpt lat="44.2461158" lon="11.0910928"><ele>232.0</ele><time>2026-04-25T16:11:16.083Z</time></trkpt><trkpt lat="44.2460762" lon="11.0910045"><ele>232.0</ele><time>2026-04-25T16:11:18.085Z</time></trkpt><trkpt lat="44.2460337" lon="11.0909178"><ele>232.0</ele><time>2026-04-25T16:11:20.085Z</time></trkpt><trkpt lat="44.2459836" lon="11.0908358"><ele>231.99999999999997</ele><time>2026-04-25T16:11:22.082Z</time></trkpt><trkpt lat="44.2459378" lon="11.0907469"><ele>232.0</ele><time>2026-04-25T16:11:24.084Z</time></trkpt><trkpt lat="44.2458871" lon="11.0906429"><ele>231.33333333333331</ele><time>2026-04-25T16:11:26.086Z</time></trkpt><trkpt lat="44.2458373" lon="11.0905429"><ele>230.66666666666666</ele><time>2026-04-25T16:11:28.085Z</time></trkpt><trkpt lat="44.2457868" lon="11.0904581"><ele>230.0</ele><time>2026-04-25T16:11:30.085Z</time></trkpt><trkpt lat="44.2457451" lon="11.0903724"><ele>229.33333333333331</ele><time>2026-04-25T16:11:32.087Z</time></trkpt><trkpt lat="44.2456998" lon="11.0902821"><ele>228.66666666666666</ele><time>2026-04-25T16:11:34.083Z</time></trkpt><trkpt lat="44.2456514" lon="11.0901923"><ele>228.0</ele><time>2026-04-25T16:11:36.086Z</time></trkpt><trkpt lat="44.2456149" lon="11.0901179"><ele>228.0</ele><time>2026-04-25T16:11:38.083Z</time></trkpt><trkpt lat="44.2455766" lon="11.090037"><ele>228.0</ele><time>2026-04-25T16:11:40.082Z</time></trkpt><trkpt lat="44.2455381" lon="11.0899571"><ele>228.0</ele><time>2026-04-25T16:11:42.086Z</time></trkpt><trkpt lat="44.2454925" lon="11.0898739"><ele>228.0</ele><time>2026-04-25T16:11:44.08Z</time></trkpt><trkpt lat="44.2454522" lon="11.0897795"><ele>228.0</ele><time>2026-04-25T16:11:46.087Z</time></trkpt><trkpt lat="44.2454287" lon="11.0896454"><ele>228.0</ele><time>2026-04-25T16:11:49.082Z</time></trkpt><trkpt lat="44.2453967" lon="11.0895441"><ele>229.0</ele><time>2026-04-25T16:11:51.079Z</time></trkpt><trkpt lat="44.2453632" lon="11.0894397"><ele>230.0</ele><time>2026-04-25T16:11:53.09Z</time></trkpt><trkpt lat="44.2453367" lon="11.0893355"><ele>231.0</ele><time>2026-04-25T16:11:55.085Z</time></trkpt><trkpt lat="44.2453169" lon="11.0892278"><ele>232.0</ele><time>2026-04-25T16:11:57.083Z</time></trkpt><trkpt lat="44.2453103" lon="11.0891158"><ele>233.0</ele><time>2026-04-25T16:11:59.081Z</time></trkpt><trkpt lat="44.2453004" lon="11.0890143"><ele>234.0</ele><time>2026-04-25T16:12:01.081Z</time></trkpt><trkpt lat="44.2452887" lon="11.0888987"><ele>234.5</ele><time>2026-04-25T16:12:03.086Z</time></trkpt><trkpt lat="44.245275" lon="11.0887802"><ele>235.0</ele><time>2026-04-25T16:12:05.081Z</time></trkpt><trkpt lat="44.2452667" lon="11.08868"><ele>235.5</ele><time>2026-04-25T16:12:07.083Z</time></trkpt><trkpt lat="44.2452579" lon="11.0885776"><ele>236.0</ele><time>2026-04-25T16:12:09.08Z</time></trkpt><trkpt lat="44.2452503" lon="11.0884764"><ele>236.5</ele><time>2026-04-25T16:12:11.08Z</time></trkpt><trkpt lat="44.2452377" lon="11.0883745"><ele>237.0</ele><time>2026-04-25T16:12:13.081Z</time></trkpt><trkpt lat="44.245218" lon="11.0882708"><ele>237.83333333333334</ele><time>2026-04-25T16:12:15.084Z</time></trkpt><trkpt lat="44.2451955" lon="11.0881679"><ele>238.66666666666669</ele><time>2026-04-25T16:12:17.079Z</time></trkpt><trkpt lat="44.2451599" lon="11.088064"><ele>239.5</ele><time>2026-04-25T16:12:19.084Z</time></trkpt><trkpt lat="44.2451112" lon="11.0879594"><ele>240.33333333333334</ele><time>2026-04-25T16:12:21.084Z</time></trkpt><trkpt lat="44.2450506" lon="11.0878595"><ele>241.16666666666669</ele><time>2026-04-25T16:12:23.086Z</time></trkpt><trkpt lat="44.244996" lon="11.0877685"><ele>242.0</ele><time>2026-04-25T16:12:25.091Z</time></trkpt><trkpt lat="44.2449412" lon="11.0876892"><ele>242.00000000000003</ele><time>2026-04-25T16:12:27.08Z</time></trkpt><trkpt lat="44.2448735" lon="11.0876212"><ele>242.0</ele><time>2026-04-25T16:12:29.081Z</time></trkpt><trkpt lat="44.2447994" lon="11.0875728"><ele>242.0</ele><time>2026-04-25T16:12:31.08Z</time></trkpt><trkpt lat="44.2447343" lon="11.0875434"><ele>242.0</ele><time>2026-04-25T16:12:33.084Z</time></trkpt><trkpt lat="44.2446487" lon="11.087521"><ele>242.00000000000003</ele><time>2026-04-25T16:12:35.085Z</time></trkpt><trkpt lat="44.2445592" lon="11.0874974"><ele>242.0</ele><time>2026-04-25T16:12:37.093Z</time></trkpt><trkpt lat="44.2444668" lon="11.0874926"><ele>241.39999999999998</ele><time>2026-04-25T16:12:39.085Z</time></trkpt><trkpt lat="44.2443767" lon="11.0874974"><ele>240.79999999999998</ele><time>2026-04-25T16:12:41.086Z</time></trkpt><trkpt lat="44.2442794" lon="11.0875025"><ele>240.2</ele><time>2026-04-25T16:12:43.083Z</time></trkpt><trkpt lat="44.244193" lon="11.0874715"><ele>239.6</ele><time>2026-04-25T16:12:45.089Z</time></trkpt><trkpt lat="44.2441184" lon="11.0874362"><ele>239.0</ele><time>2026-04-25T16:12:47.086Z</time></trkpt><trkpt lat="44.244032" lon="11.0873823"><ele>238.0</ele><time>2026-04-25T16:12:49.09Z</time></trkpt><trkpt lat="44.2439572" lon="11.0873128"><ele>236.99999999999997</ele><time>2026-04-25T16:12:51.081Z</time></trkpt><trkpt lat="44.2438865" lon="11.0872224"><ele>235.99999999999997</ele><time>2026-04-25T16:12:53.09Z</time></trkpt><trkpt lat="44.2438149" lon="11.0871334"><ele>235.0</ele><time>2026-04-25T16:12:55.079Z</time></trkpt><trkpt lat="44.2437515" lon="11.0870315"><ele>234.0</ele><time>2026-04-25T16:12:57.086Z</time></trkpt><trkpt lat="44.2436835" lon="11.0869305"><ele>234.0</ele><time>2026-04-25T16:12:59.087Z</time></trkpt><trkpt lat="44.2436137" lon="11.0868271"><ele>233.99999999999997</ele><time>2026-04-25T16:13:01.086Z</time></trkpt><trkpt lat="44.2435458" lon="11.0867164"><ele>233.99999999999997</ele><time>2026-04-25T16:13:03.088Z</time></trkpt><trkpt lat="44.2434812" lon="11.0865976"><ele>234.0</ele><time>2026-04-25T16:13:05.081Z</time></trkpt><trkpt lat="44.2434044" lon="11.086489"><ele>234.0</ele><time>2026-04-25T16:13:07.084Z</time></trkpt><trkpt lat="44.2433589" lon="11.0864276"><ele>235.2</ele><time>2026-04-25T16:13:08.084Z</time></trkpt><trkpt lat="44.2432768" lon="11.0863086"><ele>236.39999999999998</ele><time>2026-04-25T16:13:10.082Z</time></trkpt><trkpt lat="44.24321" lon="11.0861871"><ele>237.6</ele><time>2026-04-25T16:13:12.085Z</time></trkpt><trkpt lat="44.2431636" lon="11.08612"><ele>238.8</ele><time>2026-04-25T16:13:13.088Z</time></trkpt><trkpt lat="44.2430912" lon="11.0859875"><ele>240.0</ele><time>2026-04-25T16:13:15.089Z</time></trkpt><trkpt lat="44.2430077" lon="11.0858646"><ele>238.2</ele><time>2026-04-25T16:13:17.08Z</time></trkpt><trkpt lat="44.242922" lon="11.08574"><ele>236.4</ele><time>2026-04-25T16:13:19.087Z</time></trkpt><trkpt lat="44.2428806" lon="11.0856586"><ele>234.60000000000002</ele><time>2026-04-25T16:13:20.077Z</time></trkpt><trkpt lat="44.2428378" lon="11.085591"><ele>232.8</ele><time>2026-04-25T16:13:21.077Z</time></trkpt><trkpt lat="44.2427554" lon="11.0854658"><ele>231.0</ele><time>2026-04-25T16:13:23.085Z</time></trkpt><trkpt lat="44.2426745" lon="11.0853201"><ele>231.0</ele><time>2026-04-25T16:13:25.079Z</time></trkpt><trkpt lat="44.2426319" lon="11.0852464"><ele>231.00000000000003</ele><time>2026-04-25T16:13:26.083Z</time></trkpt><trkpt lat="44.242574" lon="11.0851115"><ele>231.00000000000003</ele><time>2026-04-25T16:13:28.089Z</time></trkpt><trkpt lat="44.2425099" lon="11.0849919"><ele>231.0</ele><time>2026-04-25T16:13:30.096Z</time></trkpt><trkpt lat="44.242446" lon="11.0848777"><ele>231.0</ele><time>2026-04-25T16:13:32.078Z</time></trkpt><trkpt lat="44.2423869" lon="11.0847531"><ele>231.4</ele><time>2026-04-25T16:13:34.083Z</time></trkpt><trkpt lat="44.2423326" lon="11.0846242"><ele>231.8</ele><time>2026-04-25T16:13:36.081Z</time></trkpt><trkpt lat="44.2422894" lon="11.0845129"><ele>232.20000000000002</ele><time>2026-04-25T16:13:38.081Z</time></trkpt><trkpt lat="44.2422535" lon="11.0844"><ele>232.60000000000002</ele><time>2026-04-25T16:13:40.086Z</time></trkpt><trkpt lat="44.2422161" lon="11.0842875"><ele>233.0</ele><time>2026-04-25T16:13:42.086Z</time></trkpt><trkpt lat="44.2422196" lon="11.0841596"><ele>231.83333333333334</ele><time>2026-04-25T16:13:44.081Z</time></trkpt><trkpt lat="44.2421997" lon="11.0840502"><ele>230.66666666666669</ele><time>2026-04-25T16:13:46.087Z</time></trkpt><trkpt lat="44.2422068" lon="11.0839276"><ele>229.5</ele><time>2026-04-25T16:13:48.079Z</time></trkpt><trkpt lat="44.24219" lon="11.0838145"><ele>228.33333333333331</ele><time>2026-04-25T16:13:50.083Z</time></trkpt><trkpt lat="44.2421788" lon="11.0837014"><ele>227.16666666666666</ele><time>2026-04-25T16:13:52.078Z</time></trkpt><trkpt lat="44.2421668" lon="11.0835907"><ele>226.0</ele><time>2026-04-25T16:13:54.089Z</time></trkpt><trkpt lat="44.2421576" lon="11.0834701"><ele>225.99999999999997</ele><time>2026-04-25T16:13:56.078Z</time></trkpt><trkpt lat="44.2421491" lon="11.0833506"><ele>226.0</ele><time>2026-04-25T16:13:58.079Z</time></trkpt><trkpt lat="44.2421421" lon="11.083241"><ele>226.0</ele><time>2026-04-25T16:14:00.075Z</time></trkpt><trkpt lat="44.2421363" lon="11.0831296"><ele>226.0</ele><time>2026-04-25T16:14:02.081Z</time></trkpt><trkpt lat="44.2421322" lon="11.0830134"><ele>225.99999999999997</ele><time>2026-04-25T16:14:04.088Z</time></trkpt><trkpt lat="44.2421371" lon="11.0829075"><ele>226.0</ele><time>2026-04-25T16:14:06.084Z</time></trkpt><trkpt lat="44.2421595" lon="11.0827996"><ele>225.66666666666666</ele><time>2026-04-25T16:14:08.084Z</time></trkpt><trkpt lat="44.2421793" lon="11.08269"><ele>225.33333333333331</ele><time>2026-04-25T16:14:10.088Z</time></trkpt><trkpt lat="44.242207" lon="11.0825903"><ele>225.0</ele><time>2026-04-25T16:14:12.08Z</time></trkpt><trkpt lat="44.2422326" lon="11.0824938"><ele>224.66666666666669</ele><time>2026-04-25T16:14:14.085Z</time></trkpt><trkpt lat="44.242253" lon="11.0823946"><ele>224.33333333333334</ele><time>2026-04-25T16:14:16.083Z</time></trkpt><trkpt lat="44.2422759" lon="11.0822872"><ele>224.0</ele><time>2026-04-25T16:14:18.08Z</time></trkpt><trkpt lat="44.2423026" lon="11.0821864"><ele>225.66666666666669</ele><time>2026-04-25T16:14:20.086Z</time></trkpt><trkpt lat="44.242331" lon="11.0820807"><ele>227.33333333333334</ele><time>2026-04-25T16:14:22.082Z</time></trkpt><trkpt lat="44.2423587" lon="11.0819718"><ele>229.0</ele><time>2026-04-25T16:14:24.083Z</time></trkpt><trkpt lat="44.2423845" lon="11.0818611"><ele>230.66666666666669</ele><time>2026-04-25T16:14:26.085Z</time></trkpt><trkpt lat="44.2424162" lon="11.0817486"><ele>232.33333333333334</ele><time>2026-04-25T16:14:28.084Z</time></trkpt><trkpt lat="44.242435" lon="11.081639"><ele>234.0</ele><time>2026-04-25T16:14:30.073Z</time></trkpt><trkpt lat="44.2424614" lon="11.0815229"><ele>234.0</ele><time>2026-04-25T16:14:32.095Z</time></trkpt><trkpt lat="44.242481" lon="11.0814032"><ele>234.0</ele><time>2026-04-25T16:14:34.083Z</time></trkpt><trkpt lat="44.2425116" lon="11.0813034"><ele>234.0</ele><time>2026-04-25T16:14:36.085Z</time></trkpt><trkpt lat="44.2425398" lon="11.0812119"><ele>234.0</ele><time>2026-04-25T16:14:38.088Z</time></trkpt><trkpt lat="44.2425711" lon="11.0811216"><ele>234.0</ele><time>2026-04-25T16:14:40.082Z</time></trkpt><trkpt lat="44.2425971" lon="11.0810234"><ele>234.0</ele><time>2026-04-25T16:14:42.086Z</time></trkpt><trkpt lat="44.24263" lon="11.0809253"><ele>234.0</ele><time>2026-04-25T16:14:44.081Z</time></trkpt><trkpt lat="44.2426528" lon="11.0808103"><ele>234.0</ele><time>2026-04-25T16:14:46.081Z</time></trkpt><trkpt lat="44.2426863" lon="11.0807089"><ele>234.0</ele><time>2026-04-25T16:14:48.088Z</time></trkpt><trkpt lat="44.2427078" lon="11.0806056"><ele>234.0</ele><time>2026-04-25T16:14:50.075Z</time></trkpt><trkpt lat="44.2427168" lon="11.0804937"><ele>234.0</ele><time>2026-04-25T16:14:52.085Z</time></trkpt><trkpt lat="44.2427138" lon="11.0803426"><ele>234.0</ele><time>2026-04-25T16:14:54.081Z</time></trkpt><trkpt lat="44.2427019" lon="11.0801781"><ele>233.0</ele><time>2026-04-25T16:14:56.081Z</time></trkpt><trkpt lat="44.2427159" lon="11.0800099"><ele>232.0</ele><time>2026-04-25T16:14:58.085Z</time></trkpt><trkpt lat="44.2427306" lon="11.0799162"><ele>231.0</ele><time>2026-04-25T16:14:59.085Z</time></trkpt><trkpt lat="44.2427384" lon="11.0798098"><ele>230.0</ele><time>2026-04-25T16:15:00.083Z</time></trkpt><trkpt lat="44.2427431" lon="11.079708"><ele>229.0</ele><time>2026-04-25T16:15:01.084Z</time></trkpt><trkpt lat="44.2427561" lon="11.07961"><ele>228.0</ele><time>2026-04-25T16:15:02.08Z</time></trkpt><trkpt lat="44.2427687" lon="11.0795151"><ele>227.66666666666666</ele><time>2026-04-25T16:15:03.087Z</time></trkpt><trkpt lat="44.242794" lon="11.0794139"><ele>227.33333333333331</ele><time>2026-04-25T16:15:04.082Z</time></trkpt><trkpt lat="44.2428203" lon="11.0793237"><ele>227.0</ele><time>2026-04-25T16:15:05.083Z</time></trkpt><trkpt lat="44.2428509" lon="11.0792455"><ele>226.66666666666666</ele><time>2026-04-25T16:15:06.088Z</time></trkpt><trkpt lat="44.2429092" lon="11.0791129"><ele>226.33333333333331</ele><time>2026-04-25T16:15:08.079Z</time></trkpt><trkpt lat="44.2429602" lon="11.0790128"><ele>226.0</ele><time>2026-04-25T16:15:10.081Z</time></trkpt><trkpt lat="44.2430089" lon="11.0788994"><ele>225.99999999999997</ele><time>2026-04-25T16:15:12.084Z</time></trkpt><trkpt lat="44.2430566" lon="11.0787997"><ele>226.0</ele><time>2026-04-25T16:15:14.08Z</time></trkpt><trkpt lat="44.2431066" lon="11.0787158"><ele>226.0</ele><time>2026-04-25T16:15:16.078Z</time></trkpt><trkpt lat="44.2431325" lon="11.078627"><ele>226.0</ele><time>2026-04-25T16:15:18.081Z</time></trkpt><trkpt lat="44.243141" lon="11.0785175"><ele>225.99999999999997</ele><time>2026-04-25T16:15:20.077Z</time></trkpt><trkpt lat="44.2431503" lon="11.0783856"><ele>226.0</ele><time>2026-04-25T16:15:22.079Z</time></trkpt><trkpt lat="44.2431492" lon="11.0782465"><ele>227.99999999999997</ele><time>2026-04-25T16:15:24.081Z</time></trkpt><trkpt lat="44.2431554" lon="11.0781302"><ele>230.0</ele><time>2026-04-25T16:15:26.077Z</time></trkpt><trkpt lat="44.2431634" lon="11.0780281"><ele>232.0</ele><time>2026-04-25T16:15:28.081Z</time></trkpt><trkpt lat="44.2431537" lon="11.0779058"><ele>234.0</ele><time>2026-04-25T16:15:30.081Z</time></trkpt><trkpt lat="44.2431508" lon="11.0777857"><ele>235.99999999999997</ele><time>2026-04-25T16:15:32.083Z</time></trkpt><trkpt lat="44.2431414" lon="11.0776719"><ele>238.0</ele><time>2026-04-25T16:15:34.085Z</time></trkpt><trkpt lat="44.2431383" lon="11.0775521"><ele>238.8</ele><time>2026-04-25T16:15:36.081Z</time></trkpt><trkpt lat="44.2431354" lon="11.0774289"><ele>239.60000000000002</ele><time>2026-04-25T16:15:38.085Z</time></trkpt><trkpt lat="44.2431184" lon="11.0772983"><ele>240.39999999999998</ele><time>2026-04-25T16:15:40.078Z</time></trkpt><trkpt lat="44.2430844" lon="11.0771633"><ele>241.2</ele><time>2026-04-25T16:15:42.08Z</time></trkpt><trkpt lat="44.2430701" lon="11.0770353"><ele>242.0</ele><time>2026-04-25T16:15:44.084Z</time></trkpt><trkpt lat="44.2430223" lon="11.076912"><ele>240.83333333333334</ele><time>2026-04-25T16:15:46.095Z</time></trkpt><trkpt lat="44.2429769" lon="11.076791"><ele>239.66666666666669</ele><time>2026-04-25T16:15:48.08Z</time></trkpt><trkpt lat="44.2429327" lon="11.0766891"><ele>238.5</ele><time>2026-04-25T16:15:50.079Z</time></trkpt><trkpt lat="44.2428854" lon="11.0765783"><ele>237.33333333333331</ele><time>2026-04-25T16:15:52.077Z</time></trkpt><trkpt lat="44.2428399" lon="11.0764806"><ele>236.16666666666666</ele><time>2026-04-25T16:15:54.081Z</time></trkpt><trkpt lat="44.2427906" lon="11.0763904"><ele>235.0</ele><time>2026-04-25T16:15:56.081Z</time></trkpt><trkpt lat="44.242758" lon="11.0762876"><ele>234.99999999999997</ele><time>2026-04-25T16:15:58.08Z</time></trkpt><trkpt lat="44.2427285" lon="11.0761928"><ele>235.0</ele><time>2026-04-25T16:16:00.08Z</time></trkpt><trkpt lat="44.2426994" lon="11.0760904"><ele>235.0</ele><time>2026-04-25T16:16:02.077Z</time></trkpt><trkpt lat="44.2426883" lon="11.0759769"><ele>235.0</ele><time>2026-04-25T16:16:04.078Z</time></trkpt><trkpt lat="44.2426898" lon="11.0758566"><ele>234.99999999999997</ele><time>2026-04-25T16:16:06.089Z</time></trkpt><trkpt lat="44.2427066" lon="11.0757421"><ele>235.0</ele><time>2026-04-25T16:16:08.083Z</time></trkpt><trkpt lat="44.2427137" lon="11.0756085"><ele>235.4</ele><time>2026-04-25T16:16:10.086Z</time></trkpt><trkpt lat="44.2427014" lon="11.0754795"><ele>235.8</ele><time>2026-04-25T16:16:12.086Z</time></trkpt><trkpt lat="44.2427149" lon="11.0753098"><ele>236.2</ele><time>2026-04-25T16:16:14.079Z</time></trkpt><trkpt lat="44.2427053" lon="11.0751464"><ele>236.6</ele><time>2026-04-25T16:16:16.081Z</time></trkpt><trkpt lat="44.2427003" lon="11.0749973"><ele>237.0</ele><time>2026-04-25T16:16:18.081Z</time></trkpt><trkpt lat="44.2426751" lon="11.0748479"><ele>238.6</ele><time>2026-04-25T16:16:20.091Z</time></trkpt><trkpt lat="44.2426225" lon="11.0747323"><ele>240.2</ele><time>2026-04-25T16:16:22.082Z</time></trkpt><trkpt lat="44.2425665" lon="11.0746253"><ele>241.8</ele><time>2026-04-25T16:16:24.087Z</time></trkpt><trkpt lat="44.2425023" lon="11.0745219"><ele>243.4</ele><time>2026-04-25T16:16:26.08Z</time></trkpt><trkpt lat="44.2424357" lon="11.0744264"><ele>245.0</ele><time>2026-04-25T16:16:28.08Z</time></trkpt><trkpt lat="44.2423739" lon="11.0743383"><ele>243.0</ele><time>2026-04-25T16:16:30.086Z</time></trkpt><trkpt lat="44.2422972" lon="11.074243"><ele>241.0</ele><time>2026-04-25T16:16:32.085Z</time></trkpt><trkpt lat="44.2422288" lon="11.0741469"><ele>239.0</ele><time>2026-04-25T16:16:34.087Z</time></trkpt><trkpt lat="44.2421727" lon="11.0740668"><ele>237.0</ele><time>2026-04-25T16:16:36.079Z</time></trkpt><trkpt lat="44.2420914" lon="11.0739688"><ele>235.0</ele><time>2026-04-25T16:16:38.081Z</time></trkpt><trkpt lat="44.2419977" lon="11.0738688"><ele>235.0</ele><time>2026-04-25T16:16:40.082Z</time></trkpt><trkpt lat="44.241945" lon="11.0738206"><ele>235.0</ele><time>2026-04-25T16:16:41.083Z</time></trkpt><trkpt lat="44.2418676" lon="11.0737239"><ele>235.0</ele><time>2026-04-25T16:16:43.08Z</time></trkpt><trkpt lat="44.2417811" lon="11.0736291"><ele>235.0</ele><time>2026-04-25T16:16:45.082Z</time></trkpt><trkpt lat="44.2416832" lon="11.0735262"><ele>235.0</ele><time>2026-04-25T16:16:47.085Z</time></trkpt><trkpt lat="44.2416049" lon="11.0734364"><ele>235.0</ele><time>2026-04-25T16:16:49.085Z</time></trkpt><trkpt lat="44.2415244" lon="11.0733332"><ele>235.0</ele><time>2026-04-25T16:16:51.08Z</time></trkpt><trkpt lat="44.2414352" lon="11.0732509"><ele>235.0</ele><time>2026-04-25T16:16:53.084Z</time></trkpt><trkpt lat="44.241349" lon="11.0731837"><ele>235.0</ele><time>2026-04-25T16:16:55.081Z</time></trkpt><trkpt lat="44.241276" lon="11.0731036"><ele>235.0</ele><time>2026-04-25T16:16:57.085Z</time></trkpt><trkpt lat="44.2411923" lon="11.0730178"><ele>234.8</ele><time>2026-04-25T16:16:59.081Z</time></trkpt><trkpt lat="44.2411091" lon="11.0729482"><ele>234.6</ele><time>2026-04-25T16:17:01.085Z</time></trkpt><trkpt lat="44.2410308" lon="11.0728708"><ele>234.39999999999998</ele><time>2026-04-25T16:17:03.086Z</time></trkpt><trkpt lat="44.2409659" lon="11.072759"><ele>234.2</ele><time>2026-04-25T16:17:05.08Z</time></trkpt><trkpt lat="44.2408976" lon="11.0726517"><ele>234.0</ele><time>2026-04-25T16:17:07.079Z</time></trkpt><trkpt lat="44.2408445" lon="11.0725274"><ele>234.39999999999998</ele><time>2026-04-25T16:17:09.081Z</time></trkpt><trkpt lat="44.2407808" lon="11.0724272"><ele>234.79999999999998</ele><time>2026-04-25T16:17:11.075Z</time></trkpt><trkpt lat="44.2407195" lon="11.0723559"><ele>235.20000000000002</ele><time>2026-04-25T16:17:13.084Z</time></trkpt><trkpt lat="44.2406422" lon="11.0722867"><ele>235.60000000000002</ele><time>2026-04-25T16:17:15.092Z</time></trkpt><trkpt lat="44.2405564" lon="11.0721784"><ele>236.0</ele><time>2026-04-25T16:17:17.085Z</time></trkpt><trkpt lat="44.2404988" lon="11.0721108"><ele>236.00000000000003</ele><time>2026-04-25T16:17:18.079Z</time></trkpt><trkpt lat="44.2404471" lon="11.072027"><ele>236.0</ele><time>2026-04-25T16:17:19.086Z</time></trkpt><trkpt lat="44.2403501" lon="11.0718938"><ele>236.0</ele><time>2026-04-25T16:17:21.087Z</time></trkpt><trkpt lat="44.2402932" lon="11.0718315"><ele>236.0</ele><time>2026-04-25T16:17:22.087Z</time></trkpt><trkpt lat="44.2402199" lon="11.0717968"><ele>236.00000000000003</ele><time>2026-04-25T16:17:23.085Z</time></trkpt><trkpt lat="44.2401463" lon="11.0717667"><ele>236.0</ele><time>2026-04-25T16:17:24.084Z</time></trkpt><trkpt lat="44.2400737" lon="11.071753"><ele>236.0</ele><time>2026-04-25T16:17:25.082Z</time></trkpt><trkpt lat="44.2400001" lon="11.0717426"><ele>236.00000000000003</ele><time>2026-04-25T16:17:26.081Z</time></trkpt><trkpt lat="44.239932" lon="11.0717434"><ele>236.00000000000003</ele><time>2026-04-25T16:17:27.082Z</time></trkpt><trkpt lat="44.2398229" lon="11.0717302"><ele>236.0</ele><time>2026-04-25T16:17:29.085Z</time></trkpt><trkpt lat="44.2397371" lon="11.0717328"><ele>236.0</ele><time>2026-04-25T16:17:31.085Z</time></trkpt><trkpt lat="44.2396352" lon="11.0717999"><ele>236.0</ele><time>2026-04-25T16:17:33.081Z</time></trkpt><trkpt lat="44.2395447" lon="11.0718582"><ele>236.0</ele><time>2026-04-25T16:17:35.081Z</time></trkpt><trkpt lat="44.2394482" lon="11.0719095"><ele>236.0</ele><time>2026-04-25T16:17:37.084Z</time></trkpt><trkpt lat="44.2393435" lon="11.071973"><ele>236.0</ele><time>2026-04-25T16:17:39.082Z</time></trkpt><trkpt lat="44.2392236" lon="11.0720624"><ele>236.0</ele><time>2026-04-25T16:17:41.092Z</time></trkpt><trkpt lat="44.2391558" lon="11.0721873"><ele>236.00000000000003</ele><time>2026-04-25T16:17:43.084Z</time></trkpt><trkpt lat="44.2390866" lon="11.0723142"><ele>236.00000000000003</ele><time>2026-04-25T16:17:45.084Z</time></trkpt><trkpt lat="44.2390957" lon="11.072429"><ele>236.0</ele><time>2026-04-25T16:17:46.097Z</time></trkpt><trkpt lat="44.2390834" lon="11.0725931"><ele>236.0</ele><time>2026-04-25T16:17:48.079Z</time></trkpt><trkpt lat="44.2390987" lon="11.0727575"><ele>236.0</ele><time>2026-04-25T16:17:50.082Z</time></trkpt><trkpt lat="44.2391288" lon="11.0729121"><ele>236.00000000000003</ele><time>2026-04-25T16:17:52.086Z</time></trkpt><trkpt lat="44.239124" lon="11.0730362"><ele>236.00000000000003</ele><time>2026-04-25T16:17:54.08Z</time></trkpt><trkpt lat="44.2390556" lon="11.073106"><ele>236.0</ele><time>2026-04-25T16:17:56.08Z</time></trkpt><trkpt lat="44.2389645" lon="11.0731339"><ele>236.0</ele><time>2026-04-25T16:17:58.077Z</time></trkpt><trkpt lat="44.2388893" lon="11.0731381"><ele>235.20000000000002</ele><time>2026-04-25T16:17:59.088Z</time></trkpt><trkpt lat="44.2387957" lon="11.0731231"><ele>234.40000000000003</ele><time>2026-04-25T16:18:01.082Z</time></trkpt><trkpt lat="44.2386889" lon="11.0730972"><ele>233.6</ele><time>2026-04-25T16:18:03.082Z</time></trkpt><trkpt lat="44.2385966" lon="11.07304"><ele>232.8</ele><time>2026-04-25T16:18:05.083Z</time></trkpt><trkpt lat="44.238525" lon="11.0729866"><ele>232.0</ele><time>2026-04-25T16:18:07.077Z</time></trkpt><trkpt lat="44.2384297" lon="11.0729327"><ele>232.0</ele><time>2026-04-25T16:18:09.083Z</time></trkpt><trkpt lat="44.2383533" lon="11.0728915"><ele>232.0</ele><time>2026-04-25T16:18:11.087Z</time></trkpt><trkpt lat="44.2382634" lon="11.0728391"><ele>232.0</ele><time>2026-04-25T16:18:13.078Z</time></trkpt><trkpt lat="44.2381761" lon="11.0727692"><ele>232.0</ele><time>2026-04-25T16:18:15.068Z</time></trkpt><trkpt lat="44.238096" lon="11.0727104"><ele>232.0</ele><time>2026-04-25T16:18:17.09Z</time></trkpt><trkpt lat="44.2380154" lon="11.0726034"><ele>232.6</ele><time>2026-04-25T16:18:19.09Z</time></trkpt><trkpt lat="44.2379336" lon="11.0725003"><ele>233.2</ele><time>2026-04-25T16:18:21.08Z</time></trkpt><trkpt lat="44.2378574" lon="11.0724254"><ele>233.8</ele><time>2026-04-25T16:18:23.085Z</time></trkpt><trkpt lat="44.2377789" lon="11.0723441"><ele>234.4</ele><time>2026-04-25T16:18:25.086Z</time></trkpt><trkpt lat="44.2376854" lon="11.072255"><ele>235.0</ele><time>2026-04-25T16:18:27.092Z</time></trkpt><trkpt lat="44.2375915" lon="11.0721804"><ele>235.0</ele><time>2026-04-25T16:18:29.088Z</time></trkpt><trkpt lat="44.2374983" lon="11.0720933"><ele>235.0</ele><time>2026-04-25T16:18:31.083Z</time></trkpt><trkpt lat="44.2374084" lon="11.0720267"><ele>235.0</ele><time>2026-04-25T16:18:33.077Z</time></trkpt><trkpt lat="44.2373185" lon="11.0719565"><ele>235.0</ele><time>2026-04-25T16:18:35.081Z</time></trkpt><trkpt lat="44.237228" lon="11.0719055"><ele>235.0</ele><time>2026-04-25T16:18:37.09Z</time></trkpt><trkpt lat="44.2371177" lon="11.0718713"><ele>235.2</ele><time>2026-04-25T16:18:39.075Z</time></trkpt><trkpt lat="44.237016" lon="11.0718204"><ele>235.4</ele><time>2026-04-25T16:18:41.086Z</time></trkpt><trkpt lat="44.2369152" lon="11.0717935"><ele>235.60000000000002</ele><time>2026-04-25T16:18:43.087Z</time></trkpt><trkpt lat="44.2368161" lon="11.0717637"><ele>235.8</ele><time>2026-04-25T16:18:45.078Z</time></trkpt><trkpt lat="44.236709" lon="11.0717362"><ele>236.0</ele><time>2026-04-25T16:18:47.08Z</time></trkpt><trkpt lat="44.2365906" lon="11.0717062"><ele>236.00000000000003</ele><time>2026-04-25T16:18:49.09Z</time></trkpt><trkpt lat="44.2365002" lon="11.0716536"><ele>236.0</ele><time>2026-04-25T16:18:51.078Z</time></trkpt><trkpt lat="44.2364299" lon="11.0715718"><ele>236.0</ele><time>2026-04-25T16:18:53.082Z</time></trkpt><trkpt lat="44.2363569" lon="11.0714715"><ele>236.0</ele><time>2026-04-25T16:18:55.084Z</time></trkpt><trkpt lat="44.2362999" lon="11.0714068"><ele>236.00000000000003</ele><time>2026-04-25T16:18:57.087Z</time></trkpt><trkpt lat="44.2362286" lon="11.0713831"><ele>236.0</ele><time>2026-04-25T16:18:59.081Z</time></trkpt><trkpt lat="44.2361389" lon="11.0713369"><ele>236.66666666666669</ele><time>2026-04-25T16:19:01.082Z</time></trkpt><trkpt lat="44.2360674" lon="11.0713167"><ele>237.33333333333334</ele><time>2026-04-25T16:19:03.082Z</time></trkpt><trkpt lat="44.2359728" lon="11.0712819"><ele>238.0</ele><time>2026-04-25T16:19:05.088Z</time></trkpt><trkpt lat="44.235898" lon="11.0712589"><ele>238.66666666666669</ele><time>2026-04-25T16:19:07.088Z</time></trkpt><trkpt lat="44.2358215" lon="11.0712356"><ele>239.33333333333334</ele><time>2026-04-25T16:19:09.077Z</time></trkpt><trkpt lat="44.2357559" lon="11.0712024"><ele>240.0</ele><time>2026-04-25T16:19:10.083Z</time></trkpt><trkpt lat="44.2356589" lon="11.0711493"><ele>240.16666666666666</ele><time>2026-04-25T16:19:12.082Z</time></trkpt><trkpt lat="44.2355687" lon="11.0710703"><ele>240.33333333333331</ele><time>2026-04-25T16:19:14.08Z</time></trkpt><trkpt lat="44.2354828" lon="11.0710099"><ele>240.5</ele><time>2026-04-25T16:19:16.083Z</time></trkpt><trkpt lat="44.2353961" lon="11.0709573"><ele>240.66666666666666</ele><time>2026-04-25T16:19:18.075Z</time></trkpt><trkpt lat="44.2353346" lon="11.0709107"><ele>240.83333333333331</ele><time>2026-04-25T16:19:20.081Z</time></trkpt><trkpt lat="44.2352739" lon="11.070874"><ele>241.0</ele><time>2026-04-25T16:19:23.086Z</time></trkpt><trkpt lat="44.2352203" lon="11.0708166"><ele>242.99999999999997</ele><time>2026-04-25T16:19:26.081Z</time></trkpt><trkpt lat="44.2351717" lon="11.0707512"><ele>245.0</ele><time>2026-04-25T16:19:29.079Z</time></trkpt><trkpt lat="44.235114" lon="11.070665"><ele>247.0</ele><time>2026-04-25T16:19:32.087Z</time></trkpt><trkpt lat="44.2350477" lon="11.0705918"><ele>249.0</ele><time>2026-04-25T16:19:35.08Z</time></trkpt><trkpt lat="44.2349939" lon="11.0705133"><ele>250.99999999999997</ele><time>2026-04-25T16:19:38.079Z</time></trkpt><trkpt lat="44.2349515" lon="11.0704413"><ele>253.0</ele><time>2026-04-25T16:19:41.09Z</time></trkpt><trkpt lat="44.2349096" lon="11.070352"><ele>253.0</ele><time>2026-04-25T16:19:44.079Z</time></trkpt><trkpt lat="44.234853" lon="11.0702783"><ele>253.0</ele><time>2026-04-25T16:19:47.081Z</time></trkpt><trkpt lat="44.23477" lon="11.0702324"><ele>253.0</ele><time>2026-04-25T16:19:50.083Z</time></trkpt><trkpt lat="44.2346866" lon="11.0702083"><ele>253.0</ele><time>2026-04-25T16:19:52.085Z</time></trkpt><trkpt lat="44.2346223" lon="11.0701851"><ele>253.0</ele><time>2026-04-25T16:19:53.079Z</time></trkpt><trkpt lat="44.2344843" lon="11.0701573"><ele>252.28571428571433</ele><time>2026-04-25T16:19:55.088Z</time></trkpt><trkpt lat="44.2344095" lon="11.0701625"><ele>251.57142857142858</ele><time>2026-04-25T16:19:56.081Z</time></trkpt><trkpt lat="44.2343348" lon="11.0701663"><ele>250.8571428571429</ele><time>2026-04-25T16:19:57.086Z</time></trkpt><trkpt lat="44.2342514" lon="11.0701483"><ele>250.14285714285717</ele><time>2026-04-25T16:19:58.082Z</time></trkpt><trkpt lat="44.234207" lon="11.0700842"><ele>249.42857142857144</ele><time>2026-04-25T16:19:59.104Z</time></trkpt><trkpt lat="44.2341434" lon="11.0700582"><ele>248.71428571428572</ele><time>2026-04-25T16:20:00.081Z</time></trkpt><trkpt lat="44.2340762" lon="11.0700182"><ele>248.0</ele><time>2026-04-25T16:20:01.081Z</time></trkpt><trkpt lat="44.2340143" lon="11.0700009"><ele>248.57142857142858</ele><time>2026-04-25T16:20:02.082Z</time></trkpt><trkpt lat="44.2339273" lon="11.0699415"><ele>249.14285714285717</ele><time>2026-04-25T16:20:04.084Z</time></trkpt><trkpt lat="44.2338742" lon="11.0698853"><ele>249.71428571428572</ele><time>2026-04-25T16:20:06.092Z</time></trkpt><trkpt lat="44.233815" lon="11.0698415"><ele>250.28571428571428</ele><time>2026-04-25T16:20:08.086Z</time></trkpt><trkpt lat="44.2337575" lon="11.069794"><ele>250.85714285714286</ele><time>2026-04-25T16:20:10.082Z</time></trkpt><trkpt lat="44.2336944" lon="11.0697536"><ele>251.42857142857144</ele><time>2026-04-25T16:20:12.076Z</time></trkpt><trkpt lat="44.2336332" lon="11.0697203"><ele>252.0</ele><time>2026-04-25T16:20:14.08Z</time></trkpt><trkpt lat="44.2335704" lon="11.0696848"><ele>252.0</ele><time>2026-04-25T16:20:16.082Z</time></trkpt><trkpt lat="44.2335024" lon="11.0696512"><ele>252.0</ele><time>2026-04-25T16:20:18.082Z</time></trkpt><trkpt lat="44.2333905" lon="11.0695887"><ele>252.0</ele><time>2026-04-25T16:20:20.082Z</time></trkpt><trkpt lat="44.2333303" lon="11.0695483"><ele>252.0</ele><time>2026-04-25T16:20:21.08Z</time></trkpt><trkpt lat="44.2332694" lon="11.0695028"><ele>252.0</ele><time>2026-04-25T16:20:22.081Z</time></trkpt><trkpt lat="44.2332007" lon="11.0694666"><ele>252.0</ele><time>2026-04-25T16:20:23.084Z</time></trkpt><trkpt lat="44.2331081" lon="11.0693839"><ele>252.42857142857144</ele><time>2026-04-25T16:20:25.083Z</time></trkpt><trkpt lat="44.2330529" lon="11.0692995"><ele>252.85714285714286</ele><time>2026-04-25T16:20:27.082Z</time></trkpt><trkpt lat="44.2330079" lon="11.06922"><ele>253.28571428571428</ele><time>2026-04-25T16:20:30.081Z</time></trkpt><trkpt lat="44.2329609" lon="11.0691463"><ele>253.71428571428572</ele><time>2026-04-25T16:20:35.082Z</time></trkpt><trkpt lat="44.2329078" lon="11.0690718"><ele>254.14285714285717</ele><time>2026-04-25T16:20:40.08Z</time></trkpt><trkpt lat="44.2328606" lon="11.069006"><ele>254.57142857142858</ele><time>2026-04-25T16:20:44.092Z</time></trkpt><trkpt lat="44.2328023" lon="11.0689302"><ele>255.0</ele><time>2026-04-25T16:20:49.084Z</time></trkpt><trkpt lat="44.2327433" lon="11.0688913"><ele>255.0</ele><time>2026-04-25T16:20:54.081Z</time></trkpt><trkpt lat="44.2326835" lon="11.0688491"><ele>255.0</ele><time>2026-04-25T16:20:59.082Z</time></trkpt><trkpt lat="44.2326219" lon="11.0687981"><ele>255.0</ele><time>2026-04-25T16:21:03.081Z</time></trkpt><trkpt lat="44.2325693" lon="11.068747"><ele>255.0</ele><time>2026-04-25T16:21:06.082Z</time></trkpt><trkpt lat="44.2324995" lon="11.0686667"><ele>255.0</ele><time>2026-04-25T16:21:09.079Z</time></trkpt><trkpt lat="44.2324614" lon="11.068588"><ele>255.0</ele><time>2026-04-25T16:21:11.081Z</time></trkpt><trkpt lat="44.2323866" lon="11.0684645"><ele>255.0</ele><time>2026-04-25T16:21:13.083Z</time></trkpt><trkpt lat="44.2323433" lon="11.0683948"><ele>255.0</ele><time>2026-04-25T16:21:14.088Z</time></trkpt><trkpt lat="44.2322984" lon="11.0683227"><ele>255.0</ele><time>2026-04-25T16:21:15.08Z</time></trkpt><trkpt lat="44.2322494" lon="11.068249"><ele>255.0</ele><time>2026-04-25T16:21:16.082Z</time></trkpt><trkpt lat="44.2321958" lon="11.0681698"><ele>255.0</ele><time>2026-04-25T16:21:17.085Z</time></trkpt><trkpt lat="44.2321297" lon="11.0680832"><ele>255.0</ele><time>2026-04-25T16:21:18.082Z</time></trkpt><trkpt lat="44.2320765" lon="11.068003"><ele>254.71428571428572</ele><time>2026-04-25T16:21:19.079Z</time></trkpt><trkpt lat="44.2320182" lon="11.0679271"><ele>254.42857142857144</ele><time>2026-04-25T16:21:20.082Z</time></trkpt><trkpt lat="44.2319591" lon="11.067857"><ele>254.14285714285717</ele><time>2026-04-25T16:21:21.08Z</time></trkpt><trkpt lat="44.2318994" lon="11.0677872"><ele>253.8571428571429</ele><time>2026-04-25T16:21:22.077Z</time></trkpt><trkpt lat="44.231832" lon="11.0677389"><ele>253.57142857142858</ele><time>2026-04-25T16:21:23.081Z</time></trkpt><trkpt lat="44.2317755" lon="11.0676879"><ele>253.28571428571433</ele><time>2026-04-25T16:21:24.08Z</time></trkpt><trkpt lat="44.2317063" lon="11.0676687"><ele>253.00000000000003</ele><time>2026-04-25T16:21:25.088Z</time></trkpt><trkpt lat="44.2316421" lon="11.067664"><ele>252.99999999999997</ele><time>2026-04-25T16:21:26.082Z</time></trkpt><trkpt lat="44.2315328" lon="11.0676863"><ele>253.0</ele><time>2026-04-25T16:21:28.081Z</time></trkpt><trkpt lat="44.2314521" lon="11.0677107"><ele>253.0</ele><time>2026-04-25T16:21:30.082Z</time></trkpt><trkpt lat="44.2313789" lon="11.0677003"><ele>253.0</ele><time>2026-04-25T16:21:32.078Z</time></trkpt><trkpt lat="44.2313012" lon="11.067646"><ele>252.99999999999997</ele><time>2026-04-25T16:21:34.082Z</time></trkpt><trkpt lat="44.2312194" lon="11.0675877"><ele>253.0</ele><time>2026-04-25T16:21:36.08Z</time></trkpt><trkpt lat="44.2311096" lon="11.067535"><ele>252.49999999999997</ele><time>2026-04-25T16:21:38.086Z</time></trkpt><trkpt lat="44.2309948" lon="11.067489"><ele>252.0</ele><time>2026-04-25T16:21:40.08Z</time></trkpt><trkpt lat="44.230924" lon="11.0674556"><ele>251.5</ele><time>2026-04-25T16:21:41.084Z</time></trkpt><trkpt lat="44.2308711" lon="11.0673854"><ele>251.0</ele><time>2026-04-25T16:21:42.084Z</time></trkpt><trkpt lat="44.2308177" lon="11.0673196"><ele>250.49999999999997</ele><time>2026-04-25T16:21:43.084Z</time></trkpt><trkpt lat="44.2307626" lon="11.0672494"><ele>250.0</ele><time>2026-04-25T16:21:44.069Z</time></trkpt><trkpt lat="44.2307122" lon="11.0671596"><ele>250.0</ele><time>2026-04-25T16:21:45.079Z</time></trkpt><trkpt lat="44.2306865" lon="11.0670694"><ele>250.0</ele><time>2026-04-25T16:21:46.079Z</time></trkpt><trkpt lat="44.2306167" lon="11.0669147"><ele>250.0</ele><time>2026-04-25T16:21:48.078Z</time></trkpt><trkpt lat="44.2305702" lon="11.0667942"><ele>250.0</ele><time>2026-04-25T16:21:50.082Z</time></trkpt><trkpt lat="44.2305331" lon="11.0666831"><ele>250.0</ele><time>2026-04-25T16:21:52.087Z</time></trkpt><trkpt lat="44.2304973" lon="11.0665803"><ele>248.33333333333331</ele><time>2026-04-25T16:21:54.085Z</time></trkpt><trkpt lat="44.2304657" lon="11.0664667"><ele>246.66666666666666</ele><time>2026-04-25T16:21:56.076Z</time></trkpt><trkpt lat="44.2304532" lon="11.06634"><ele>245.0</ele><time>2026-04-25T16:21:59.083Z</time></trkpt><trkpt lat="44.2304183" lon="11.0662351"><ele>243.33333333333331</ele><time>2026-04-25T16:22:01.074Z</time></trkpt><trkpt lat="44.2303712" lon="11.0661571"><ele>241.66666666666666</ele><time>2026-04-25T16:22:03.084Z</time></trkpt><trkpt lat="44.2303404" lon="11.0660705"><ele>240.0</ele><time>2026-04-25T16:22:05.079Z</time></trkpt><trkpt lat="44.2302829" lon="11.0659544"><ele>240.0</ele><time>2026-04-25T16:22:07.077Z</time></trkpt><trkpt lat="44.230239" lon="11.0657978"><ele>240.0</ele><time>2026-04-25T16:22:09.077Z</time></trkpt><trkpt lat="44.2301984" lon="11.0656398"><ele>240.0</ele><time>2026-04-25T16:22:11.082Z</time></trkpt><trkpt lat="44.2301934" lon="11.0655246"><ele>240.0</ele><time>2026-04-25T16:22:12.082Z</time></trkpt><trkpt lat="44.2301847" lon="11.0654194"><ele>240.0</ele><time>2026-04-25T16:22:13.088Z</time></trkpt><trkpt lat="44.2301646" lon="11.0653073"><ele>240.6</ele><time>2026-04-25T16:22:14.092Z</time></trkpt><trkpt lat="44.2301735" lon="11.0651982"><ele>241.2</ele><time>2026-04-25T16:22:15.09Z</time></trkpt><trkpt lat="44.2301697" lon="11.0650981"><ele>241.8</ele><time>2026-04-25T16:22:16.08Z</time></trkpt><trkpt lat="44.2301598" lon="11.0649304"><ele>242.4</ele><time>2026-04-25T16:22:18.082Z</time></trkpt><trkpt lat="44.2301059" lon="11.0647619"><ele>243.0</ele><time>2026-04-25T16:22:20.08Z</time></trkpt><trkpt lat="44.2300559" lon="11.0646739"><ele>242.16666666666666</ele><time>2026-04-25T16:22:21.081Z</time></trkpt><trkpt lat="44.2300059" lon="11.0646048"><ele>241.33333333333331</ele><time>2026-04-25T16:22:22.084Z</time></trkpt><trkpt lat="44.2299573" lon="11.0645411"><ele>240.5</ele><time>2026-04-25T16:22:23.082Z</time></trkpt><trkpt lat="44.2298601" lon="11.0645029"><ele>239.66666666666666</ele><time>2026-04-25T16:22:25.092Z</time></trkpt><trkpt lat="44.2297635" lon="11.0644726"><ele>238.83333333333331</ele><time>2026-04-25T16:22:27.082Z</time></trkpt><trkpt lat="44.2296625" lon="11.0644701"><ele>238.0</ele><time>2026-04-25T16:22:29.081Z</time></trkpt><trkpt lat="44.2295848" lon="11.0644921"><ele>238.0</ele><time>2026-04-25T16:22:31.08Z</time></trkpt><trkpt lat="44.2294956" lon="11.0644937"><ele>238.0</ele><time>2026-04-25T16:22:33.075Z</time></trkpt><trkpt lat="44.229407" lon="11.0645038"><ele>238.0</ele><time>2026-04-25T16:22:35.096Z</time></trkpt><trkpt lat="44.2293238" lon="11.0644637"><ele>238.0</ele><time>2026-04-25T16:22:37.084Z</time></trkpt><trkpt lat="44.2292645" lon="11.0643648"><ele>238.0</ele><time>2026-04-25T16:22:39.082Z</time></trkpt><trkpt lat="44.2292" lon="11.0642738"><ele>238.0</ele><time>2026-04-25T16:22:41.086Z</time></trkpt><trkpt lat="44.2291342" lon="11.064182"><ele>238.0</ele><time>2026-04-25T16:22:43.086Z</time></trkpt><trkpt lat="44.2290705" lon="11.06409"><ele>238.0</ele><time>2026-04-25T16:22:45.087Z</time></trkpt><trkpt lat="44.2290143" lon="11.0639838"><ele>238.0</ele><time>2026-04-25T16:22:47.085Z</time></trkpt><trkpt lat="44.2289477" lon="11.063885"><ele>238.0</ele><time>2026-04-25T16:22:49.089Z</time></trkpt><trkpt lat="44.2288815" lon="11.0638059"><ele>238.60000000000002</ele><time>2026-04-25T16:22:51.079Z</time></trkpt><trkpt lat="44.2288078" lon="11.0637392"><ele>239.20000000000002</ele><time>2026-04-25T16:22:53.084Z</time></trkpt><trkpt lat="44.2287321" lon="11.0636543"><ele>239.8</ele><time>2026-04-25T16:22:55.081Z</time></trkpt><trkpt lat="44.2286644" lon="11.0635664"><ele>240.4</ele><time>2026-04-25T16:22:57.081Z</time></trkpt><trkpt lat="44.2285983" lon="11.0634722"><ele>241.0</ele><time>2026-04-25T16:22:59.084Z</time></trkpt><trkpt lat="44.2285332" lon="11.0633783"><ele>241.0</ele><time>2026-04-25T16:23:01.077Z</time></trkpt><trkpt lat="44.2284669" lon="11.0632749"><ele>241.00000000000003</ele><time>2026-04-25T16:23:03.079Z</time></trkpt><trkpt lat="44.2284026" lon="11.063173"><ele>241.00000000000003</ele><time>2026-04-25T16:23:05.081Z</time></trkpt><trkpt lat="44.2283449" lon="11.0630804"><ele>241.0</ele><time>2026-04-25T16:23:07.082Z</time></trkpt><trkpt lat="44.2282802" lon="11.062969"><ele>241.0</ele><time>2026-04-25T16:23:09.081Z</time></trkpt><trkpt lat="44.2282213" lon="11.0628772"><ele>241.0</ele><time>2026-04-25T16:23:11.091Z</time></trkpt><trkpt lat="44.2281587" lon="11.0627748"><ele>241.00000000000003</ele><time>2026-04-25T16:23:13.082Z</time></trkpt><trkpt lat="44.2280905" lon="11.0626857"><ele>241.00000000000003</ele><time>2026-04-25T16:23:15.087Z</time></trkpt><trkpt lat="44.2280566" lon="11.0625678"><ele>241.0</ele><time>2026-04-25T16:23:17.079Z</time></trkpt><trkpt lat="44.2280117" lon="11.0624463"><ele>241.0</ele><time>2026-04-25T16:23:19.078Z</time></trkpt><trkpt lat="44.2279985" lon="11.0623309"><ele>240.4</ele><time>2026-04-25T16:23:21.084Z</time></trkpt><trkpt lat="44.227981" lon="11.0621971"><ele>239.8</ele><time>2026-04-25T16:23:23.089Z</time></trkpt><trkpt lat="44.2279732" lon="11.0620644"><ele>239.20000000000002</ele><time>2026-04-25T16:23:25.087Z</time></trkpt><trkpt lat="44.2280017" lon="11.0619221"><ele>238.60000000000002</ele><time>2026-04-25T16:23:27.084Z</time></trkpt><trkpt lat="44.2280186" lon="11.0618203"><ele>238.0</ele><time>2026-04-25T16:23:29.088Z</time></trkpt><trkpt lat="44.228049" lon="11.0617113"><ele>238.33333333333331</ele><time>2026-04-25T16:23:31.08Z</time></trkpt><trkpt lat="44.2280748" lon="11.0616007"><ele>238.66666666666666</ele><time>2026-04-25T16:23:33.081Z</time></trkpt><trkpt lat="44.2281335" lon="11.0614958"><ele>239.0</ele><time>2026-04-25T16:23:35.083Z</time></trkpt><trkpt lat="44.2281695" lon="11.0613871"><ele>239.33333333333331</ele><time>2026-04-25T16:23:37.076Z</time></trkpt><trkpt lat="44.2282086" lon="11.0612721"><ele>239.66666666666666</ele><time>2026-04-25T16:23:39.085Z</time></trkpt><trkpt lat="44.2282411" lon="11.061153"><ele>240.0</ele><time>2026-04-25T16:23:41.08Z</time></trkpt><trkpt lat="44.2282756" lon="11.0610099"><ele>240.0</ele><time>2026-04-25T16:23:43.084Z</time></trkpt><trkpt lat="44.2283172" lon="11.060901"><ele>240.0</ele><time>2026-04-25T16:23:45.079Z</time></trkpt><trkpt lat="44.2283629" lon="11.0607872"><ele>240.0</ele><time>2026-04-25T16:23:47.082Z</time></trkpt><trkpt lat="44.228411" lon="11.0606917"><ele>240.0</ele><time>2026-04-25T16:23:49.081Z</time></trkpt><trkpt lat="44.2284495" lon="11.0605821"><ele>240.0</ele><time>2026-04-25T16:23:51.078Z</time></trkpt><trkpt lat="44.2285001" lon="11.060523"><ele>240.0</ele><time>2026-04-25T16:23:53.069Z</time></trkpt><trkpt lat="44.2285444" lon="11.0603943"><ele>240.6</ele><time>2026-04-25T16:23:55.082Z</time></trkpt><trkpt lat="44.2285961" lon="11.0603102"><ele>241.2</ele><time>2026-04-25T16:23:57.076Z</time></trkpt><trkpt lat="44.2286446" lon="11.0601996"><ele>241.8</ele><time>2026-04-25T16:23:59.089Z</time></trkpt><trkpt lat="44.2286939" lon="11.0600686"><ele>242.4</ele><time>2026-04-25T16:24:01.092Z</time></trkpt><trkpt lat="44.2287421" lon="11.0599442"><ele>243.0</ele><time>2026-04-25T16:24:03.088Z</time></trkpt><trkpt lat="44.228797" lon="11.0598184"><ele>243.4</ele><time>2026-04-25T16:24:05.08Z</time></trkpt><trkpt lat="44.2288471" lon="11.0596975"><ele>243.8</ele><time>2026-04-25T16:24:07.08Z</time></trkpt><trkpt lat="44.2288928" lon="11.0595878"><ele>244.2</ele><time>2026-04-25T16:24:09.075Z</time></trkpt><trkpt lat="44.2289522" lon="11.0594866"><ele>244.6</ele><time>2026-04-25T16:24:11.082Z</time></trkpt><trkpt lat="44.2290103" lon="11.0593774"><ele>245.0</ele><time>2026-04-25T16:24:13.076Z</time></trkpt><trkpt lat="44.2290605" lon="11.0592806"><ele>244.4</ele><time>2026-04-25T16:24:15.09Z</time></trkpt><trkpt lat="44.2291115" lon="11.0591665"><ele>243.8</ele><time>2026-04-25T16:24:17.083Z</time></trkpt><trkpt lat="44.2291694" lon="11.0590684"><ele>243.2</ele><time>2026-04-25T16:24:19.084Z</time></trkpt><trkpt lat="44.2292216" lon="11.0589636"><ele>242.6</ele><time>2026-04-25T16:24:21.081Z</time></trkpt><trkpt lat="44.2292764" lon="11.0588517"><ele>242.0</ele><time>2026-04-25T16:24:23.084Z</time></trkpt><trkpt lat="44.2293217" lon="11.0587659"><ele>242.0</ele><time>2026-04-25T16:24:25.084Z</time></trkpt><trkpt lat="44.2293542" lon="11.0586902"><ele>241.99999999999997</ele><time>2026-04-25T16:24:27.074Z</time></trkpt><trkpt lat="44.2294033" lon="11.0585909"><ele>242.0</ele><time>2026-04-25T16:24:30.086Z</time></trkpt><trkpt lat="44.2294629" lon="11.0585111"><ele>242.0</ele><time>2026-04-25T16:24:33.081Z</time></trkpt><trkpt lat="44.229512" lon="11.0584363"><ele>241.99999999999997</ele><time>2026-04-25T16:24:37.079Z</time></trkpt><trkpt lat="44.2295604" lon="11.0583709"><ele>242.0</ele><time>2026-04-25T16:24:41.083Z</time></trkpt><trkpt lat="44.2296261" lon="11.0583184"><ele>242.0</ele><time>2026-04-25T16:24:45.081Z</time></trkpt><trkpt lat="44.2296977" lon="11.0582746"><ele>242.00000000000003</ele><time>2026-04-25T16:24:49.08Z</time></trkpt><trkpt lat="44.229765" lon="11.0582356"><ele>242.0</ele><time>2026-04-25T16:24:53.081Z</time></trkpt><trkpt lat="44.2298406" lon="11.0582089"><ele>242.0</ele><time>2026-04-25T16:24:58.078Z</time></trkpt><trkpt lat="44.2299105" lon="11.0582137"><ele>242.0</ele><time>2026-04-25T16:25:02.08Z</time></trkpt><trkpt lat="44.2299701" lon="11.0582846"><ele>242.00000000000003</ele><time>2026-04-25T16:25:06.083Z</time></trkpt><trkpt lat="44.2300405" lon="11.0582497"><ele>242.0</ele><time>2026-04-25T16:25:10.074Z</time></trkpt><trkpt lat="44.230063" lon="11.0581147"><ele>243.0</ele><time>2026-04-25T16:25:13.07Z</time></trkpt><trkpt lat="44.2300807" lon="11.0579761"><ele>244.0</ele><time>2026-04-25T16:25:16.081Z</time></trkpt><trkpt lat="44.2300801" lon="11.0578597"><ele>245.0</ele><time>2026-04-25T16:25:18.084Z</time></trkpt><trkpt lat="44.230081" lon="11.0577214"><ele>246.0</ele><time>2026-04-25T16:25:20.082Z</time></trkpt><trkpt lat="44.2301044" lon="11.0575791"><ele>247.0</ele><time>2026-04-25T16:25:22.088Z</time></trkpt><trkpt lat="44.2301282" lon="11.0574407"><ele>247.0</ele><time>2026-04-25T16:25:24.083Z</time></trkpt><trkpt lat="44.2301555" lon="11.0572983"><ele>247.0</ele><time>2026-04-25T16:25:26.087Z</time></trkpt><trkpt lat="44.2301824" lon="11.0571536"><ele>247.0</ele><time>2026-04-25T16:25:28.081Z</time></trkpt><trkpt lat="44.2302181" lon="11.0569992"><ele>247.0</ele><time>2026-04-25T16:25:30.085Z</time></trkpt><trkpt lat="44.2302514" lon="11.0568348"><ele>247.0</ele><time>2026-04-25T16:25:32.082Z</time></trkpt><trkpt lat="44.2302808" lon="11.056754"><ele>247.0</ele><time>2026-04-25T16:25:33.078Z</time></trkpt><trkpt lat="44.2303271" lon="11.0566779"><ele>247.0</ele><time>2026-04-25T16:25:34.079Z</time></trkpt><trkpt lat="44.2303929" lon="11.0565447"><ele>247.0</ele><time>2026-04-25T16:25:36.079Z</time></trkpt><trkpt lat="44.2304626" lon="11.0564207"><ele>247.0</ele><time>2026-04-25T16:25:38.077Z</time></trkpt><trkpt lat="44.2305354" lon="11.0563154"><ele>246.49999999999997</ele><time>2026-04-25T16:25:40.095Z</time></trkpt><trkpt lat="44.2305936" lon="11.0562373"><ele>246.0</ele><time>2026-04-25T16:25:42.087Z</time></trkpt><trkpt lat="44.2306399" lon="11.0561432"><ele>245.5</ele><time>2026-04-25T16:25:44.081Z</time></trkpt><trkpt lat="44.2306659" lon="11.056025"><ele>245.0</ele><time>2026-04-25T16:25:46.081Z</time></trkpt><trkpt lat="44.2306214" lon="11.055919"><ele>244.49999999999997</ele><time>2026-04-25T16:25:48.079Z</time></trkpt><trkpt lat="44.2305324" lon="11.0558708"><ele>244.0</ele><time>2026-04-25T16:25:50.081Z</time></trkpt><trkpt lat="44.2304231" lon="11.0558327"><ele>244.0</ele><time>2026-04-25T16:25:52.085Z</time></trkpt><trkpt lat="44.2303166" lon="11.0558154"><ele>243.99999999999997</ele><time>2026-04-25T16:25:54.084Z</time></trkpt><trkpt lat="44.2302012" lon="11.0557906"><ele>243.99999999999997</ele><time>2026-04-25T16:25:56.079Z</time></trkpt><trkpt lat="44.230094" lon="11.0557686"><ele>244.0</ele><time>2026-04-25T16:25:58.084Z</time></trkpt><trkpt lat="44.2299877" lon="11.0557489"><ele>244.0</ele><time>2026-04-25T16:26:00.081Z</time></trkpt><trkpt lat="44.2298795" lon="11.0557279"><ele>246.2</ele><time>2026-04-25T16:26:02.08Z</time></trkpt><trkpt lat="44.2297714" lon="11.0557079"><ele>248.39999999999998</ele><time>2026-04-25T16:26:04.089Z</time></trkpt><trkpt lat="44.2296596" lon="11.0556734"><ele>250.6</ele><time>2026-04-25T16:26:06.085Z</time></trkpt><trkpt lat="44.2295463" lon="11.0556327"><ele>252.8</ele><time>2026-04-25T16:26:08.085Z</time></trkpt><trkpt lat="44.2294462" lon="11.0556057"><ele>255.0</ele><time>2026-04-25T16:26:10.084Z</time></trkpt><trkpt lat="44.2293391" lon="11.0555674"><ele>255.0</ele><time>2026-04-25T16:26:12.079Z</time></trkpt><trkpt lat="44.2292413" lon="11.0556082"><ele>255.0</ele><time>2026-04-25T16:26:14.081Z</time></trkpt><trkpt lat="44.2291445" lon="11.055624"><ele>255.0</ele><time>2026-04-25T16:26:16.078Z</time></trkpt><trkpt lat="44.2290838" lon="11.0555958"><ele>255.0</ele><time>2026-04-25T16:26:18.074Z</time></trkpt><trkpt lat="44.2290383" lon="11.0555113"><ele>255.0</ele><time>2026-04-25T16:26:21.08Z</time></trkpt><trkpt lat="44.2290019" lon="11.0553977"><ele>255.0</ele><time>2026-04-25T16:26:24.075Z</time></trkpt><trkpt lat="44.2289874" lon="11.0552964"><ele>256.3333333333333</ele><time>2026-04-25T16:26:27.077Z</time></trkpt><trkpt lat="44.2289748" lon="11.0551995"><ele>257.6666666666667</ele><time>2026-04-25T16:26:30.08Z</time></trkpt><trkpt lat="44.2289512" lon="11.0550868"><ele>259.0</ele><time>2026-04-25T16:26:33.082Z</time></trkpt><trkpt lat="44.2289147" lon="11.0549627"><ele>260.33333333333337</ele><time>2026-04-25T16:26:36.091Z</time></trkpt><trkpt lat="44.2288928" lon="11.0548793"><ele>261.6666666666667</ele><time>2026-04-25T16:26:38.076Z</time></trkpt><trkpt lat="44.2288668" lon="11.054752"><ele>263.0</ele><time>2026-04-25T16:26:41.075Z</time></trkpt><trkpt lat="44.2288456" lon="11.054662"><ele>263.0</ele><time>2026-04-25T16:26:43.081Z</time></trkpt><trkpt lat="44.2288222" lon="11.054575"><ele>263.0</ele><time>2026-04-25T16:26:45.081Z</time></trkpt><trkpt lat="44.2288066" lon="11.0544854"><ele>263.0</ele><time>2026-04-25T16:26:47.091Z</time></trkpt><trkpt lat="44.2287787" lon="11.0544057"><ele>263.0</ele><time>2026-04-25T16:26:49.082Z</time></trkpt><trkpt lat="44.2287536" lon="11.0543059"><ele>263.0</ele><time>2026-04-25T16:26:51.083Z</time></trkpt><trkpt lat="44.2287388" lon="11.0541849"><ele>263.0</ele><time>2026-04-25T16:26:53.083Z</time></trkpt><trkpt lat="44.2287226" lon="11.0540464"><ele>262.6</ele><time>2026-04-25T16:26:55.079Z</time></trkpt><trkpt lat="44.2287017" lon="11.0539268"><ele>262.20000000000005</ele><time>2026-04-25T16:26:57.078Z</time></trkpt><trkpt lat="44.2286733" lon="11.0538022"><ele>261.8</ele><time>2026-04-25T16:26:59.077Z</time></trkpt><trkpt lat="44.2286479" lon="11.0536837"><ele>261.40000000000003</ele><time>2026-04-25T16:27:01.08Z</time></trkpt><trkpt lat="44.2286272" lon="11.0535579"><ele>261.0</ele><time>2026-04-25T16:27:03.079Z</time></trkpt><trkpt lat="44.2286407" lon="11.0534317"><ele>261.0</ele><time>2026-04-25T16:27:05.077Z</time></trkpt><trkpt lat="44.2286274" lon="11.0533282"><ele>261.0</ele><time>2026-04-25T16:27:07.076Z</time></trkpt><trkpt lat="44.2286114" lon="11.0532239"><ele>261.0</ele><time>2026-04-25T16:27:09.08Z</time></trkpt><trkpt lat="44.2285914" lon="11.0531298"><ele>261.0</ele><time>2026-04-25T16:27:11.073Z</time></trkpt><trkpt lat="44.2285565" lon="11.053027"><ele>261.0</ele><time>2026-04-25T16:27:13.077Z</time></trkpt><trkpt lat="44.2284997" lon="11.0529338"><ele>261.0</ele><time>2026-04-25T16:27:15.08Z</time></trkpt><trkpt lat="44.2284301" lon="11.0528632"><ele>261.8333333333333</ele><time>2026-04-25T16:27:17.078Z</time></trkpt><trkpt lat="44.2283606" lon="11.0528139"><ele>262.6666666666667</ele><time>2026-04-25T16:27:19.08Z</time></trkpt><trkpt lat="44.2282749" lon="11.0527876"><ele>263.5</ele><time>2026-04-25T16:27:21.079Z</time></trkpt><trkpt lat="44.2281872" lon="11.0527902"><ele>264.33333333333337</ele><time>2026-04-25T16:27:23.078Z</time></trkpt><trkpt lat="44.2281137" lon="11.052794"><ele>265.1666666666667</ele><time>2026-04-25T16:27:25.079Z</time></trkpt><trkpt lat="44.2280333" lon="11.0527921"><ele>266.0</ele><time>2026-04-25T16:27:27.077Z</time></trkpt><trkpt lat="44.2279507" lon="11.0527827"><ele>266.0</ele><time>2026-04-25T16:27:29.074Z</time></trkpt><trkpt lat="44.2278694" lon="11.0527715"><ele>266.0</ele><time>2026-04-25T16:27:31.079Z</time></trkpt><trkpt lat="44.2277912" lon="11.0527439"><ele>266.0</ele><time>2026-04-25T16:27:33.077Z</time></trkpt><trkpt lat="44.2277197" lon="11.0526953"><ele>266.0</ele><time>2026-04-25T16:27:35.079Z</time></trkpt><trkpt lat="44.2276565" lon="11.0526193"><ele>266.0</ele><time>2026-04-25T16:27:37.078Z</time></trkpt><trkpt lat="44.2276173" lon="11.0525142"><ele>266.0</ele><time>2026-04-25T16:27:39.079Z</time></trkpt><trkpt lat="44.2276024" lon="11.0523964"><ele>264.7142857142857</ele><time>2026-04-25T16:27:41.083Z</time></trkpt><trkpt lat="44.227593" lon="11.052291"><ele>263.42857142857144</ele><time>2026-04-25T16:27:43.085Z</time></trkpt><trkpt lat="44.2275696" lon="11.0521609"><ele>262.1428571428571</ele><time>2026-04-25T16:27:46.089Z</time></trkpt><trkpt lat="44.2275301" lon="11.052085"><ele>260.8571428571429</ele><time>2026-04-25T16:27:48.076Z</time></trkpt><trkpt lat="44.2274906" lon="11.0519991"><ele>259.57142857142856</ele><time>2026-04-25T16:27:50.08Z</time></trkpt><trkpt lat="44.2274445" lon="11.0519284"><ele>258.2857142857143</ele><time>2026-04-25T16:27:52.081Z</time></trkpt><trkpt lat="44.2273958" lon="11.0518643"><ele>257.0</ele><time>2026-04-25T16:27:54.081Z</time></trkpt><trkpt lat="44.2273383" lon="11.0518088"><ele>260.1428571428571</ele><time>2026-04-25T16:27:56.081Z</time></trkpt><trkpt lat="44.2272805" lon="11.0517518"><ele>263.2857142857143</ele><time>2026-04-25T16:27:58.078Z</time></trkpt><trkpt lat="44.2272198" lon="11.051696"><ele>266.42857142857144</ele><time>2026-04-25T16:28:00.08Z</time></trkpt><trkpt lat="44.2271606" lon="11.0516552"><ele>269.57142857142856</ele><time>2026-04-25T16:28:02.077Z</time></trkpt><trkpt lat="44.227099" lon="11.0516148"><ele>272.7142857142857</ele><time>2026-04-25T16:28:04.076Z</time></trkpt><trkpt lat="44.2270407" lon="11.0515605"><ele>275.85714285714283</ele><time>2026-04-25T16:28:06.081Z</time></trkpt><trkpt lat="44.2269747" lon="11.0514706"><ele>279.0</ele><time>2026-04-25T16:28:09.077Z</time></trkpt><trkpt lat="44.226941" lon="11.051395"><ele>279.0</ele><time>2026-04-25T16:28:11.076Z</time></trkpt><trkpt lat="44.2269079" lon="11.0512759"><ele>279.0</ele><time>2026-04-25T16:28:14.082Z</time></trkpt><trkpt lat="44.2268927" lon="11.0511838"><ele>279.0</ele><time>2026-04-25T16:28:17.081Z</time></trkpt><trkpt lat="44.2268687" lon="11.0510721"><ele>279.0</ele><time>2026-04-25T16:28:21.09Z</time></trkpt><trkpt lat="44.2268548" lon="11.050971"><ele>279.0</ele><time>2026-04-25T16:28:24.069Z</time></trkpt><trkpt lat="44.2268399" lon="11.0508455"><ele>279.0</ele><time>2026-04-25T16:28:27.085Z</time></trkpt><trkpt lat="44.2268378" lon="11.0507238"><ele>278.0</ele><time>2026-04-25T16:28:30.077Z</time></trkpt><trkpt lat="44.2268273" lon="11.050624"><ele>277.0</ele><time>2026-04-25T16:28:33.089Z</time></trkpt><trkpt lat="44.2267951" lon="11.0505042"><ele>276.0</ele><time>2026-04-25T16:28:36.083Z</time></trkpt><trkpt lat="44.2267646" lon="11.0503861"><ele>275.0</ele><time>2026-04-25T16:28:39.08Z</time></trkpt><trkpt lat="44.2267423" lon="11.0502849"><ele>274.0</ele><time>2026-04-25T16:28:42.079Z</time></trkpt><trkpt lat="44.2267282" lon="11.0501947"><ele>273.0</ele><time>2026-04-25T16:28:45.08Z</time></trkpt><trkpt lat="44.2267044" lon="11.0501071"><ele>273.0</ele><time>2026-04-25T16:28:48.081Z</time></trkpt><trkpt lat="44.2266819" lon="11.0500231"><ele>273.0</ele><time>2026-04-25T16:28:51.078Z</time></trkpt><trkpt lat="44.2266584" lon="11.0499415"><ele>273.0</ele><time>2026-04-25T16:28:54.082Z</time></trkpt><trkpt lat="44.2266106" lon="11.0498727"><ele>273.0</ele><time>2026-04-25T16:28:57.082Z</time></trkpt><trkpt lat="44.2265536" lon="11.0498213"><ele>273.0</ele><time>2026-04-25T16:29:00.075Z</time></trkpt><trkpt lat="44.2264812" lon="11.0497615"><ele>273.0</ele><time>2026-04-25T16:29:04.078Z</time></trkpt><trkpt lat="44.2264253" lon="11.0497161"><ele>273.0</ele><time>2026-04-25T16:29:07.087Z</time></trkpt><trkpt lat="44.226357" lon="11.0496768"><ele>277.14285714285717</ele><time>2026-04-25T16:29:11.082Z</time></trkpt><trkpt lat="44.2262951" lon="11.0496292"><ele>281.2857142857143</ele><time>2026-04-25T16:29:15.081Z</time></trkpt><trkpt lat="44.2262387" lon="11.0495545"><ele>285.42857142857144</ele><time>2026-04-25T16:29:21.081Z</time></trkpt><trkpt lat="44.2261951" lon="11.0494816"><ele>289.57142857142856</ele><time>2026-04-25T16:29:25.083Z</time></trkpt><trkpt lat="44.2261559" lon="11.0493998"><ele>293.7142857142857</ele><time>2026-04-25T16:29:29.095Z</time></trkpt><trkpt lat="44.2261363" lon="11.0493086"><ele>297.8571428571429</ele><time>2026-04-25T16:29:33.096Z</time></trkpt><trkpt lat="44.2261449" lon="11.0492206"><ele>302.0</ele><time>2026-04-25T16:29:37.08Z</time></trkpt><trkpt lat="44.2261289" lon="11.0491179"><ele>303.28571428571433</ele><time>2026-04-25T16:29:42.081Z</time></trkpt><trkpt lat="44.2261305" lon="11.0490191"><ele>304.57142857142856</ele><time>2026-04-25T16:29:47.081Z</time></trkpt><trkpt lat="44.2261804" lon="11.0489626"><ele>305.8571428571429</ele><time>2026-04-25T16:29:52.079Z</time></trkpt><trkpt lat="44.2262002" lon="11.0488683"><ele>307.14285714285717</ele><time>2026-04-25T16:29:57.082Z</time></trkpt><trkpt lat="44.2261837" lon="11.0487677"><ele>308.42857142857144</ele><time>2026-04-25T16:30:01.08Z</time></trkpt><trkpt lat="44.2261634" lon="11.0486704"><ele>309.7142857142857</ele><time>2026-04-25T16:30:05.082Z</time></trkpt><trkpt lat="44.2261424" lon="11.048585"><ele>311.0</ele><time>2026-04-25T16:30:09.085Z</time></trkpt><trkpt lat="44.226126" lon="11.0484804"><ele>311.0</ele><time>2026-04-25T16:30:14.084Z</time></trkpt><trkpt lat="44.2261196" lon="11.0483886"><ele>311.0</ele><time>2026-04-25T16:30:18.083Z</time></trkpt><trkpt lat="44.226119" lon="11.0482782"><ele>311.0</ele><time>2026-04-25T16:30:22.077Z</time></trkpt><trkpt lat="44.226119" lon="11.0481816"><ele>311.0</ele><time>2026-04-25T16:30:25.083Z</time></trkpt><trkpt lat="44.2261242" lon="11.0480925"><ele>311.0</ele><time>2026-04-25T16:30:28.086Z</time></trkpt><trkpt lat="44.2261266" lon="11.0479883"><ele>311.0</ele><time>2026-04-25T16:30:32.088Z</time></trkpt><trkpt lat="44.226143" lon="11.0478959"><ele>311.0</ele><time>2026-04-25T16:30:36.041Z</time></trkpt><trkpt lat="44.2261673" lon="11.0477865"><ele>311.7142857142857</ele><time>2026-04-25T16:30:40.082Z</time></trkpt><trkpt lat="44.2261833" lon="11.0476777"><ele>312.42857142857144</ele><time>2026-04-25T16:30:44.076Z</time></trkpt><trkpt lat="44.2261931" lon="11.0475742"><ele>313.14285714285717</ele><time>2026-04-25T16:30:48.077Z</time></trkpt><trkpt lat="44.2262151" lon="11.0474839"><ele>313.8571428571429</ele><time>2026-04-25T16:30:53.083Z</time></trkpt><trkpt lat="44.226251" lon="11.0474082"><ele>314.57142857142856</ele><time>2026-04-25T16:30:57.091Z</time></trkpt><trkpt lat="44.2263099" lon="11.0473399"><ele>315.28571428571433</ele><time>2026-04-25T16:31:01.081Z</time></trkpt><trkpt lat="44.226364" lon="11.0472522"><ele>316.0</ele><time>2026-04-25T16:31:05.068Z</time></trkpt><trkpt lat="44.2263998" lon="11.0471757"><ele>317.0</ele><time>2026-04-25T16:31:08.081Z</time></trkpt><trkpt lat="44.2264352" lon="11.0470736"><ele>318.0</ele><time>2026-04-25T16:31:12.081Z</time></trkpt><trkpt lat="44.2264538" lon="11.0469873"><ele>319.0</ele><time>2026-04-25T16:31:15.08Z</time></trkpt><trkpt lat="44.2264608" lon="11.0468908"><ele>320.0</ele><time>2026-04-25T16:31:18.085Z</time></trkpt><trkpt lat="44.2264648" lon="11.0467797"><ele>321.0</ele><time>2026-04-25T16:31:21.085Z</time></trkpt><trkpt lat="44.226469" lon="11.0466765"><ele>322.0</ele><time>2026-04-25T16:31:23.082Z</time></trkpt><trkpt lat="44.2264663" lon="11.0465558"><ele>317.66666666666663</ele><time>2026-04-25T16:31:25.101Z</time></trkpt><trkpt lat="44.2264792" lon="11.0463986"><ele>313.3333333333333</ele><time>2026-04-25T16:31:27.081Z</time></trkpt><trkpt lat="44.226482" lon="11.0462974"><ele>309.0</ele><time>2026-04-25T16:31:28.087Z</time></trkpt><trkpt lat="44.2264812" lon="11.0461913"><ele>304.6666666666667</ele><time>2026-04-25T16:31:29.08Z</time></trkpt><trkpt lat="44.2264887" lon="11.046086"><ele>300.33333333333337</ele><time>2026-04-25T16:31:30.084Z</time></trkpt><trkpt lat="44.2264949" lon="11.045983"><ele>296.0</ele><time>2026-04-25T16:31:31.084Z</time></trkpt><trkpt lat="44.2264999" lon="11.0458765"><ele>296.6666666666667</ele><time>2026-04-25T16:31:32.08Z</time></trkpt><trkpt lat="44.2265139" lon="11.0457695"><ele>297.33333333333337</ele><time>2026-04-25T16:31:33.088Z</time></trkpt><trkpt lat="44.2265432" lon="11.0456533"><ele>298.0</ele><time>2026-04-25T16:31:34.082Z</time></trkpt><trkpt lat="44.2265641" lon="11.0455436"><ele>298.6666666666667</ele><time>2026-04-25T16:31:35.084Z</time></trkpt><trkpt lat="44.2265911" lon="11.0454336"><ele>299.3333333333333</ele><time>2026-04-25T16:31:36.087Z</time></trkpt><trkpt lat="44.2266195" lon="11.0453276"><ele>300.0</ele><time>2026-04-25T16:31:37.085Z</time></trkpt><trkpt lat="44.2266465" lon="11.0452033"><ele>300.0</ele><time>2026-04-25T16:31:38.078Z</time></trkpt><trkpt lat="44.2266814" lon="11.0450815"><ele>300.0</ele><time>2026-04-25T16:31:39.083Z</time></trkpt><trkpt lat="44.2267166" lon="11.0449594"><ele>300.0</ele><time>2026-04-25T16:31:40.084Z</time></trkpt><trkpt lat="44.2267573" lon="11.044825"><ele>300.0</ele><time>2026-04-25T16:31:41.08Z</time></trkpt><trkpt lat="44.2267963" lon="11.0446924"><ele>300.0</ele><time>2026-04-25T16:31:42.084Z</time></trkpt><trkpt lat="44.2268385" lon="11.0445594"><ele>300.0</ele><time>2026-04-25T16:31:43.081Z</time></trkpt><trkpt lat="44.22688" lon="11.0444207"><ele>300.0</ele><time>2026-04-25T16:31:44.079Z</time></trkpt><trkpt lat="44.226921" lon="11.0442824"><ele>300.0</ele><time>2026-04-25T16:31:45.084Z</time></trkpt><trkpt lat="44.2269554" lon="11.0441481"><ele>300.0</ele><time>2026-04-25T16:31:46.083Z</time></trkpt><trkpt lat="44.2269788" lon="11.0439906"><ele>300.0</ele><time>2026-04-25T16:31:47.082Z</time></trkpt><trkpt lat="44.2269705" lon="11.0438214"><ele>299.2</ele><time>2026-04-25T16:31:48.084Z</time></trkpt><trkpt lat="44.2269741" lon="11.0436664"><ele>298.4</ele><time>2026-04-25T16:31:49.088Z</time></trkpt><trkpt lat="44.2269197" lon="11.0435434"><ele>297.6</ele><time>2026-04-25T16:31:50.08Z</time></trkpt><trkpt lat="44.2269034" lon="11.0434108"><ele>296.8</ele><time>2026-04-25T16:31:51.081Z</time></trkpt><trkpt lat="44.2268764" lon="11.0432599"><ele>296.0</ele><time>2026-04-25T16:31:52.088Z</time></trkpt><trkpt lat="44.2268503" lon="11.0431191"><ele>293.40000000000003</ele><time>2026-04-25T16:31:53.079Z</time></trkpt><trkpt lat="44.2268252" lon="11.0429852"><ele>290.8</ele><time>2026-04-25T16:31:54.084Z</time></trkpt><trkpt lat="44.2268001" lon="11.0428227"><ele>288.20000000000005</ele><time>2026-04-25T16:31:55.079Z</time></trkpt><trkpt lat="44.2267678" lon="11.042675"><ele>285.6</ele><time>2026-04-25T16:31:56.083Z</time></trkpt><trkpt lat="44.2267518" lon="11.0425365"><ele>283.0</ele><time>2026-04-25T16:31:57.082Z</time></trkpt><trkpt lat="44.2267205" lon="11.0424095"><ele>281.3333333333333</ele><time>2026-04-25T16:31:58.08Z</time></trkpt><trkpt lat="44.226693" lon="11.0422854"><ele>279.66666666666663</ele><time>2026-04-25T16:31:59.075Z</time></trkpt><trkpt lat="44.2266539" lon="11.0421678"><ele>278.0</ele><time>2026-04-25T16:32:00.088Z</time></trkpt><trkpt lat="44.2266222" lon="11.0420668"><ele>276.3333333333333</ele><time>2026-04-25T16:32:01.079Z</time></trkpt><trkpt lat="44.2265922" lon="11.0419571"><ele>274.6666666666667</ele><time>2026-04-25T16:32:02.083Z</time></trkpt><trkpt lat="44.2265827" lon="11.041857"><ele>273.0</ele><time>2026-04-25T16:32:03.081Z</time></trkpt><trkpt lat="44.2265644" lon="11.0417524"><ele>273.0</ele><time>2026-04-25T16:32:04.081Z</time></trkpt><trkpt lat="44.2265467" lon="11.0416467"><ele>273.0</ele><time>2026-04-25T16:32:05.082Z</time></trkpt><trkpt lat="44.2265255" lon="11.041542"><ele>273.0</ele><time>2026-04-25T16:32:06.084Z</time></trkpt><trkpt lat="44.2264985" lon="11.0414379"><ele>273.0</ele><time>2026-04-25T16:32:07.081Z</time></trkpt><trkpt lat="44.2264886" lon="11.0413452"><ele>273.0</ele><time>2026-04-25T16:32:08.074Z</time></trkpt><trkpt lat="44.2264718" lon="11.0412567"><ele>273.0</ele><time>2026-04-25T16:32:09.085Z</time></trkpt><trkpt lat="44.2264503" lon="11.0411657"><ele>273.0</ele><time>2026-04-25T16:32:10.082Z</time></trkpt><trkpt lat="44.2264296" lon="11.041073"><ele>273.5</ele><time>2026-04-25T16:32:11.084Z</time></trkpt><trkpt lat="44.2264126" lon="11.0409736"><ele>274.0</ele><time>2026-04-25T16:32:12.082Z</time></trkpt><trkpt lat="44.226379" lon="11.0408718"><ele>274.5</ele><time>2026-04-25T16:32:13.083Z</time></trkpt><trkpt lat="44.2263183" lon="11.0407162"><ele>275.0</ele><time>2026-04-25T16:32:15.08Z</time></trkpt><trkpt lat="44.2262774" lon="11.0406413"><ele>275.5</ele><time>2026-04-25T16:32:16.084Z</time></trkpt><trkpt lat="44.2262297" lon="11.0405781"><ele>276.0</ele><time>2026-04-25T16:32:17.081Z</time></trkpt><trkpt lat="44.2261407" lon="11.0404816"><ele>276.0</ele><time>2026-04-25T16:32:19.083Z</time></trkpt><trkpt lat="44.2260962" lon="11.040373"><ele>276.0</ele><time>2026-04-25T16:32:21.082Z</time></trkpt><trkpt lat="44.2260497" lon="11.0402868"><ele>276.0</ele><time>2026-04-25T16:32:23.08Z</time></trkpt><trkpt lat="44.2260087" lon="11.0401855"><ele>276.0</ele><time>2026-04-25T16:32:25.077Z</time></trkpt><trkpt lat="44.2259682" lon="11.0400615"><ele>276.0</ele><time>2026-04-25T16:32:27.082Z</time></trkpt><trkpt lat="44.225965" lon="11.0399107"><ele>274.3333333333333</ele><time>2026-04-25T16:32:29.081Z</time></trkpt><trkpt lat="44.2259531" lon="11.0397944"><ele>272.6666666666667</ele><time>2026-04-25T16:32:31.08Z</time></trkpt><trkpt lat="44.2259477" lon="11.0397054"><ele>271.0</ele><time>2026-04-25T16:32:33.081Z</time></trkpt><trkpt lat="44.2259485" lon="11.0395902"><ele>269.33333333333337</ele><time>2026-04-25T16:32:36.084Z</time></trkpt><trkpt lat="44.2259112" lon="11.0394971"><ele>267.6666666666667</ele><time>2026-04-25T16:32:53.084Z</time></trkpt><trkpt lat="44.2258731" lon="11.0394179"><ele>266.0</ele><time>2026-04-25T16:32:55.078Z</time></trkpt><trkpt lat="44.2257941" lon="11.0393333"><ele>266.0</ele><time>2026-04-25T16:32:57.078Z</time></trkpt><trkpt lat="44.2257044" lon="11.0392758"><ele>266.0</ele><time>2026-04-25T16:32:59.079Z</time></trkpt><trkpt lat="44.225608" lon="11.0392004"><ele>266.0</ele><time>2026-04-25T16:33:01.078Z</time></trkpt><trkpt lat="44.2255102" lon="11.0391127"><ele>266.0</ele><time>2026-04-25T16:33:03.087Z</time></trkpt><trkpt lat="44.2254555" lon="11.0390623"><ele>266.0</ele><time>2026-04-25T16:33:04.091Z</time></trkpt><trkpt lat="44.2253956" lon="11.0390187"><ele>267.1666666666667</ele><time>2026-04-25T16:33:05.081Z</time></trkpt><trkpt lat="44.2253455" lon="11.0389636"><ele>268.33333333333337</ele><time>2026-04-25T16:33:06.082Z</time></trkpt><trkpt lat="44.2252637" lon="11.0388649"><ele>269.5</ele><time>2026-04-25T16:33:08.088Z</time></trkpt><trkpt lat="44.2251992" lon="11.0387823"><ele>270.6666666666667</ele><time>2026-04-25T16:33:10.079Z</time></trkpt><trkpt lat="44.2251464" lon="11.03873"><ele>271.8333333333333</ele><time>2026-04-25T16:33:12.077Z</time></trkpt><trkpt lat="44.2250874" lon="11.0386803"><ele>273.0</ele><time>2026-04-25T16:33:15.078Z</time></trkpt><trkpt lat="44.225021" lon="11.038614"><ele>273.0</ele><time>2026-04-25T16:33:18.075Z</time></trkpt><trkpt lat="44.2249616" lon="11.0385664"><ele>273.0</ele><time>2026-04-25T16:33:21.092Z</time></trkpt><trkpt lat="44.224903" lon="11.0385099"><ele>273.0</ele><time>2026-04-25T16:33:24.078Z</time></trkpt><trkpt lat="44.2248459" lon="11.0384419"><ele>273.0</ele><time>2026-04-25T16:33:27.078Z</time></trkpt><trkpt lat="44.2247832" lon="11.0383773"><ele>273.0</ele><time>2026-04-25T16:33:30.08Z</time></trkpt><trkpt lat="44.2247042" lon="11.0383131"><ele>273.0</ele><time>2026-04-25T16:33:33.075Z</time></trkpt><trkpt lat="44.2246486" lon="11.0382714"><ele>273.0</ele><time>2026-04-25T16:33:35.091Z</time></trkpt><trkpt lat="44.2245691" lon="11.038208"><ele>274.6666666666667</ele><time>2026-04-25T16:33:38.075Z</time></trkpt><trkpt lat="44.2245082" lon="11.0381282"><ele>276.3333333333333</ele><time>2026-04-25T16:33:41.077Z</time></trkpt><trkpt lat="44.2244408" lon="11.0380566"><ele>278.0</ele><time>2026-04-25T16:33:44.079Z</time></trkpt><trkpt lat="44.2243753" lon="11.0379816"><ele>279.66666666666663</ele><time>2026-04-25T16:33:47.073Z</time></trkpt><trkpt lat="44.224309" lon="11.0379073"><ele>281.3333333333333</ele><time>2026-04-25T16:33:50.081Z</time></trkpt><trkpt lat="44.2242486" lon="11.037829"><ele>283.0</ele><time>2026-04-25T16:33:53.084Z</time></trkpt><trkpt lat="44.2242141" lon="11.0377316"><ele>283.0</ele><time>2026-04-25T16:33:56.076Z</time></trkpt><trkpt lat="44.2241968" lon="11.0376193"><ele>283.0</ele><time>2026-04-25T16:33:59.075Z</time></trkpt><trkpt lat="44.2241756" lon="11.0375267"><ele>283.0</ele><time>2026-04-25T16:34:01.079Z</time></trkpt><trkpt lat="44.2241539" lon="11.0374194"><ele>283.0</ele><time>2026-04-25T16:34:03.075Z</time></trkpt><trkpt lat="44.2241309" lon="11.0373062"><ele>283.0</ele><time>2026-04-25T16:34:05.067Z</time></trkpt><trkpt lat="44.2241327" lon="11.0371826"><ele>283.0</ele><time>2026-04-25T16:34:07.079Z</time></trkpt><trkpt lat="44.2241421" lon="11.0370594"><ele>281.2</ele><time>2026-04-25T16:34:09.08Z</time></trkpt><trkpt lat="44.2241513" lon="11.0369301"><ele>279.4</ele><time>2026-04-25T16:34:11.081Z</time></trkpt><trkpt lat="44.2241297" lon="11.0367855"><ele>277.59999999999997</ele><time>2026-04-25T16:34:13.09Z</time></trkpt><trkpt lat="44.224075" lon="11.0366087"><ele>275.8</ele><time>2026-04-25T16:34:15.08Z</time></trkpt><trkpt lat="44.2240457" lon="11.0365121"><ele>274.0</ele><time>2026-04-25T16:34:16.082Z</time></trkpt><trkpt lat="44.2239859" lon="11.0363718"><ele>275.5</ele><time>2026-04-25T16:34:18.082Z</time></trkpt><trkpt lat="44.2239477" lon="11.0362953"><ele>277.0</ele><time>2026-04-25T16:34:19.078Z</time></trkpt><trkpt lat="44.223862" lon="11.0361653"><ele>278.5</ele><time>2026-04-25T16:34:21.089Z</time></trkpt><trkpt lat="44.2238251" lon="11.0360901"><ele>280.0</ele><time>2026-04-25T16:34:22.076Z</time></trkpt><trkpt lat="44.2237774" lon="11.0360317"><ele>281.5</ele><time>2026-04-25T16:34:23.081Z</time></trkpt><trkpt lat="44.2237339" lon="11.0359634"><ele>283.0</ele><time>2026-04-25T16:34:24.082Z</time></trkpt><trkpt lat="44.2236754" lon="11.0358629"><ele>282.0</ele><time>2026-04-25T16:34:26.082Z</time></trkpt><trkpt lat="44.2236277" lon="11.0357691"><ele>281.0</ele><time>2026-04-25T16:34:28.079Z</time></trkpt><trkpt lat="44.2235886" lon="11.035695"><ele>280.0</ele><time>2026-04-25T16:34:30.081Z</time></trkpt><trkpt lat="44.2235372" lon="11.0356069"><ele>279.0</ele><time>2026-04-25T16:34:32.081Z</time></trkpt><trkpt lat="44.2235045" lon="11.0355063"><ele>278.0</ele><time>2026-04-25T16:34:34.081Z</time></trkpt><trkpt lat="44.2234593" lon="11.035411"><ele>277.0</ele><time>2026-04-25T16:34:36.08Z</time></trkpt><trkpt lat="44.2234071" lon="11.0353108"><ele>277.0</ele><time>2026-04-25T16:34:38.082Z</time></trkpt><trkpt lat="44.2233654" lon="11.0352445"><ele>277.0</ele><time>2026-04-25T16:34:39.075Z</time></trkpt><trkpt lat="44.2233323" lon="11.0351427"><ele>277.0</ele><time>2026-04-25T16:34:41.085Z</time></trkpt><trkpt lat="44.2233061" lon="11.0350418"><ele>277.0</ele><time>2026-04-25T16:34:43.075Z</time></trkpt><trkpt lat="44.2232696" lon="11.0349677"><ele>277.0</ele><time>2026-04-25T16:34:45.084Z</time></trkpt><trkpt lat="44.223224" lon="11.0349006"><ele>277.0</ele><time>2026-04-25T16:34:47.078Z</time></trkpt><trkpt lat="44.2231749" lon="11.0348418"><ele>277.0</ele><time>2026-04-25T16:34:49.077Z</time></trkpt><trkpt lat="44.2231061" lon="11.0347571"><ele>278.16666666666663</ele><time>2026-04-25T16:34:52.081Z</time></trkpt><trkpt lat="44.2230668" lon="11.034687"><ele>279.3333333333333</ele><time>2026-04-25T16:34:54.078Z</time></trkpt><trkpt lat="44.22304" lon="11.0345972"><ele>280.5</ele><time>2026-04-25T16:34:56.079Z</time></trkpt><trkpt lat="44.2230194" lon="11.0344946"><ele>281.6666666666667</ele><time>2026-04-25T16:34:58.094Z</time></trkpt><trkpt lat="44.2230082" lon="11.0343964"><ele>282.83333333333337</ele><time>2026-04-25T16:35:00.08Z</time></trkpt><trkpt lat="44.2229958" lon="11.0342878"><ele>284.0</ele><time>2026-04-25T16:35:02.073Z</time></trkpt><trkpt lat="44.222991" lon="11.034151"><ele>283.1666666666667</ele><time>2026-04-25T16:35:04.08Z</time></trkpt><trkpt lat="44.2229726" lon="11.0339856"><ele>282.33333333333337</ele><time>2026-04-25T16:35:06.08Z</time></trkpt><trkpt lat="44.2229663" lon="11.0338925"><ele>281.5</ele><time>2026-04-25T16:35:07.083Z</time></trkpt><trkpt lat="44.222957" lon="11.033796"><ele>280.6666666666667</ele><time>2026-04-25T16:35:08.083Z</time></trkpt><trkpt lat="44.2229443" lon="11.0336923"><ele>279.8333333333333</ele><time>2026-04-25T16:35:09.082Z</time></trkpt><trkpt lat="44.2229372" lon="11.0335939"><ele>279.0</ele><time>2026-04-25T16:35:10.084Z</time></trkpt><trkpt lat="44.2229258" lon="11.0334905"><ele>278.99999999999994</ele><time>2026-04-25T16:35:11.08Z</time></trkpt><trkpt lat="44.222917" lon="11.033387"><ele>279.0</ele><time>2026-04-25T16:35:12.082Z</time></trkpt><trkpt lat="44.2229055" lon="11.0332786"><ele>279.0</ele><time>2026-04-25T16:35:13.08Z</time></trkpt><trkpt lat="44.2228913" lon="11.033178"><ele>279.0</ele><time>2026-04-25T16:35:14.085Z</time></trkpt><trkpt lat="44.2228814" lon="11.0330791"><ele>279.0</ele><time>2026-04-25T16:35:15.079Z</time></trkpt><trkpt lat="44.2228915" lon="11.0329867"><ele>278.99999999999994</ele><time>2026-04-25T16:35:16.079Z</time></trkpt><trkpt lat="44.2229034" lon="11.0328975"><ele>279.0</ele><time>2026-04-25T16:35:17.083Z</time></trkpt><trkpt lat="44.2229226" lon="11.0328013"><ele>278.8333333333333</ele><time>2026-04-25T16:35:18.086Z</time></trkpt><trkpt lat="44.2229472" lon="11.0326967"><ele>278.6666666666667</ele><time>2026-04-25T16:35:19.082Z</time></trkpt><trkpt lat="44.2229789" lon="11.0325981"><ele>278.5</ele><time>2026-04-25T16:35:20.081Z</time></trkpt><trkpt lat="44.2230081" lon="11.0324904"><ele>278.33333333333337</ele><time>2026-04-25T16:35:21.086Z</time></trkpt><trkpt lat="44.2230452" lon="11.032391"><ele>278.1666666666667</ele><time>2026-04-25T16:35:22.082Z</time></trkpt><trkpt lat="44.2230694" lon="11.0322945"><ele>278.0</ele><time>2026-04-25T16:35:23.078Z</time></trkpt><trkpt lat="44.2231007" lon="11.0322141"><ele>275.6666666666667</ele><time>2026-04-25T16:35:24.088Z</time></trkpt><trkpt lat="44.2231574" lon="11.03211"><ele>273.33333333333337</ele><time>2026-04-25T16:35:26.085Z</time></trkpt><trkpt lat="44.2232177" lon="11.0320461"><ele>271.0</ele><time>2026-04-25T16:35:28.076Z</time></trkpt><trkpt lat="44.2232843" lon="11.0319514"><ele>268.6666666666667</ele><time>2026-04-25T16:35:31.082Z</time></trkpt><trkpt lat="44.2233461" lon="11.0318668"><ele>266.3333333333333</ele><time>2026-04-25T16:35:34.082Z</time></trkpt><trkpt lat="44.2233446" lon="11.0317661"><ele>264.0</ele><time>2026-04-25T16:35:36.081Z</time></trkpt><trkpt lat="44.223305" lon="11.0316697"><ele>263.85714285714283</ele><time>2026-04-25T16:35:38.077Z</time></trkpt><trkpt lat="44.2232572" lon="11.0316071"><ele>263.7142857142857</ele><time>2026-04-25T16:35:40.081Z</time></trkpt><trkpt lat="44.2232022" lon="11.0315396"><ele>263.57142857142856</ele><time>2026-04-25T16:35:43.081Z</time></trkpt><trkpt lat="44.2231359" lon="11.0314787"><ele>263.42857142857144</ele><time>2026-04-25T16:35:46.08Z</time></trkpt><trkpt lat="44.2231009" lon="11.0313998"><ele>263.2857142857143</ele><time>2026-04-25T16:35:49.089Z</time></trkpt><trkpt lat="44.2230877" lon="11.0313074"><ele>263.1428571428571</ele><time>2026-04-25T16:35:52.08Z</time></trkpt><trkpt lat="44.2230962" lon="11.0311954"><ele>263.0</ele><time>2026-04-25T16:35:56.082Z</time></trkpt><trkpt lat="44.2231278" lon="11.0310966"><ele>263.0</ele><time>2026-04-25T16:35:59.085Z</time></trkpt><trkpt lat="44.223162" lon="11.0310017"><ele>263.0</ele><time>2026-04-25T16:36:02.081Z</time></trkpt><trkpt lat="44.2231899" lon="11.0308887"><ele>263.0</ele><time>2026-04-25T16:36:05.078Z</time></trkpt><trkpt lat="44.223226" lon="11.0307649"><ele>263.0</ele><time>2026-04-25T16:36:08.084Z</time></trkpt><trkpt lat="44.2232522" lon="11.0306789"><ele>263.0</ele><time>2026-04-25T16:36:10.079Z</time></trkpt><trkpt lat="44.2232808" lon="11.030582"><ele>263.0</ele><time>2026-04-25T16:36:12.082Z</time></trkpt><trkpt lat="44.2233111" lon="11.0304778"><ele>264.0</ele><time>2026-04-25T16:36:14.089Z</time></trkpt><trkpt lat="44.2233388" lon="11.0303381"><ele>265.0</ele><time>2026-04-25T16:36:16.081Z</time></trkpt><trkpt lat="44.2234031" lon="11.0302039"><ele>266.0</ele><time>2026-04-25T16:36:18.077Z</time></trkpt><trkpt lat="44.2234861" lon="11.0301057"><ele>267.0</ele><time>2026-04-25T16:36:20.08Z</time></trkpt><trkpt lat="44.2235491" lon="11.0300245"><ele>268.0</ele><time>2026-04-25T16:36:22.083Z</time></trkpt><trkpt lat="44.2235822" lon="11.0299464"><ele>269.7142857142857</ele><time>2026-04-25T16:36:24.08Z</time></trkpt><trkpt lat="44.2236019" lon="11.0298565"><ele>271.42857142857144</ele><time>2026-04-25T16:36:27.078Z</time></trkpt><trkpt lat="44.223582" lon="11.0297538"><ele>273.1428571428571</ele><time>2026-04-25T16:36:31.077Z</time></trkpt><trkpt lat="44.2235499" lon="11.0296598"><ele>274.8571428571429</ele><time>2026-04-25T16:36:35.083Z</time></trkpt><trkpt lat="44.2235103" lon="11.029567"><ele>276.57142857142856</ele><time>2026-04-25T16:36:39.083Z</time></trkpt><trkpt lat="44.2234771" lon="11.0294871"><ele>278.2857142857143</ele><time>2026-04-25T16:36:43.082Z</time></trkpt><trkpt lat="44.2235388" lon="11.0294438"><ele>280.0</ele><time>2026-04-25T16:36:48.073Z</time></trkpt><trkpt lat="44.2236125" lon="11.0294703"><ele>280.0</ele><time>2026-04-25T16:36:51.08Z</time></trkpt><trkpt lat="44.2236848" lon="11.0294599"><ele>280.0</ele><time>2026-04-25T16:36:54.079Z</time></trkpt><trkpt lat="44.2237659" lon="11.0294232"><ele>280.0</ele><time>2026-04-25T16:36:58.077Z</time></trkpt><trkpt lat="44.2238472" lon="11.0293782"><ele>280.0</ele><time>2026-04-25T16:37:01.076Z</time></trkpt><trkpt lat="44.2239061" lon="11.0293443"><ele>280.0</ele><time>2026-04-25T16:37:03.082Z</time></trkpt><trkpt lat="44.2239666" lon="11.0293132"><ele>280.0</ele><time>2026-04-25T16:37:05.08Z</time></trkpt><trkpt lat="44.2240308" lon="11.0292789"><ele>280.0</ele><time>2026-04-25T16:37:07.079Z</time></trkpt><trkpt lat="44.2240957" lon="11.0292454"><ele>280.0</ele><time>2026-04-25T16:37:09.082Z</time></trkpt><trkpt lat="44.2241582" lon="11.029214"><ele>280.0</ele><time>2026-04-25T16:37:11.077Z</time></trkpt><trkpt lat="44.2242235" lon="11.0291705"><ele>280.0</ele><time>2026-04-25T16:37:14.077Z</time></trkpt><trkpt lat="44.2242994" lon="11.0291407"><ele>280.0</ele><time>2026-04-25T16:37:17.074Z</time></trkpt><trkpt lat="44.2243641" lon="11.0291155"><ele>280.0</ele><time>2026-04-25T16:37:19.073Z</time></trkpt><trkpt lat="44.2244269" lon="11.029105"><ele>280.0</ele><time>2026-04-25T16:37:21.079Z</time></trkpt><trkpt lat="44.2245118" lon="11.0291328"><ele>280.0</ele><time>2026-04-25T16:37:24.078Z</time></trkpt><trkpt lat="44.224567" lon="11.0291839"><ele>280.0</ele><time>2026-04-25T16:37:26.081Z</time></trkpt><trkpt lat="44.2246215" lon="11.0292437"><ele>280.0</ele><time>2026-04-25T16:37:28.086Z</time></trkpt><trkpt lat="44.2246809" lon="11.0293048"><ele>280.0</ele><time>2026-04-25T16:37:30.079Z</time></trkpt><trkpt lat="44.2247403" lon="11.0293666"><ele>280.0</ele><time>2026-04-25T16:37:32.079Z</time></trkpt><trkpt lat="44.2247973" lon="11.0294288"><ele>280.0</ele><time>2026-04-25T16:37:34.081Z</time></trkpt><trkpt lat="44.2248603" lon="11.0294864"><ele>280.0</ele><time>2026-04-25T16:37:36.079Z</time></trkpt><trkpt lat="44.2249309" lon="11.029543"><ele>280.0</ele><time>2026-04-25T16:37:38.081Z</time></trkpt><trkpt lat="44.2249997" lon="11.0295957"><ele>279.8333333333333</ele><time>2026-04-25T16:37:40.079Z</time></trkpt><trkpt lat="44.225075" lon="11.0296562"><ele>279.66666666666663</ele><time>2026-04-25T16:37:42.077Z</time></trkpt><trkpt lat="44.2251342" lon="11.029743"><ele>279.5</ele><time>2026-04-25T16:37:44.077Z</time></trkpt><trkpt lat="44.2252" lon="11.0298284"><ele>279.3333333333333</ele><time>2026-04-25T16:37:46.079Z</time></trkpt><trkpt lat="44.2252493" lon="11.0299236"><ele>279.1666666666667</ele><time>2026-04-25T16:37:48.083Z</time></trkpt><trkpt lat="44.2252799" lon="11.0300388"><ele>279.0</ele><time>2026-04-25T16:37:50.081Z</time></trkpt><trkpt lat="44.2252607" lon="11.030162"><ele>278.2</ele><time>2026-04-25T16:37:52.078Z</time></trkpt><trkpt lat="44.2252442" lon="11.0302891"><ele>277.4</ele><time>2026-04-25T16:37:54.084Z</time></trkpt><trkpt lat="44.2252543" lon="11.0304228"><ele>276.6</ele><time>2026-04-25T16:37:56.078Z</time></trkpt><trkpt lat="44.2252604" lon="11.030542"><ele>275.8</ele><time>2026-04-25T16:37:58.079Z</time></trkpt><trkpt lat="44.2252672" lon="11.0306909"><ele>275.0</ele><time>2026-04-25T16:38:00.086Z</time></trkpt><trkpt lat="44.225272" lon="11.030838"><ele>275.0</ele><time>2026-04-25T16:38:02.089Z</time></trkpt><trkpt lat="44.2252925" lon="11.0309971"><ele>275.0</ele><time>2026-04-25T16:38:04.083Z</time></trkpt><trkpt lat="44.2253031" lon="11.0311497"><ele>275.0</ele><time>2026-04-25T16:38:06.078Z</time></trkpt><trkpt lat="44.2252813" lon="11.0312812"><ele>275.0</ele><time>2026-04-25T16:38:08.078Z</time></trkpt><trkpt lat="44.2252791" lon="11.0314331"><ele>275.0</ele><time>2026-04-25T16:38:10.075Z</time></trkpt><trkpt lat="44.2252793" lon="11.031567"><ele>274.25</ele><time>2026-04-25T16:38:12.085Z</time></trkpt><trkpt lat="44.2253063" lon="11.0317037"><ele>273.5</ele><time>2026-04-25T16:38:14.078Z</time></trkpt><trkpt lat="44.2253127" lon="11.0318498"><ele>272.75</ele><time>2026-04-25T16:38:16.085Z</time></trkpt><trkpt lat="44.2253328" lon="11.0319836"><ele>272.0</ele><time>2026-04-25T16:38:18.076Z</time></trkpt><trkpt lat="44.2253624" lon="11.0321883"><ele>272.0</ele><time>2026-04-25T16:38:21.076Z</time></trkpt><trkpt lat="44.2253767" lon="11.032304"><ele>272.0</ele><time>2026-04-25T16:38:23.097Z</time></trkpt><trkpt lat="44.2253774" lon="11.0324387"><ele>272.0</ele><time>2026-04-25T16:38:25.091Z</time></trkpt><trkpt lat="44.2253842" lon="11.0325672"><ele>272.0</ele><time>2026-04-25T16:38:27.079Z</time></trkpt><trkpt lat="44.2254226" lon="11.0327028"><ele>272.0</ele><time>2026-04-25T16:38:29.081Z</time></trkpt><trkpt lat="44.2254645" lon="11.0328236"><ele>271.4</ele><time>2026-04-25T16:38:31.078Z</time></trkpt><trkpt lat="44.2255139" lon="11.0329527"><ele>270.79999999999995</ele><time>2026-04-25T16:38:33.076Z</time></trkpt><trkpt lat="44.2255786" lon="11.0330937"><ele>270.2</ele><time>2026-04-25T16:38:35.077Z</time></trkpt><trkpt lat="44.2256117" lon="11.0332278"><ele>269.59999999999997</ele><time>2026-04-25T16:38:37.082Z</time></trkpt><trkpt lat="44.2256497" lon="11.0333079"><ele>269.0</ele><time>2026-04-25T16:38:38.081Z</time></trkpt><trkpt lat="44.2257124" lon="11.0334393"><ele>270.4</ele><time>2026-04-25T16:38:40.076Z</time></trkpt><trkpt lat="44.2257426" lon="11.0335167"><ele>271.79999999999995</ele><time>2026-04-25T16:38:41.095Z</time></trkpt><trkpt lat="44.2257975" lon="11.0336596"><ele>273.20000000000005</ele><time>2026-04-25T16:38:43.081Z</time></trkpt><trkpt lat="44.2258513" lon="11.0337966"><ele>274.6</ele><time>2026-04-25T16:38:45.078Z</time></trkpt><trkpt lat="44.2258862" lon="11.033939"><ele>276.0</ele><time>2026-04-25T16:38:47.078Z</time></trkpt><trkpt lat="44.2259327" lon="11.0340797"><ele>274.8</ele><time>2026-04-25T16:38:49.086Z</time></trkpt><trkpt lat="44.2259822" lon="11.0342164"><ele>273.6</ele><time>2026-04-25T16:38:51.077Z</time></trkpt><trkpt lat="44.2260349" lon="11.0343558"><ele>272.4</ele><time>2026-04-25T16:38:53.085Z</time></trkpt><trkpt lat="44.2260948" lon="11.0344885"><ele>271.2</ele><time>2026-04-25T16:38:55.083Z</time></trkpt><trkpt lat="44.2261352" lon="11.0346301"><ele>270.0</ele><time>2026-04-25T16:38:57.078Z</time></trkpt><trkpt lat="44.2261794" lon="11.0347777"><ele>270.0</ele><time>2026-04-25T16:38:59.081Z</time></trkpt><trkpt lat="44.2262187" lon="11.0349287"><ele>270.0</ele><time>2026-04-25T16:39:01.084Z</time></trkpt><trkpt lat="44.2262663" lon="11.0350636"><ele>270.0</ele><time>2026-04-25T16:39:03.079Z</time></trkpt><trkpt lat="44.2263189" lon="11.0352058"><ele>270.0</ele><time>2026-04-25T16:39:05.086Z</time></trkpt><trkpt lat="44.2263791" lon="11.0353473"><ele>269.5</ele><time>2026-04-25T16:39:07.081Z</time></trkpt><trkpt lat="44.2264217" lon="11.035497"><ele>269.0</ele><time>2026-04-25T16:39:09.097Z</time></trkpt><trkpt lat="44.2264722" lon="11.0356463"><ele>268.5</ele><time>2026-04-25T16:39:11.081Z</time></trkpt><trkpt lat="44.2265291" lon="11.0358025"><ele>268.0</ele><time>2026-04-25T16:39:13.082Z</time></trkpt><trkpt lat="44.226581" lon="11.0359518"><ele>269.8</ele><time>2026-04-25T16:39:15.076Z</time></trkpt><trkpt lat="44.226632" lon="11.0361029"><ele>271.6</ele><time>2026-04-25T16:39:17.078Z</time></trkpt><trkpt lat="44.2266683" lon="11.0362603"><ele>273.4</ele><time>2026-04-25T16:39:19.078Z</time></trkpt><trkpt lat="44.226702" lon="11.0363483"><ele>275.2</ele><time>2026-04-25T16:39:20.078Z</time></trkpt><trkpt lat="44.2267255" lon="11.0364352"><ele>277.0</ele><time>2026-04-25T16:39:21.085Z</time></trkpt><trkpt lat="44.2267643" lon="11.0366001"><ele>275.85714285714283</ele><time>2026-04-25T16:39:23.078Z</time></trkpt><trkpt lat="44.2267753" lon="11.0367025"><ele>274.71428571428567</ele><time>2026-04-25T16:39:24.089Z</time></trkpt><trkpt lat="44.2267753" lon="11.0367989"><ele>273.57142857142856</ele><time>2026-04-25T16:39:25.08Z</time></trkpt><trkpt lat="44.2267733" lon="11.0368934"><ele>272.42857142857144</ele><time>2026-04-25T16:39:26.079Z</time></trkpt><trkpt lat="44.2267633" lon="11.0369854"><ele>271.28571428571433</ele><time>2026-04-25T16:39:27.08Z</time></trkpt><trkpt lat="44.2267615" lon="11.0370772"><ele>270.14285714285717</ele><time>2026-04-25T16:39:28.079Z</time></trkpt><trkpt lat="44.2267656" lon="11.037165"><ele>269.0</ele><time>2026-04-25T16:39:29.076Z</time></trkpt><trkpt lat="44.2267644" lon="11.0373352"><ele>268.4</ele><time>2026-04-25T16:39:31.077Z</time></trkpt><trkpt lat="44.2267948" lon="11.037481"><ele>267.79999999999995</ele><time>2026-04-25T16:39:33.08Z</time></trkpt><trkpt lat="44.2268375" lon="11.0376053"><ele>267.20000000000005</ele><time>2026-04-25T16:39:35.079Z</time></trkpt><trkpt lat="44.2269214" lon="11.0376952"><ele>266.6</ele><time>2026-04-25T16:39:37.078Z</time></trkpt><trkpt lat="44.2269677" lon="11.0378148"><ele>266.0</ele><time>2026-04-25T16:39:40.082Z</time></trkpt><trkpt lat="44.227039" lon="11.037912"><ele>266.0</ele><time>2026-04-25T16:39:42.079Z</time></trkpt><trkpt lat="44.2271162" lon="11.0380085"><ele>266.0</ele><time>2026-04-25T16:39:44.081Z</time></trkpt><trkpt lat="44.2271931" lon="11.0380929"><ele>266.0</ele><time>2026-04-25T16:39:46.078Z</time></trkpt><trkpt lat="44.2272657" lon="11.038175"><ele>266.0</ele><time>2026-04-25T16:39:48.081Z</time></trkpt><trkpt lat="44.2273452" lon="11.0382449"><ele>266.0</ele><time>2026-04-25T16:39:50.067Z</time></trkpt><trkpt lat="44.2274371" lon="11.0383315"><ele>267.0</ele><time>2026-04-25T16:39:52.081Z</time></trkpt><trkpt lat="44.2274907" lon="11.0384621"><ele>268.0</ele><time>2026-04-25T16:39:54.079Z</time></trkpt><trkpt lat="44.2275414" lon="11.0385761"><ele>269.0</ele><time>2026-04-25T16:39:56.082Z</time></trkpt><trkpt lat="44.2276207" lon="11.0386747"><ele>270.0</ele><time>2026-04-25T16:39:58.083Z</time></trkpt><trkpt lat="44.2276712" lon="11.0387872"><ele>271.0</ele><time>2026-04-25T16:40:00.076Z</time></trkpt><trkpt lat="44.2277004" lon="11.0388907"><ele>271.0</ele><time>2026-04-25T16:40:02.083Z</time></trkpt><trkpt lat="44.2277257" lon="11.0389918"><ele>271.0</ele><time>2026-04-25T16:40:04.092Z</time></trkpt><trkpt lat="44.2277802" lon="11.0391273"><ele>271.0</ele><time>2026-04-25T16:40:06.079Z</time></trkpt><trkpt lat="44.227833" lon="11.039242"><ele>271.0</ele><time>2026-04-25T16:40:08.083Z</time></trkpt><trkpt lat="44.2278871" lon="11.0393095"><ele>271.0</ele><time>2026-04-25T16:40:10.085Z</time></trkpt><trkpt lat="44.2278977" lon="11.0394062"><ele>271.0</ele><time>2026-04-25T16:40:12.083Z</time></trkpt><trkpt lat="44.2279433" lon="11.0395248"><ele>270.40000000000003</ele><time>2026-04-25T16:40:14.081Z</time></trkpt><trkpt lat="44.2280193" lon="11.0396235"><ele>269.8</ele><time>2026-04-25T16:40:16.093Z</time></trkpt><trkpt lat="44.2280921" lon="11.0397396"><ele>269.20000000000005</ele><time>2026-04-25T16:40:18.081Z</time></trkpt><trkpt lat="44.2281426" lon="11.0398017"><ele>268.6</ele><time>2026-04-25T16:40:19.08Z</time></trkpt><trkpt lat="44.2282321" lon="11.0399161"><ele>268.0</ele><time>2026-04-25T16:40:21.075Z</time></trkpt><trkpt lat="44.2282848" lon="11.0399772"><ele>267.0</ele><time>2026-04-25T16:40:22.082Z</time></trkpt><trkpt lat="44.2283367" lon="11.0400359"><ele>266.0</ele><time>2026-04-25T16:40:23.081Z</time></trkpt><trkpt lat="44.2283899" lon="11.0400869"><ele>265.0</ele><time>2026-04-25T16:40:24.078Z</time></trkpt><trkpt lat="44.2284227" lon="11.040162"><ele>264.0</ele><time>2026-04-25T16:40:25.077Z</time></trkpt><trkpt lat="44.2285131" lon="11.0402793"><ele>263.0</ele><time>2026-04-25T16:40:27.079Z</time></trkpt><trkpt lat="44.2285615" lon="11.0403395"><ele>262.0</ele><time>2026-04-25T16:40:28.078Z</time></trkpt><trkpt lat="44.2286146" lon="11.0404123"><ele>262.0</ele><time>2026-04-25T16:40:29.075Z</time></trkpt><trkpt lat="44.2286476" lon="11.040496"><ele>262.0</ele><time>2026-04-25T16:40:30.086Z</time></trkpt><trkpt lat="44.2286948" lon="11.0405583"><ele>262.0</ele><time>2026-04-25T16:40:31.079Z</time></trkpt><trkpt lat="44.2287369" lon="11.0406302"><ele>262.0</ele><time>2026-04-25T16:40:32.079Z</time></trkpt><trkpt lat="44.2287823" lon="11.0407036"><ele>262.0</ele><time>2026-04-25T16:40:33.076Z</time></trkpt><trkpt lat="44.2288271" lon="11.0407719"><ele>262.0</ele><time>2026-04-25T16:40:34.081Z</time></trkpt><trkpt lat="44.2288733" lon="11.040845"><ele>262.0</ele><time>2026-04-25T16:40:35.079Z</time></trkpt><trkpt lat="44.2289153" lon="11.0409173"><ele>262.8333333333333</ele><time>2026-04-25T16:40:36.08Z</time></trkpt><trkpt lat="44.2289529" lon="11.0409901"><ele>263.66666666666663</ele><time>2026-04-25T16:40:37.078Z</time></trkpt><trkpt lat="44.2289954" lon="11.0410714"><ele>264.5</ele><time>2026-04-25T16:40:38.079Z</time></trkpt><trkpt lat="44.2290334" lon="11.04115"><ele>265.3333333333333</ele><time>2026-04-25T16:40:39.076Z</time></trkpt><trkpt lat="44.2291033" lon="11.041277"><ele>266.1666666666667</ele><time>2026-04-25T16:40:41.089Z</time></trkpt><trkpt lat="44.2291706" lon="11.0414168"><ele>267.0</ele><time>2026-04-25T16:40:43.077Z</time></trkpt><trkpt lat="44.2292478" lon="11.0415487"><ele>267.00000000000006</ele><time>2026-04-25T16:40:45.075Z</time></trkpt><trkpt lat="44.2292894" lon="11.0416182"><ele>267.0</ele><time>2026-04-25T16:40:46.079Z</time></trkpt><trkpt lat="44.2293338" lon="11.0416961"><ele>267.0</ele><time>2026-04-25T16:40:47.081Z</time></trkpt><trkpt lat="44.2293785" lon="11.0417641"><ele>267.0</ele><time>2026-04-25T16:40:48.08Z</time></trkpt><trkpt lat="44.2294196" lon="11.0418399"><ele>267.0</ele><time>2026-04-25T16:40:49.075Z</time></trkpt><trkpt lat="44.2294633" lon="11.0419046"><ele>267.00000000000006</ele><time>2026-04-25T16:40:50.08Z</time></trkpt><trkpt lat="44.2295085" lon="11.0419746"><ele>267.0</ele><time>2026-04-25T16:40:51.076Z</time></trkpt><trkpt lat="44.2295575" lon="11.0420409"><ele>266.42857142857144</ele><time>2026-04-25T16:40:52.081Z</time></trkpt><trkpt lat="44.2296156" lon="11.0421127"><ele>265.8571428571429</ele><time>2026-04-25T16:40:53.084Z</time></trkpt><trkpt lat="44.2296671" lon="11.0421844"><ele>265.2857142857143</ele><time>2026-04-25T16:40:54.076Z</time></trkpt><trkpt lat="44.2297215" lon="11.0422554"><ele>264.7142857142857</ele><time>2026-04-25T16:40:55.076Z</time></trkpt><trkpt lat="44.2297776" lon="11.0423194"><ele>264.1428571428571</ele><time>2026-04-25T16:40:56.083Z</time></trkpt><trkpt lat="44.2298272" lon="11.0423892"><ele>263.57142857142856</ele><time>2026-04-25T16:40:57.078Z</time></trkpt><trkpt lat="44.2298774" lon="11.0424644"><ele>263.0</ele><time>2026-04-25T16:40:58.077Z</time></trkpt><trkpt lat="44.229938" lon="11.0425543"><ele>263.0</ele><time>2026-04-25T16:40:59.087Z</time></trkpt><trkpt lat="44.2299785" lon="11.0426282"><ele>263.0</ele><time>2026-04-25T16:41:00.081Z</time></trkpt><trkpt lat="44.2300141" lon="11.0427081"><ele>263.0</ele><time>2026-04-25T16:41:01.078Z</time></trkpt><trkpt lat="44.2300488" lon="11.0428106"><ele>263.0</ele><time>2026-04-25T16:41:02.078Z</time></trkpt><trkpt lat="44.2300764" lon="11.042907"><ele>263.0</ele><time>2026-04-25T16:41:03.073Z</time></trkpt><trkpt lat="44.2300995" lon="11.0430092"><ele>263.0</ele><time>2026-04-25T16:41:04.076Z</time></trkpt><trkpt lat="44.2301002" lon="11.0431006"><ele>263.0</ele><time>2026-04-25T16:41:05.082Z</time></trkpt><trkpt lat="44.2301078" lon="11.0432026"><ele>262.33333333333337</ele><time>2026-04-25T16:41:06.086Z</time></trkpt><trkpt lat="44.2301233" lon="11.0433057"><ele>261.6666666666667</ele><time>2026-04-25T16:41:07.082Z</time></trkpt><trkpt lat="44.2301358" lon="11.0434144"><ele>261.0</ele><time>2026-04-25T16:41:08.08Z</time></trkpt><trkpt lat="44.2301381" lon="11.0435161"><ele>260.3333333333333</ele><time>2026-04-25T16:41:09.079Z</time></trkpt><trkpt lat="44.2301317" lon="11.0436238"><ele>259.66666666666663</ele><time>2026-04-25T16:41:10.078Z</time></trkpt><trkpt lat="44.2301361" lon="11.0437182"><ele>259.0</ele><time>2026-04-25T16:41:11.079Z</time></trkpt><trkpt lat="44.2301523" lon="11.0438777"><ele>259.0</ele><time>2026-04-25T16:41:13.079Z</time></trkpt><trkpt lat="44.2301531" lon="11.0439667"><ele>259.0</ele><time>2026-04-25T16:41:14.085Z</time></trkpt><trkpt lat="44.230156" lon="11.0440603"><ele>259.0</ele><time>2026-04-25T16:41:15.076Z</time></trkpt><trkpt lat="44.2301387" lon="11.0442113"><ele>259.0</ele><time>2026-04-25T16:41:17.079Z</time></trkpt><trkpt lat="44.230149" lon="11.0443668"><ele>259.0</ele><time>2026-04-25T16:41:19.079Z</time></trkpt><trkpt lat="44.2301437" lon="11.0445272"><ele>258.8</ele><time>2026-04-25T16:41:21.076Z</time></trkpt><trkpt lat="44.2301513" lon="11.0446821"><ele>258.59999999999997</ele><time>2026-04-25T16:41:23.077Z</time></trkpt><trkpt lat="44.2301486" lon="11.0448352"><ele>258.4</ele><time>2026-04-25T16:41:25.081Z</time></trkpt><trkpt lat="44.2301611" lon="11.0449733"><ele>258.2</ele><time>2026-04-25T16:41:27.093Z</time></trkpt><trkpt lat="44.2301712" lon="11.0451186"><ele>258.0</ele><time>2026-04-25T16:41:29.078Z</time></trkpt><trkpt lat="44.2301612" lon="11.0452527"><ele>258.0</ele><time>2026-04-25T16:41:31.076Z</time></trkpt><trkpt lat="44.2301286" lon="11.0454161"><ele>258.0</ele><time>2026-04-25T16:41:33.076Z</time></trkpt><trkpt lat="44.2300923" lon="11.0454919"><ele>258.0</ele><time>2026-04-25T16:41:34.083Z</time></trkpt><trkpt lat="44.2300526" lon="11.0456393"><ele>258.0</ele><time>2026-04-25T16:41:36.077Z</time></trkpt><trkpt lat="44.2300235" lon="11.0457876"><ele>258.0</ele><time>2026-04-25T16:41:38.081Z</time></trkpt><trkpt lat="44.2299825" lon="11.0459463"><ele>258.75</ele><time>2026-04-25T16:41:40.082Z</time></trkpt><trkpt lat="44.229945" lon="11.0460981"><ele>259.5</ele><time>2026-04-25T16:41:42.084Z</time></trkpt><trkpt lat="44.2298908" lon="11.0462487"><ele>260.25</ele><time>2026-04-25T16:41:44.081Z</time></trkpt><trkpt lat="44.2298514" lon="11.0463913"><ele>261.0</ele><time>2026-04-25T16:41:46.08Z</time></trkpt><trkpt lat="44.2298205" lon="11.0465416"><ele>259.2</ele><time>2026-04-25T16:41:48.079Z</time></trkpt><trkpt lat="44.2297727" lon="11.0466929"><ele>257.40000000000003</ele><time>2026-04-25T16:41:50.081Z</time></trkpt><trkpt lat="44.2297266" lon="11.046849"><ele>255.6</ele><time>2026-04-25T16:41:52.087Z</time></trkpt><trkpt lat="44.2296979" lon="11.0470001"><ele>253.8</ele><time>2026-04-25T16:41:54.082Z</time></trkpt><trkpt lat="44.2296806" lon="11.0470885"><ele>252.0</ele><time>2026-04-25T16:41:55.083Z</time></trkpt><trkpt lat="44.2296376" lon="11.0471626"><ele>252.0</ele><time>2026-04-25T16:41:56.077Z</time></trkpt><trkpt lat="44.229598" lon="11.0473043"><ele>252.0</ele><time>2026-04-25T16:41:58.084Z</time></trkpt><trkpt lat="44.2295828" lon="11.0474148"><ele>252.0</ele><time>2026-04-25T16:42:00.078Z</time></trkpt><trkpt lat="44.2295441" lon="11.047561"><ele>252.0</ele><time>2026-04-25T16:42:02.078Z</time></trkpt><trkpt lat="44.2295286" lon="11.047654"><ele>252.0</ele><time>2026-04-25T16:42:03.083Z</time></trkpt><trkpt lat="44.2295171" lon="11.0478027"><ele>252.8</ele><time>2026-04-25T16:42:05.084Z</time></trkpt><trkpt lat="44.2294951" lon="11.0478868"><ele>253.6</ele><time>2026-04-25T16:42:06.082Z</time></trkpt><trkpt lat="44.2294493" lon="11.0480417"><ele>254.40000000000003</ele><time>2026-04-25T16:42:08.086Z</time></trkpt><trkpt lat="44.2294228" lon="11.0482055"><ele>255.20000000000002</ele><time>2026-04-25T16:42:10.087Z</time></trkpt><trkpt lat="44.2293938" lon="11.0483701"><ele>256.0</ele><time>2026-04-25T16:42:12.077Z</time></trkpt><trkpt lat="44.2293671" lon="11.0485356"><ele>256.0</ele><time>2026-04-25T16:42:14.08Z</time></trkpt><trkpt lat="44.2293439" lon="11.048674"><ele>256.0</ele><time>2026-04-25T16:42:16.082Z</time></trkpt><trkpt lat="44.2293019" lon="11.0488279"><ele>256.0</ele><time>2026-04-25T16:42:18.079Z</time></trkpt><trkpt lat="44.2292733" lon="11.0489765"><ele>256.0</ele><time>2026-04-25T16:42:20.077Z</time></trkpt><trkpt lat="44.2292409" lon="11.0491233"><ele>256.0</ele><time>2026-04-25T16:42:22.079Z</time></trkpt><trkpt lat="44.2292169" lon="11.0492687"><ele>256.8333333333333</ele><time>2026-04-25T16:42:24.08Z</time></trkpt><trkpt lat="44.2291793" lon="11.0494276"><ele>257.66666666666663</ele><time>2026-04-25T16:42:26.083Z</time></trkpt><trkpt lat="44.2291705" lon="11.0495888"><ele>258.5</ele><time>2026-04-25T16:42:28.08Z</time></trkpt><trkpt lat="44.2291773" lon="11.0496879"><ele>259.3333333333333</ele><time>2026-04-25T16:42:29.085Z</time></trkpt><trkpt lat="44.2291832" lon="11.0497805"><ele>260.1666666666667</ele><time>2026-04-25T16:42:30.084Z</time></trkpt><trkpt lat="44.2291932" lon="11.0498692"><ele>261.0</ele><time>2026-04-25T16:42:31.078Z</time></trkpt><trkpt lat="44.2292208" lon="11.0500398"><ele>261.1666666666667</ele><time>2026-04-25T16:42:33.085Z</time></trkpt><trkpt lat="44.2292345" lon="11.0501311"><ele>261.3333333333333</ele><time>2026-04-25T16:42:34.081Z</time></trkpt><trkpt lat="44.2292518" lon="11.0502209"><ele>261.5</ele><time>2026-04-25T16:42:35.078Z</time></trkpt><trkpt lat="44.2292689" lon="11.0503885"><ele>261.66666666666663</ele><time>2026-04-25T16:42:37.09Z</time></trkpt><trkpt lat="44.2292856" lon="11.050492"><ele>261.8333333333333</ele><time>2026-04-25T16:42:38.083Z</time></trkpt><trkpt lat="44.229303" lon="11.0505849"><ele>262.0</ele><time>2026-04-25T16:42:39.067Z</time></trkpt><trkpt lat="44.2293275" lon="11.0506926"><ele>261.3333333333333</ele><time>2026-04-25T16:42:40.077Z</time></trkpt><trkpt lat="44.2293557" lon="11.0508026"><ele>260.66666666666663</ele><time>2026-04-25T16:42:41.084Z</time></trkpt><trkpt lat="44.2293809" lon="11.0509014"><ele>260.0</ele><time>2026-04-25T16:42:42.083Z</time></trkpt><trkpt lat="44.2294075" lon="11.0510097"><ele>259.3333333333333</ele><time>2026-04-25T16:42:43.078Z</time></trkpt><trkpt lat="44.2294231" lon="11.0511187"><ele>258.6666666666667</ele><time>2026-04-25T16:42:44.078Z</time></trkpt><trkpt lat="44.2294487" lon="11.0512187"><ele>258.0</ele><time>2026-04-25T16:42:45.077Z</time></trkpt><trkpt lat="44.2294519" lon="11.0513284"><ele>258.0</ele><time>2026-04-25T16:42:46.076Z</time></trkpt><trkpt lat="44.2294707" lon="11.0514289"><ele>258.0</ele><time>2026-04-25T16:42:47.078Z</time></trkpt><trkpt lat="44.2294941" lon="11.0515286"><ele>258.0</ele><time>2026-04-25T16:42:48.067Z</time></trkpt><trkpt lat="44.2295307" lon="11.051643"><ele>258.0</ele><time>2026-04-25T16:42:49.076Z</time></trkpt><trkpt lat="44.2295651" lon="11.0517473"><ele>258.0</ele><time>2026-04-25T16:42:50.083Z</time></trkpt><trkpt lat="44.2295996" lon="11.0518469"><ele>258.0</ele><time>2026-04-25T16:42:51.088Z</time></trkpt><trkpt lat="44.2296353" lon="11.0519424"><ele>257.4285714285714</ele><time>2026-04-25T16:42:52.085Z</time></trkpt><trkpt lat="44.2296746" lon="11.0520317"><ele>256.85714285714283</ele><time>2026-04-25T16:42:53.079Z</time></trkpt><trkpt lat="44.2297071" lon="11.0521272"><ele>256.2857142857143</ele><time>2026-04-25T16:42:54.077Z</time></trkpt><trkpt lat="44.2297452" lon="11.0522108"><ele>255.7142857142857</ele><time>2026-04-25T16:42:55.081Z</time></trkpt><trkpt lat="44.2297833" lon="11.0522877"><ele>255.1428571428571</ele><time>2026-04-25T16:42:56.087Z</time></trkpt><trkpt lat="44.2298314" lon="11.0523709"><ele>254.57142857142858</ele><time>2026-04-25T16:42:57.078Z</time></trkpt><trkpt lat="44.2298702" lon="11.052456"><ele>254.0</ele><time>2026-04-25T16:42:58.082Z</time></trkpt><trkpt lat="44.2299126" lon="11.0525363"><ele>255.83333333333334</ele><time>2026-04-25T16:42:59.087Z</time></trkpt><trkpt lat="44.2299432" lon="11.0526257"><ele>257.6666666666667</ele><time>2026-04-25T16:43:00.08Z</time></trkpt><trkpt lat="44.2299834" lon="11.0527021"><ele>259.5</ele><time>2026-04-25T16:43:01.088Z</time></trkpt><trkpt lat="44.2300547" lon="11.0528507"><ele>261.3333333333333</ele><time>2026-04-25T16:43:03.083Z</time></trkpt><trkpt lat="44.2301009" lon="11.05292"><ele>263.16666666666663</ele><time>2026-04-25T16:43:04.088Z</time></trkpt><trkpt lat="44.2301351" lon="11.0529972"><ele>265.0</ele><time>2026-04-25T16:43:05.085Z</time></trkpt><trkpt lat="44.2301692" lon="11.0530732"><ele>265.0</ele><time>2026-04-25T16:43:06.087Z</time></trkpt><trkpt lat="44.2302076" lon="11.0531463"><ele>265.0</ele><time>2026-04-25T16:43:07.079Z</time></trkpt><trkpt lat="44.2302741" lon="11.0532826"><ele>265.0</ele><time>2026-04-25T16:43:09.076Z</time></trkpt><trkpt lat="44.230321" lon="11.0534401"><ele>265.0</ele><time>2026-04-25T16:43:11.078Z</time></trkpt><trkpt lat="44.2303712" lon="11.0535873"><ele>265.0</ele><time>2026-04-25T16:43:13.083Z</time></trkpt><trkpt lat="44.2304002" lon="11.0537446"><ele>263.0</ele><time>2026-04-25T16:43:15.087Z</time></trkpt><trkpt lat="44.2304386" lon="11.0538762"><ele>261.0</ele><time>2026-04-25T16:43:17.074Z</time></trkpt><trkpt lat="44.2304699" lon="11.0540025"><ele>259.0</ele><time>2026-04-25T16:43:19.076Z</time></trkpt><trkpt lat="44.2305071" lon="11.0541408"><ele>257.0</ele><time>2026-04-25T16:43:21.078Z</time></trkpt><trkpt lat="44.2305269" lon="11.0542278"><ele>255.0</ele><time>2026-04-25T16:43:22.084Z</time></trkpt><trkpt lat="44.2305843" lon="11.0543693"><ele>254.0</ele><time>2026-04-25T16:43:24.089Z</time></trkpt><trkpt lat="44.2306213" lon="11.0544991"><ele>253.0</ele><time>2026-04-25T16:43:26.083Z</time></trkpt><trkpt lat="44.2306269" lon="11.0545948"><ele>252.0</ele><time>2026-04-25T16:43:27.077Z</time></trkpt><trkpt lat="44.2306325" lon="11.0546866"><ele>251.0</ele><time>2026-04-25T16:43:28.079Z</time></trkpt><trkpt lat="44.2306517" lon="11.0548449"><ele>250.0</ele><time>2026-04-25T16:43:30.096Z</time></trkpt><trkpt lat="44.2306907" lon="11.054999"><ele>252.2</ele><time>2026-04-25T16:43:32.082Z</time></trkpt><trkpt lat="44.2307303" lon="11.0551036"><ele>254.4</ele><time>2026-04-25T16:43:34.086Z</time></trkpt><trkpt lat="44.2307496" lon="11.0552166"><ele>256.6</ele><time>2026-04-25T16:43:36.084Z</time></trkpt><trkpt lat="44.2307691" lon="11.0553067"><ele>258.8</ele><time>2026-04-25T16:43:40.077Z</time></trkpt><trkpt lat="44.2307909" lon="11.05542"><ele>261.0</ele><time>2026-04-25T16:47:22.083Z</time></trkpt><trkpt lat="44.2307203" lon="11.0557434"><ele>259.75</ele><time>2026-04-25T16:47:26.099Z</time></trkpt><trkpt lat="44.2306822" lon="11.0558929"><ele>258.5</ele><time>2026-04-25T16:47:28.096Z</time></trkpt><trkpt lat="44.2306465" lon="11.0560247"><ele>257.25</ele><time>2026-04-25T16:47:30.088Z</time></trkpt><trkpt lat="44.2305873" lon="11.0561704"><ele>256.0</ele><time>2026-04-25T16:47:32.083Z</time></trkpt><trkpt lat="44.2305104" lon="11.0562978"><ele>254.20000000000002</ele><time>2026-04-25T16:47:34.082Z</time></trkpt><trkpt lat="44.2304188" lon="11.0563949"><ele>252.40000000000003</ele><time>2026-04-25T16:47:36.087Z</time></trkpt><trkpt lat="44.2303392" lon="11.056511"><ele>250.6</ele><time>2026-04-25T16:47:38.083Z</time></trkpt><trkpt lat="44.2302724" lon="11.0566394"><ele>248.8</ele><time>2026-04-25T16:47:40.087Z</time></trkpt><trkpt lat="44.2302286" lon="11.0567536"><ele>247.0</ele><time>2026-04-25T16:47:42.083Z</time></trkpt><trkpt lat="44.230179" lon="11.0568786"><ele>247.0</ele><time>2026-04-25T16:47:44.082Z</time></trkpt><trkpt lat="44.2301406" lon="11.0570049"><ele>247.0</ele><time>2026-04-25T16:47:46.082Z</time></trkpt><trkpt lat="44.2301213" lon="11.0571506"><ele>247.0</ele><time>2026-04-25T16:47:48.088Z</time></trkpt><trkpt lat="44.230103" lon="11.0572713"><ele>247.0</ele><time>2026-04-25T16:47:50.084Z</time></trkpt><trkpt lat="44.2300833" lon="11.0574284"><ele>247.0</ele><time>2026-04-25T16:47:52.084Z</time></trkpt><trkpt lat="44.2300625" lon="11.0575757"><ele>247.6</ele><time>2026-04-25T16:47:54.085Z</time></trkpt><trkpt lat="44.2300416" lon="11.057733"><ele>248.2</ele><time>2026-04-25T16:47:56.085Z</time></trkpt><trkpt lat="44.2300235" lon="11.0578583"><ele>248.8</ele><time>2026-04-25T16:47:58.083Z</time></trkpt><trkpt lat="44.2300114" lon="11.0580028"><ele>249.4</ele><time>2026-04-25T16:48:00.081Z</time></trkpt><trkpt lat="44.230004" lon="11.0581368"><ele>250.0</ele><time>2026-04-25T16:48:02.079Z</time></trkpt><trkpt lat="44.2299978" lon="11.0582727"><ele>250.8</ele><time>2026-04-25T16:48:04.08Z</time></trkpt><trkpt lat="44.2300013" lon="11.0584184"><ele>251.6</ele><time>2026-04-25T16:48:06.08Z</time></trkpt><trkpt lat="44.2300107" lon="11.0585249"><ele>252.39999999999998</ele><time>2026-04-25T16:48:08.077Z</time></trkpt><trkpt lat="44.2300173" lon="11.0586757"><ele>253.2</ele><time>2026-04-25T16:48:10.081Z</time></trkpt><trkpt lat="44.2300189" lon="11.0588148"><ele>254.0</ele><time>2026-04-25T16:48:12.081Z</time></trkpt><trkpt lat="44.2300203" lon="11.0589366"><ele>254.0</ele><time>2026-04-25T16:48:14.084Z</time></trkpt><trkpt lat="44.230029" lon="11.0590691"><ele>253.99999999999997</ele><time>2026-04-25T16:48:16.081Z</time></trkpt><trkpt lat="44.230031" lon="11.059195"><ele>253.99999999999997</ele><time>2026-04-25T16:48:18.076Z</time></trkpt><trkpt lat="44.2300302" lon="11.0593267"><ele>254.0</ele><time>2026-04-25T16:48:20.074Z</time></trkpt><trkpt lat="44.2300367" lon="11.0594453"><ele>254.0</ele><time>2026-04-25T16:48:22.066Z</time></trkpt><trkpt lat="44.2300327" lon="11.0595937"><ele>254.0</ele><time>2026-04-25T16:48:24.07Z</time></trkpt><trkpt lat="44.2300366" lon="11.0597176"><ele>253.99999999999997</ele><time>2026-04-25T16:48:26.078Z</time></trkpt><trkpt lat="44.2300529" lon="11.0598389"><ele>253.99999999999997</ele><time>2026-04-25T16:48:28.075Z</time></trkpt><trkpt lat="44.2300398" lon="11.0599576"><ele>254.0</ele><time>2026-04-25T16:48:30.083Z</time></trkpt><trkpt lat="44.2300303" lon="11.0600859"><ele>254.0</ele><time>2026-04-25T16:48:32.08Z</time></trkpt><trkpt lat="44.2300372" lon="11.0602191"><ele>255.0</ele><time>2026-04-25T16:48:34.084Z</time></trkpt><trkpt lat="44.230045" lon="11.0603488"><ele>255.99999999999997</ele><time>2026-04-25T16:48:36.078Z</time></trkpt><trkpt lat="44.2300371" lon="11.0604728"><ele>257.0</ele><time>2026-04-25T16:48:38.091Z</time></trkpt><trkpt lat="44.2300268" lon="11.0606174"><ele>258.0</ele><time>2026-04-25T16:48:40.077Z</time></trkpt><trkpt lat="44.2300049" lon="11.0607278"><ele>259.0</ele><time>2026-04-25T16:48:42.083Z</time></trkpt><trkpt lat="44.2299571" lon="11.0608266"><ele>261.2</ele><time>2026-04-25T16:48:44.073Z</time></trkpt><trkpt lat="44.2299099" lon="11.0609367"><ele>263.4</ele><time>2026-04-25T16:48:46.092Z</time></trkpt><trkpt lat="44.2298456" lon="11.0610264"><ele>265.6</ele><time>2026-04-25T16:48:48.09Z</time></trkpt><trkpt lat="44.2297706" lon="11.0611092"><ele>267.8</ele><time>2026-04-25T16:48:50.083Z</time></trkpt><trkpt lat="44.2296945" lon="11.0611957"><ele>270.0</ele><time>2026-04-25T16:48:52.081Z</time></trkpt><trkpt lat="44.2296315" lon="11.0612723"><ele>266.4</ele><time>2026-04-25T16:48:54.08Z</time></trkpt><trkpt lat="44.2295626" lon="11.0613487"><ele>262.8</ele><time>2026-04-25T16:48:56.078Z</time></trkpt><trkpt lat="44.2295163" lon="11.0614582"><ele>259.2</ele><time>2026-04-25T16:48:58.082Z</time></trkpt><trkpt lat="44.2294648" lon="11.061519"><ele>255.6</ele><time>2026-04-25T16:49:00.078Z</time></trkpt><trkpt lat="44.2294324" lon="11.0616481"><ele>252.0</ele><time>2026-04-25T16:49:02.109Z</time></trkpt><trkpt lat="44.2294468" lon="11.0617997"><ele>252.0</ele><time>2026-04-25T16:49:04.074Z</time></trkpt><trkpt lat="44.2294826" lon="11.0619407"><ele>252.0</ele><time>2026-04-25T16:49:06.081Z</time></trkpt><trkpt lat="44.2295128" lon="11.0620731"><ele>252.0</ele><time>2026-04-25T16:49:08.084Z</time></trkpt><trkpt lat="44.2295782" lon="11.0622115"><ele>252.0</ele><time>2026-04-25T16:49:10.081Z</time></trkpt><trkpt lat="44.2296257" lon="11.062319"><ele>252.0</ele><time>2026-04-25T16:49:12.081Z</time></trkpt><trkpt lat="44.2296661" lon="11.0624286"><ele>251.8</ele><time>2026-04-25T16:49:14.081Z</time></trkpt><trkpt lat="44.2297196" lon="11.0625501"><ele>251.6</ele><time>2026-04-25T16:49:16.08Z</time></trkpt><trkpt lat="44.2297633" lon="11.0626788"><ele>251.40000000000003</ele><time>2026-04-25T16:49:18.08Z</time></trkpt><trkpt lat="44.2298267" lon="11.0627896"><ele>251.20000000000002</ele><time>2026-04-25T16:49:20.083Z</time></trkpt><trkpt lat="44.2298964" lon="11.0628957"><ele>251.0</ele><time>2026-04-25T16:49:22.081Z</time></trkpt><trkpt lat="44.2299576" lon="11.0629924"><ele>253.8</ele><time>2026-04-25T16:49:24.079Z</time></trkpt><trkpt lat="44.2300004" lon="11.0630993"><ele>256.6</ele><time>2026-04-25T16:49:26.08Z</time></trkpt><trkpt lat="44.2300586" lon="11.0632237"><ele>259.4</ele><time>2026-04-25T16:49:28.077Z</time></trkpt><trkpt lat="44.2300808" lon="11.063335"><ele>262.2</ele><time>2026-04-25T16:49:30.073Z</time></trkpt><trkpt lat="44.2301263" lon="11.063469"><ele>265.0</ele><time>2026-04-25T16:49:32.08Z</time></trkpt><trkpt lat="44.2301965" lon="11.0635821"><ele>265.0</ele><time>2026-04-25T16:49:34.087Z</time></trkpt><trkpt lat="44.2302979" lon="11.0636556"><ele>265.0</ele><time>2026-04-25T16:49:36.083Z</time></trkpt><trkpt lat="44.2303607" lon="11.0636875"><ele>265.0</ele><time>2026-04-25T16:49:37.086Z</time></trkpt><trkpt lat="44.2304596" lon="11.0637541"><ele>265.0</ele><time>2026-04-25T16:49:39.08Z</time></trkpt><trkpt lat="44.2305759" lon="11.0638103"><ele>265.0</ele><time>2026-04-25T16:49:41.076Z</time></trkpt><trkpt lat="44.2306948" lon="11.0638867"><ele>264.8</ele><time>2026-04-25T16:49:43.082Z</time></trkpt><trkpt lat="44.2307555" lon="11.0639275"><ele>264.6</ele><time>2026-04-25T16:49:44.094Z</time></trkpt><trkpt lat="44.2308585" lon="11.0640048"><ele>264.4</ele><time>2026-04-25T16:49:46.09Z</time></trkpt><trkpt lat="44.2309618" lon="11.0640892"><ele>264.2</ele><time>2026-04-25T16:49:48.074Z</time></trkpt><trkpt lat="44.231039" lon="11.0641845"><ele>264.0</ele><time>2026-04-25T16:49:50.078Z</time></trkpt><trkpt lat="44.2311405" lon="11.0642906"><ele>264.0</ele><time>2026-04-25T16:49:52.087Z</time></trkpt><trkpt lat="44.2312221" lon="11.0644095"><ele>264.0</ele><time>2026-04-25T16:49:54.087Z</time></trkpt><trkpt lat="44.2313046" lon="11.0645301"><ele>264.0</ele><time>2026-04-25T16:49:56.083Z</time></trkpt><trkpt lat="44.2313794" lon="11.0646654"><ele>264.0</ele><time>2026-04-25T16:49:58.092Z</time></trkpt><trkpt lat="44.2314142" lon="11.0647394"><ele>264.0</ele><time>2026-04-25T16:49:59.087Z</time></trkpt><trkpt lat="44.2314791" lon="11.0648826"><ele>264.4</ele><time>2026-04-25T16:50:01.081Z</time></trkpt><trkpt lat="44.2315154" lon="11.0649547"><ele>264.79999999999995</ele><time>2026-04-25T16:50:02.089Z</time></trkpt><trkpt lat="44.2315814" lon="11.0650899"><ele>265.20000000000005</ele><time>2026-04-25T16:50:04.078Z</time></trkpt><trkpt lat="44.2316168" lon="11.0651636"><ele>265.6</ele><time>2026-04-25T16:50:05.076Z</time></trkpt><trkpt lat="44.2316779" lon="11.0652846"><ele>266.0</ele><time>2026-04-25T16:50:07.079Z</time></trkpt><trkpt lat="44.2317411" lon="11.0654247"><ele>266.0</ele><time>2026-04-25T16:50:09.085Z</time></trkpt><trkpt lat="44.2317739" lon="11.0655013"><ele>266.0</ele><time>2026-04-25T16:50:10.08Z</time></trkpt><trkpt lat="44.2318352" lon="11.0656458"><ele>266.0</ele><time>2026-04-25T16:50:12.075Z</time></trkpt><trkpt lat="44.2318715" lon="11.065722"><ele>266.0</ele><time>2026-04-25T16:50:13.08Z</time></trkpt><trkpt lat="44.23194" lon="11.0658652"><ele>266.0</ele><time>2026-04-25T16:50:15.077Z</time></trkpt><trkpt lat="44.2319996" lon="11.0660098"><ele>265.0</ele><time>2026-04-25T16:50:17.08Z</time></trkpt><trkpt lat="44.2320337" lon="11.0660865"><ele>264.0</ele><time>2026-04-25T16:50:18.08Z</time></trkpt><trkpt lat="44.232088" lon="11.0662342"><ele>263.0</ele><time>2026-04-25T16:50:20.078Z</time></trkpt><trkpt lat="44.2321316" lon="11.0663684"><ele>262.0</ele><time>2026-04-25T16:50:22.075Z</time></trkpt><trkpt lat="44.2321901" lon="11.066516"><ele>261.0</ele><time>2026-04-25T16:50:24.075Z</time></trkpt><trkpt lat="44.2322313" lon="11.0666381"><ele>260.7142857142857</ele><time>2026-04-25T16:50:26.077Z</time></trkpt><trkpt lat="44.2322646" lon="11.0667164"><ele>260.42857142857144</ele><time>2026-04-25T16:50:27.092Z</time></trkpt><trkpt lat="44.2323051" lon="11.066801"><ele>260.1428571428571</ele><time>2026-04-25T16:50:28.081Z</time></trkpt><trkpt lat="44.2323484" lon="11.0668847"><ele>259.8571428571429</ele><time>2026-04-25T16:50:29.078Z</time></trkpt><trkpt lat="44.2323887" lon="11.0669664"><ele>259.57142857142856</ele><time>2026-04-25T16:50:30.082Z</time></trkpt><trkpt lat="44.2324296" lon="11.0670489"><ele>259.2857142857143</ele><time>2026-04-25T16:50:31.081Z</time></trkpt><trkpt lat="44.2324729" lon="11.0671282"><ele>259.0</ele><time>2026-04-25T16:50:32.085Z</time></trkpt><trkpt lat="44.2325136" lon="11.0672151"><ele>260.0</ele><time>2026-04-25T16:50:33.074Z</time></trkpt><trkpt lat="44.2325557" lon="11.0672938"><ele>261.0</ele><time>2026-04-25T16:50:34.082Z</time></trkpt><trkpt lat="44.2325993" lon="11.0673716"><ele>262.0</ele><time>2026-04-25T16:50:35.076Z</time></trkpt><trkpt lat="44.2326697" lon="11.0675022"><ele>263.0</ele><time>2026-04-25T16:50:37.081Z</time></trkpt><trkpt lat="44.2327028" lon="11.0675774"><ele>264.0</ele><time>2026-04-25T16:50:38.08Z</time></trkpt><trkpt lat="44.2327742" lon="11.0677132"><ele>265.0</ele><time>2026-04-25T16:50:40.083Z</time></trkpt><trkpt lat="44.2328192" lon="11.0677888"><ele>265.0</ele><time>2026-04-25T16:50:41.08Z</time></trkpt><trkpt lat="44.2328912" lon="11.0679207"><ele>265.0</ele><time>2026-04-25T16:50:43.078Z</time></trkpt><trkpt lat="44.2329727" lon="11.0680347"><ele>265.0</ele><time>2026-04-25T16:50:45.087Z</time></trkpt><trkpt lat="44.233077" lon="11.0680952"><ele>265.0</ele><time>2026-04-25T16:50:47.078Z</time></trkpt><trkpt lat="44.2331453" lon="11.0681129"><ele>265.0</ele><time>2026-04-25T16:50:48.078Z</time></trkpt><trkpt lat="44.2332086" lon="11.0681201"><ele>265.8</ele><time>2026-04-25T16:50:49.08Z</time></trkpt><trkpt lat="44.2333529" lon="11.0681447"><ele>266.6</ele><time>2026-04-25T16:50:51.077Z</time></trkpt><trkpt lat="44.2334809" lon="11.0682007"><ele>267.4</ele><time>2026-04-25T16:50:53.077Z</time></trkpt><trkpt lat="44.2335541" lon="11.0682383"><ele>268.2</ele><time>2026-04-25T16:50:54.08Z</time></trkpt><trkpt lat="44.2336207" lon="11.0682685"><ele>269.0</ele><time>2026-04-25T16:50:55.075Z</time></trkpt><trkpt lat="44.2336809" lon="11.0683216"><ele>269.0</ele><time>2026-04-25T16:50:56.08Z</time></trkpt><trkpt lat="44.2337466" lon="11.0684522"><ele>269.0</ele><time>2026-04-25T16:50:58.079Z</time></trkpt><trkpt lat="44.2337791" lon="11.0685358"><ele>269.0</ele><time>2026-04-25T16:50:59.078Z</time></trkpt><trkpt lat="44.2337827" lon="11.0686332"><ele>269.0</ele><time>2026-04-25T16:51:00.082Z</time></trkpt><trkpt lat="44.2338196" lon="11.0687869"><ele>269.0</ele><time>2026-04-25T16:51:02.076Z</time></trkpt><trkpt lat="44.2338541" lon="11.0689432"><ele>269.0</ele><time>2026-04-25T16:51:04.086Z</time></trkpt><trkpt lat="44.2338956" lon="11.069037"><ele>269.0</ele><time>2026-04-25T16:51:05.076Z</time></trkpt><trkpt lat="44.2339907" lon="11.0691681"><ele>269.0</ele><time>2026-04-25T16:51:07.078Z</time></trkpt><trkpt lat="44.2340563" lon="11.0692121"><ele>269.0</ele><time>2026-04-25T16:51:08.077Z</time></trkpt><trkpt lat="44.2341139" lon="11.0692484"><ele>269.0</ele><time>2026-04-25T16:51:09.075Z</time></trkpt><trkpt lat="44.234184" lon="11.0692839"><ele>269.0</ele><time>2026-04-25T16:51:10.1Z</time></trkpt><trkpt lat="44.2342564" lon="11.069312"><ele>267.8</ele><time>2026-04-25T16:51:11.075Z</time></trkpt><trkpt lat="44.2343361" lon="11.0693451"><ele>266.59999999999997</ele><time>2026-04-25T16:51:12.078Z</time></trkpt><trkpt lat="44.2344037" lon="11.069373"><ele>265.4</ele><time>2026-04-25T16:51:13.079Z</time></trkpt><trkpt lat="44.2344823" lon="11.069392"><ele>264.2</ele><time>2026-04-25T16:51:14.093Z</time></trkpt><trkpt lat="44.2345596" lon="11.0694179"><ele>263.0</ele><time>2026-04-25T16:51:15.081Z</time></trkpt><trkpt lat="44.2346979" lon="11.0694721"><ele>263.0</ele><time>2026-04-25T16:51:17.081Z</time></trkpt><trkpt lat="44.2347658" lon="11.0694857"><ele>263.0</ele><time>2026-04-25T16:51:18.083Z</time></trkpt><trkpt lat="44.234899" lon="11.0695275"><ele>263.0</ele><time>2026-04-25T16:51:20.08Z</time></trkpt><trkpt lat="44.234997" lon="11.069536"><ele>263.0</ele><time>2026-04-25T16:51:21.08Z</time></trkpt><trkpt lat="44.2350831" lon="11.0695519"><ele>263.0</ele><time>2026-04-25T16:51:22.08Z</time></trkpt><trkpt lat="44.2351679" lon="11.069567"><ele>264.0</ele><time>2026-04-25T16:51:23.082Z</time></trkpt><trkpt lat="44.2352557" lon="11.0695811"><ele>265.0</ele><time>2026-04-25T16:51:24.082Z</time></trkpt><trkpt lat="44.2353472" lon="11.0695897"><ele>266.0</ele><time>2026-04-25T16:51:25.088Z</time></trkpt><trkpt lat="44.2354312" lon="11.0696059"><ele>267.0</ele><time>2026-04-25T16:51:26.08Z</time></trkpt><trkpt lat="44.2355168" lon="11.0696247"><ele>268.0</ele><time>2026-04-25T16:51:27.077Z</time></trkpt><trkpt lat="44.2355976" lon="11.0696419"><ele>269.0</ele><time>2026-04-25T16:51:28.079Z</time></trkpt><trkpt lat="44.2356712" lon="11.0696585"><ele>269.5</ele><time>2026-04-25T16:51:29.079Z</time></trkpt><trkpt lat="44.2357502" lon="11.0696833"><ele>270.0</ele><time>2026-04-25T16:51:30.077Z</time></trkpt><trkpt lat="44.2358314" lon="11.0696887"><ele>270.5</ele><time>2026-04-25T16:51:31.08Z</time></trkpt><trkpt lat="44.2359084" lon="11.0696905"><ele>271.0</ele><time>2026-04-25T16:51:32.09Z</time></trkpt><trkpt lat="44.2359857" lon="11.069693"><ele>271.5</ele><time>2026-04-25T16:51:33.079Z</time></trkpt><trkpt lat="44.2360588" lon="11.0696974"><ele>272.0</ele><time>2026-04-25T16:51:34.078Z</time></trkpt><trkpt lat="44.2361333" lon="11.069701"><ele>271.99999999999994</ele><time>2026-04-25T16:51:35.085Z</time></trkpt><trkpt lat="44.2362108" lon="11.0697094"><ele>272.0</ele><time>2026-04-25T16:51:36.089Z</time></trkpt><trkpt lat="44.2362808" lon="11.0697212"><ele>272.0</ele><time>2026-04-25T16:51:37.082Z</time></trkpt><trkpt lat="44.2363488" lon="11.0697441"><ele>272.0</ele><time>2026-04-25T16:51:38.08Z</time></trkpt><trkpt lat="44.2364203" lon="11.0697664"><ele>272.0</ele><time>2026-04-25T16:51:39.081Z</time></trkpt><trkpt lat="44.236484" lon="11.0697954"><ele>271.99999999999994</ele><time>2026-04-25T16:51:40.08Z</time></trkpt><trkpt lat="44.2365494" lon="11.0698329"><ele>272.0</ele><time>2026-04-25T16:51:41.073Z</time></trkpt><trkpt lat="44.2366148" lon="11.0698641"><ele>271.99999999999994</ele><time>2026-04-25T16:51:42.077Z</time></trkpt><trkpt lat="44.2366794" lon="11.0699017"><ele>272.0</ele><time>2026-04-25T16:51:43.076Z</time></trkpt><trkpt lat="44.2367506" lon="11.0699296"><ele>272.0</ele><time>2026-04-25T16:51:44.085Z</time></trkpt><trkpt lat="44.2368161" lon="11.0699578"><ele>272.0</ele><time>2026-04-25T16:51:45.076Z</time></trkpt><trkpt lat="44.2368853" lon="11.0699979"><ele>272.0</ele><time>2026-04-25T16:51:46.078Z</time></trkpt><trkpt lat="44.2369615" lon="11.0700333"><ele>271.99999999999994</ele><time>2026-04-25T16:51:47.089Z</time></trkpt><trkpt lat="44.237033" lon="11.0700638"><ele>272.0</ele><time>2026-04-25T16:51:48.081Z</time></trkpt><trkpt lat="44.2371124" lon="11.0700874"><ele>268.83333333333337</ele><time>2026-04-25T16:51:49.082Z</time></trkpt><trkpt lat="44.2372028" lon="11.0701133"><ele>265.6666666666667</ele><time>2026-04-25T16:51:50.076Z</time></trkpt><trkpt lat="44.2372805" lon="11.070148"><ele>262.5</ele><time>2026-04-25T16:51:51.086Z</time></trkpt><trkpt lat="44.2373573" lon="11.0701776"><ele>259.3333333333333</ele><time>2026-04-25T16:51:52.081Z</time></trkpt><trkpt lat="44.2374359" lon="11.0701885"><ele>256.16666666666663</ele><time>2026-04-25T16:51:53.077Z</time></trkpt><trkpt lat="44.237519" lon="11.0701927"><ele>253.0</ele><time>2026-04-25T16:51:54.085Z</time></trkpt><trkpt lat="44.2375974" lon="11.0701694"><ele>252.49999999999997</ele><time>2026-04-25T16:51:55.08Z</time></trkpt><trkpt lat="44.2376798" lon="11.0701441"><ele>252.0</ele><time>2026-04-25T16:51:56.078Z</time></trkpt><trkpt lat="44.2377532" lon="11.0701209"><ele>251.5</ele><time>2026-04-25T16:51:57.072Z</time></trkpt><trkpt lat="44.2378381" lon="11.0701021"><ele>251.0</ele><time>2026-04-25T16:51:58.081Z</time></trkpt><trkpt lat="44.2379206" lon="11.0701208"><ele>250.49999999999997</ele><time>2026-04-25T16:51:59.122Z</time></trkpt><trkpt lat="44.2379959" lon="11.0701725"><ele>250.0</ele><time>2026-04-25T16:52:00.071Z</time></trkpt><trkpt lat="44.2380613" lon="11.0702534"><ele>250.0</ele><time>2026-04-25T16:52:01.074Z</time></trkpt><trkpt lat="44.2381174" lon="11.0703667"><ele>250.0</ele><time>2026-04-25T16:52:02.082Z</time></trkpt><trkpt lat="44.2381584" lon="11.0704778"><ele>250.0</ele><time>2026-04-25T16:52:03.079Z</time></trkpt><trkpt lat="44.2382035" lon="11.0705906"><ele>250.0</ele><time>2026-04-25T16:52:04.075Z</time></trkpt><trkpt lat="44.2382513" lon="11.0707051"><ele>250.0</ele><time>2026-04-25T16:52:05.076Z</time></trkpt><trkpt lat="44.2383076" lon="11.0708226"><ele>248.4</ele><time>2026-04-25T16:52:06.072Z</time></trkpt><trkpt lat="44.2383557" lon="11.0709392"><ele>246.8</ele><time>2026-04-25T16:52:07.079Z</time></trkpt><trkpt lat="44.2384076" lon="11.0710698"><ele>245.2</ele><time>2026-04-25T16:52:08.076Z</time></trkpt><trkpt lat="44.2384517" lon="11.0711985"><ele>243.6</ele><time>2026-04-25T16:52:09.075Z</time></trkpt><trkpt lat="44.238509" lon="11.0713284"><ele>242.0</ele><time>2026-04-25T16:52:10.079Z</time></trkpt><trkpt lat="44.2385739" lon="11.071466"><ele>242.0</ele><time>2026-04-25T16:52:11.079Z</time></trkpt><trkpt lat="44.2386402" lon="11.0715913"><ele>242.0</ele><time>2026-04-25T16:52:12.086Z</time></trkpt><trkpt lat="44.2387124" lon="11.0717116"><ele>242.0</ele><time>2026-04-25T16:52:13.073Z</time></trkpt><trkpt lat="44.2388214" lon="11.0717716"><ele>242.0</ele><time>2026-04-25T16:52:14.068Z</time></trkpt><trkpt lat="44.2389196" lon="11.0718249"><ele>242.0</ele><time>2026-04-25T16:52:15.084Z</time></trkpt><trkpt lat="44.2390345" lon="11.0718689"><ele>240.5</ele><time>2026-04-25T16:52:16.074Z</time></trkpt><trkpt lat="44.2391519" lon="11.0718437"><ele>239.0</ele><time>2026-04-25T16:52:17.08Z</time></trkpt><trkpt lat="44.2392835" lon="11.0718249"><ele>237.5</ele><time>2026-04-25T16:52:18.075Z</time></trkpt><trkpt lat="44.2394082" lon="11.0717877"><ele>236.0</ele><time>2026-04-25T16:52:19.071Z</time></trkpt><trkpt lat="44.2395266" lon="11.0717523"><ele>236.0</ele><time>2026-04-25T16:52:20.073Z</time></trkpt><trkpt lat="44.2396462" lon="11.071722"><ele>236.0</ele><time>2026-04-25T16:52:21.078Z</time></trkpt><trkpt lat="44.2397689" lon="11.0716874"><ele>236.0</ele><time>2026-04-25T16:52:22.073Z</time></trkpt><trkpt lat="44.2398745" lon="11.0716651"><ele>236.0</ele><time>2026-04-25T16:52:23.078Z</time></trkpt><trkpt lat="44.2399742" lon="11.0716713"><ele>236.00000000000003</ele><time>2026-04-25T16:52:24.078Z</time></trkpt><trkpt lat="44.2400744" lon="11.0716902"><ele>236.0</ele><time>2026-04-25T16:52:25.072Z</time></trkpt><trkpt lat="44.240156" lon="11.0717271"><ele>236.0</ele><time>2026-04-25T16:52:26.079Z</time></trkpt><trkpt lat="44.2402401" lon="11.0717746"><ele>236.0</ele><time>2026-04-25T16:52:27.08Z</time></trkpt><trkpt lat="44.2403137" lon="11.0718286"><ele>236.00000000000003</ele><time>2026-04-25T16:52:28.072Z</time></trkpt><trkpt lat="44.2403794" lon="11.0718918"><ele>236.0</ele><time>2026-04-25T16:52:29.135Z</time></trkpt><trkpt lat="44.2404353" lon="11.0719642"><ele>236.0</ele><time>2026-04-25T16:52:30.099Z</time></trkpt><trkpt lat="44.2404887" lon="11.0720444"><ele>236.0</ele><time>2026-04-25T16:52:31.082Z</time></trkpt><trkpt lat="44.2405299" lon="11.0721288"><ele>236.0</ele><time>2026-04-25T16:52:32.096Z</time></trkpt><trkpt lat="44.2405776" lon="11.0722219"><ele>236.0</ele><time>2026-04-25T16:52:33.073Z</time></trkpt><trkpt lat="44.2406151" lon="11.0722995"><ele>236.0</ele><time>2026-04-25T16:52:34.071Z</time></trkpt><trkpt lat="44.2406453" lon="11.0723895"><ele>236.0</ele><time>2026-04-25T16:52:35.075Z</time></trkpt><trkpt lat="44.2406746" lon="11.072476"><ele>236.0</ele><time>2026-04-25T16:52:36.082Z</time></trkpt><trkpt lat="44.2406984" lon="11.0725756"><ele>235.71428571428572</ele><time>2026-04-25T16:52:37.091Z</time></trkpt><trkpt lat="44.2407394" lon="11.0726502"><ele>235.42857142857144</ele><time>2026-04-25T16:52:38.072Z</time></trkpt><trkpt lat="44.2407888" lon="11.0727323"><ele>235.14285714285717</ele><time>2026-04-25T16:52:39.092Z</time></trkpt><trkpt lat="44.2408326" lon="11.0728048"><ele>234.85714285714286</ele><time>2026-04-25T16:52:40.077Z</time></trkpt><trkpt lat="44.2408884" lon="11.0728851"><ele>234.5714285714286</ele><time>2026-04-25T16:52:41.072Z</time></trkpt><trkpt lat="44.2409536" lon="11.0729443"><ele>234.2857142857143</ele><time>2026-04-25T16:52:42.072Z</time></trkpt><trkpt lat="44.2410063" lon="11.0730137"><ele>234.0</ele><time>2026-04-25T16:52:43.076Z</time></trkpt><trkpt lat="44.2410685" lon="11.0730672"><ele>234.0</ele><time>2026-04-25T16:52:44.081Z</time></trkpt><trkpt lat="44.2411246" lon="11.0731189"><ele>234.0</ele><time>2026-04-25T16:52:45.079Z</time></trkpt><trkpt lat="44.2411834" lon="11.0731748"><ele>234.0</ele><time>2026-04-25T16:52:46.087Z</time></trkpt><trkpt lat="44.2412602" lon="11.0732333"><ele>234.0</ele><time>2026-04-25T16:52:47.079Z</time></trkpt><trkpt lat="44.2413314" lon="11.0733024"><ele>234.0</ele><time>2026-04-25T16:52:48.082Z</time></trkpt><trkpt lat="44.241379" lon="11.07339"><ele>234.0</ele><time>2026-04-25T16:52:49.077Z</time></trkpt><trkpt lat="44.2414814" lon="11.0734981"><ele>234.2</ele><time>2026-04-25T16:52:51.082Z</time></trkpt><trkpt lat="44.2415391" lon="11.0735766"><ele>234.39999999999998</ele><time>2026-04-25T16:52:52.078Z</time></trkpt><trkpt lat="44.2416528" lon="11.0737027"><ele>234.6</ele><time>2026-04-25T16:52:54.076Z</time></trkpt><trkpt lat="44.2417058" lon="11.0737705"><ele>234.8</ele><time>2026-04-25T16:52:55.08Z</time></trkpt><trkpt lat="44.2417625" lon="11.0738308"><ele>235.0</ele><time>2026-04-25T16:52:56.078Z</time></trkpt><trkpt lat="44.2418563" lon="11.0739469"><ele>234.99999999999997</ele><time>2026-04-25T16:52:58.087Z</time></trkpt><trkpt lat="44.2419088" lon="11.0740069"><ele>235.0</ele><time>2026-04-25T16:52:59.082Z</time></trkpt><trkpt lat="44.2419587" lon="11.0740699"><ele>235.0</ele><time>2026-04-25T16:53:00.088Z</time></trkpt><trkpt lat="44.2420458" lon="11.0741912"><ele>235.0</ele><time>2026-04-25T16:53:02.068Z</time></trkpt><trkpt lat="44.2420914" lon="11.0742671"><ele>234.99999999999997</ele><time>2026-04-25T16:53:03.082Z</time></trkpt><trkpt lat="44.2421576" lon="11.0743227"><ele>235.0</ele><time>2026-04-25T16:53:04.074Z</time></trkpt><trkpt lat="44.2422426" lon="11.0744533"><ele>235.33333333333331</ele><time>2026-04-25T16:53:06.078Z</time></trkpt><trkpt lat="44.2423045" lon="11.0745119"><ele>235.66666666666666</ele><time>2026-04-25T16:53:07.073Z</time></trkpt><trkpt lat="44.2423571" lon="11.0745789"><ele>236.0</ele><time>2026-04-25T16:53:08.075Z</time></trkpt><trkpt lat="44.2423834" lon="11.0746976"><ele>236.33333333333331</ele><time>2026-04-25T16:53:10.077Z</time></trkpt><trkpt lat="44.2424262" lon="11.0747677"><ele>236.66666666666666</ele><time>2026-04-25T16:53:11.078Z</time></trkpt><trkpt lat="44.2424925" lon="11.0748903"><ele>237.0</ele><time>2026-04-25T16:53:13.077Z</time></trkpt><trkpt lat="44.2425176" lon="11.0750504"><ele>237.0</ele><time>2026-04-25T16:53:15.087Z</time></trkpt><trkpt lat="44.2425421" lon="11.075145"><ele>237.0</ele><time>2026-04-25T16:53:16.08Z</time></trkpt><trkpt lat="44.2425514" lon="11.0752406"><ele>237.0</ele><time>2026-04-25T16:53:17.075Z</time></trkpt><trkpt lat="44.2425517" lon="11.0753323"><ele>237.0</ele><time>2026-04-25T16:53:18.086Z</time></trkpt><trkpt lat="44.2425487" lon="11.0755014"><ele>237.0</ele><time>2026-04-25T16:53:20.084Z</time></trkpt><trkpt lat="44.2425452" lon="11.0756374"><ele>237.0</ele><time>2026-04-25T16:53:22.084Z</time></trkpt><trkpt lat="44.2425427" lon="11.075779"><ele>236.6</ele><time>2026-04-25T16:53:24.072Z</time></trkpt><trkpt lat="44.2425359" lon="11.0759348"><ele>236.2</ele><time>2026-04-25T16:53:26.089Z</time></trkpt><trkpt lat="44.2425551" lon="11.0760878"><ele>235.8</ele><time>2026-04-25T16:53:28.078Z</time></trkpt><trkpt lat="44.2426024" lon="11.0762526"><ele>235.4</ele><time>2026-04-25T16:53:30.11Z</time></trkpt><trkpt lat="44.2426197" lon="11.0763397"><ele>235.0</ele><time>2026-04-25T16:53:31.082Z</time></trkpt><trkpt lat="44.2426688" lon="11.0765166"><ele>234.49999999999997</ele><time>2026-04-25T16:53:33.08Z</time></trkpt><trkpt lat="44.2426797" lon="11.0766109"><ele>234.0</ele><time>2026-04-25T16:53:34.075Z</time></trkpt><trkpt lat="44.2427263" lon="11.0766816"><ele>233.5</ele><time>2026-04-25T16:53:35.077Z</time></trkpt><trkpt lat="44.2427978" lon="11.0768442"><ele>233.0</ele><time>2026-04-25T16:53:37.084Z</time></trkpt><trkpt lat="44.2428373" lon="11.0769232"><ele>232.49999999999997</ele><time>2026-04-25T16:53:38.077Z</time></trkpt><trkpt lat="44.2428871" lon="11.0770122"><ele>232.0</ele><time>2026-04-25T16:53:39.076Z</time></trkpt><trkpt lat="44.2429304" lon="11.0771026"><ele>232.00000000000003</ele><time>2026-04-25T16:53:40.073Z</time></trkpt><trkpt lat="44.2429569" lon="11.0772049"><ele>232.0</ele><time>2026-04-25T16:53:41.072Z</time></trkpt><trkpt lat="44.242966" lon="11.0772948"><ele>232.00000000000003</ele><time>2026-04-25T16:53:42.076Z</time></trkpt><trkpt lat="44.2429738" lon="11.0773839"><ele>232.00000000000003</ele><time>2026-04-25T16:53:43.079Z</time></trkpt><trkpt lat="44.2429819" lon="11.077476"><ele>232.0</ele><time>2026-04-25T16:53:44.078Z</time></trkpt><trkpt lat="44.2429922" lon="11.0775718"><ele>232.00000000000003</ele><time>2026-04-25T16:53:45.085Z</time></trkpt><trkpt lat="44.2430043" lon="11.0776699"><ele>232.00000000000003</ele><time>2026-04-25T16:53:46.077Z</time></trkpt><trkpt lat="44.243018" lon="11.0777564"><ele>231.42857142857144</ele><time>2026-04-25T16:53:47.086Z</time></trkpt><trkpt lat="44.2430246" lon="11.0778508"><ele>230.85714285714286</ele><time>2026-04-25T16:53:48.075Z</time></trkpt><trkpt lat="44.2430311" lon="11.0779434"><ele>230.28571428571428</ele><time>2026-04-25T16:53:49.079Z</time></trkpt><trkpt lat="44.2430418" lon="11.0780446"><ele>229.71428571428572</ele><time>2026-04-25T16:53:50.076Z</time></trkpt><trkpt lat="44.2430485" lon="11.0781403"><ele>229.1428571428571</ele><time>2026-04-25T16:53:51.075Z</time></trkpt><trkpt lat="44.2430531" lon="11.0782338"><ele>228.57142857142856</ele><time>2026-04-25T16:53:52.082Z</time></trkpt><trkpt lat="44.2430535" lon="11.0783328"><ele>228.0</ele><time>2026-04-25T16:53:53.076Z</time></trkpt><trkpt lat="44.2430442" lon="11.0784996"><ele>227.5</ele><time>2026-04-25T16:53:55.074Z</time></trkpt><trkpt lat="44.243025" lon="11.0786577"><ele>227.0</ele><time>2026-04-25T16:53:57.079Z</time></trkpt><trkpt lat="44.2429803" lon="11.0788176"><ele>226.5</ele><time>2026-04-25T16:53:59.072Z</time></trkpt><trkpt lat="44.2429368" lon="11.0789019"><ele>226.0</ele><time>2026-04-25T16:54:00.078Z</time></trkpt><trkpt lat="44.2428625" lon="11.0790634"><ele>226.0</ele><time>2026-04-25T16:54:02.075Z</time></trkpt><trkpt lat="44.2428252" lon="11.07915"><ele>226.0</ele><time>2026-04-25T16:54:03.078Z</time></trkpt><trkpt lat="44.2427949" lon="11.0792592"><ele>226.0</ele><time>2026-04-25T16:54:04.081Z</time></trkpt><trkpt lat="44.2427636" lon="11.0793487"><ele>226.0</ele><time>2026-04-25T16:54:05.075Z</time></trkpt><trkpt lat="44.2427379" lon="11.0794481"><ele>226.0</ele><time>2026-04-25T16:54:06.075Z</time></trkpt><trkpt lat="44.2427186" lon="11.0795458"><ele>226.0</ele><time>2026-04-25T16:54:07.077Z</time></trkpt><trkpt lat="44.2427017" lon="11.0796383"><ele>226.0</ele><time>2026-04-25T16:54:08.075Z</time></trkpt><trkpt lat="44.2426889" lon="11.0797336"><ele>226.0</ele><time>2026-04-25T16:54:09.071Z</time></trkpt><trkpt lat="44.2426822" lon="11.0798228"><ele>226.00000000000003</ele><time>2026-04-25T16:54:10.084Z</time></trkpt><trkpt lat="44.24267" lon="11.079917"><ele>226.00000000000003</ele><time>2026-04-25T16:54:11.078Z</time></trkpt><trkpt lat="44.2426532" lon="11.080073"><ele>226.0</ele><time>2026-04-25T16:54:13.071Z</time></trkpt><trkpt lat="44.2426411" lon="11.0802207"><ele>226.0</ele><time>2026-04-25T16:54:15.076Z</time></trkpt><trkpt lat="44.2426413" lon="11.0803661"><ele>226.4</ele><time>2026-04-25T16:54:17.076Z</time></trkpt><trkpt lat="44.2426138" lon="11.0805056"><ele>226.8</ele><time>2026-04-25T16:54:19.085Z</time></trkpt><trkpt lat="44.2425814" lon="11.080652"><ele>227.20000000000002</ele><time>2026-04-25T16:54:21.076Z</time></trkpt><trkpt lat="44.2425424" lon="11.0808133"><ele>227.60000000000002</ele><time>2026-04-25T16:54:23.076Z</time></trkpt><trkpt lat="44.2425098" lon="11.0809625"><ele>228.0</ele><time>2026-04-25T16:54:25.075Z</time></trkpt><trkpt lat="44.2424411" lon="11.0811006"><ele>229.2</ele><time>2026-04-25T16:54:27.074Z</time></trkpt><trkpt lat="44.2424027" lon="11.081248"><ele>230.4</ele><time>2026-04-25T16:54:29.085Z</time></trkpt><trkpt lat="44.2423719" lon="11.0814181"><ele>231.59999999999997</ele><time>2026-04-25T16:54:31.083Z</time></trkpt><trkpt lat="44.2423357" lon="11.0815702"><ele>232.79999999999998</ele><time>2026-04-25T16:54:33.085Z</time></trkpt><trkpt lat="44.2423306" lon="11.0816643"><ele>234.0</ele><time>2026-04-25T16:54:34.077Z</time></trkpt><trkpt lat="44.2423156" lon="11.0817504"><ele>234.85714285714286</ele><time>2026-04-25T16:54:35.079Z</time></trkpt><trkpt lat="44.2423007" lon="11.0818407"><ele>235.71428571428572</ele><time>2026-04-25T16:54:36.084Z</time></trkpt><trkpt lat="44.2422826" lon="11.0819423"><ele>236.57142857142858</ele><time>2026-04-25T16:54:37.082Z</time></trkpt><trkpt lat="44.2422631" lon="11.0820362"><ele>237.42857142857144</ele><time>2026-04-25T16:54:38.081Z</time></trkpt><trkpt lat="44.2422374" lon="11.0821303"><ele>238.28571428571428</ele><time>2026-04-25T16:54:39.088Z</time></trkpt><trkpt lat="44.242214" lon="11.0822296"><ele>239.14285714285717</ele><time>2026-04-25T16:54:40.077Z</time></trkpt><trkpt lat="44.2421864" lon="11.0823183"><ele>240.0</ele><time>2026-04-25T16:54:41.076Z</time></trkpt><trkpt lat="44.2421562" lon="11.0824663"><ele>237.33333333333334</ele><time>2026-04-25T16:54:43.073Z</time></trkpt><trkpt lat="44.2421374" lon="11.0825555"><ele>234.66666666666669</ele><time>2026-04-25T16:54:44.075Z</time></trkpt><trkpt lat="44.2421104" lon="11.0826495"><ele>232.0</ele><time>2026-04-25T16:54:45.084Z</time></trkpt><trkpt lat="44.242082" lon="11.0827523"><ele>229.33333333333334</ele><time>2026-04-25T16:54:46.074Z</time></trkpt><trkpt lat="44.2420786" lon="11.0828408"><ele>226.66666666666669</ele><time>2026-04-25T16:54:47.079Z</time></trkpt><trkpt lat="44.2420649" lon="11.0829322"><ele>224.0</ele><time>2026-04-25T16:54:48.077Z</time></trkpt><trkpt lat="44.2420319" lon="11.0831177"><ele>224.00000000000003</ele><time>2026-04-25T16:54:50.07Z</time></trkpt><trkpt lat="44.2420293" lon="11.0832372"><ele>224.0</ele><time>2026-04-25T16:54:51.075Z</time></trkpt><trkpt lat="44.2420303" lon="11.0833618"><ele>224.0</ele><time>2026-04-25T16:54:52.08Z</time></trkpt><trkpt lat="44.2420341" lon="11.0834756"><ele>224.0</ele><time>2026-04-25T16:54:53.081Z</time></trkpt><trkpt lat="44.2420315" lon="11.0835692"><ele>224.00000000000003</ele><time>2026-04-25T16:54:54.082Z</time></trkpt><trkpt lat="44.2420357" lon="11.0836646"><ele>224.0</ele><time>2026-04-25T16:54:55.077Z</time></trkpt><trkpt lat="44.2420226" lon="11.0837519"><ele>224.2</ele><time>2026-04-25T16:54:56.074Z</time></trkpt><trkpt lat="44.2420345" lon="11.0838463"><ele>224.39999999999998</ele><time>2026-04-25T16:54:57.074Z</time></trkpt><trkpt lat="44.2420522" lon="11.0839315"><ele>224.6</ele><time>2026-04-25T16:54:58.074Z</time></trkpt><trkpt lat="44.2420868" lon="11.084098"><ele>224.8</ele><time>2026-04-25T16:55:00.075Z</time></trkpt><trkpt lat="44.2421156" lon="11.0842604"><ele>225.0</ele><time>2026-04-25T16:55:02.08Z</time></trkpt><trkpt lat="44.2421459" lon="11.0844248"><ele>225.0</ele><time>2026-04-25T16:55:04.107Z</time></trkpt><trkpt lat="44.2421704" lon="11.0845069"><ele>225.0</ele><time>2026-04-25T16:55:05.085Z</time></trkpt><trkpt lat="44.2421969" lon="11.084592"><ele>225.0</ele><time>2026-04-25T16:55:06.075Z</time></trkpt><trkpt lat="44.2422275" lon="11.0846798"><ele>225.0</ele><time>2026-04-25T16:55:07.078Z</time></trkpt><trkpt lat="44.2422802" lon="11.0848157"><ele>225.0</ele><time>2026-04-25T16:55:09.083Z</time></trkpt><trkpt lat="44.2423454" lon="11.0849623"><ele>225.0</ele><time>2026-04-25T16:55:11.079Z</time></trkpt><trkpt lat="44.2424221" lon="11.0850798"><ele>226.5</ele><time>2026-04-25T16:55:13.078Z</time></trkpt><trkpt lat="44.2424997" lon="11.0852106"><ele>228.0</ele><time>2026-04-25T16:55:15.082Z</time></trkpt><trkpt lat="44.2425702" lon="11.0853262"><ele>229.5</ele><time>2026-04-25T16:55:17.087Z</time></trkpt><trkpt lat="44.2426399" lon="11.085449"><ele>231.0</ele><time>2026-04-25T16:55:19.087Z</time></trkpt><trkpt lat="44.2427148" lon="11.0855727"><ele>231.0</ele><time>2026-04-25T16:55:21.073Z</time></trkpt><trkpt lat="44.242793" lon="11.0856828"><ele>231.00000000000003</ele><time>2026-04-25T16:55:23.075Z</time></trkpt><trkpt lat="44.2428464" lon="11.085798"><ele>231.00000000000003</ele><time>2026-04-25T16:55:25.076Z</time></trkpt><trkpt lat="44.2429128" lon="11.0859016"><ele>231.0</ele><time>2026-04-25T16:55:27.075Z</time></trkpt><trkpt lat="44.2429772" lon="11.0860101"><ele>231.0</ele><time>2026-04-25T16:55:29.074Z</time></trkpt><trkpt lat="44.2430445" lon="11.0861225"><ele>231.60000000000002</ele><time>2026-04-25T16:55:31.077Z</time></trkpt><trkpt lat="44.243124" lon="11.086229"><ele>232.20000000000002</ele><time>2026-04-25T16:55:33.077Z</time></trkpt><trkpt lat="44.2432003" lon="11.0863543"><ele>232.79999999999998</ele><time>2026-04-25T16:55:35.076Z</time></trkpt><trkpt lat="44.2432639" lon="11.0864751"><ele>233.39999999999998</ele><time>2026-04-25T16:55:37.075Z</time></trkpt><trkpt lat="44.2433127" lon="11.0865963"><ele>234.0</ele><time>2026-04-25T16:55:39.08Z</time></trkpt><trkpt lat="44.2433826" lon="11.0867053"><ele>234.0</ele><time>2026-04-25T16:55:41.076Z</time></trkpt><trkpt lat="44.2434455" lon="11.0868102"><ele>233.99999999999997</ele><time>2026-04-25T16:55:43.075Z</time></trkpt><trkpt lat="44.24352" lon="11.0869239"><ele>233.99999999999997</ele><time>2026-04-25T16:55:45.083Z</time></trkpt><trkpt lat="44.2435893" lon="11.0870253"><ele>234.0</ele><time>2026-04-25T16:55:47.079Z</time></trkpt><trkpt lat="44.2436638" lon="11.0871248"><ele>234.0</ele><time>2026-04-25T16:55:49.082Z</time></trkpt><trkpt lat="44.2437116" lon="11.0872431"><ele>234.0</ele><time>2026-04-25T16:55:51.079Z</time></trkpt><trkpt lat="44.2437836" lon="11.0873471"><ele>233.99999999999997</ele><time>2026-04-25T16:55:53.076Z</time></trkpt><trkpt lat="44.2438506" lon="11.0874382"><ele>233.99999999999997</ele><time>2026-04-25T16:55:55.083Z</time></trkpt><trkpt lat="44.243951" lon="11.0875353"><ele>234.0</ele><time>2026-04-25T16:55:57.077Z</time></trkpt><trkpt lat="44.2440455" lon="11.087607"><ele>234.0</ele><time>2026-04-25T16:55:59.083Z</time></trkpt><trkpt lat="44.2441606" lon="11.0876426"><ele>235.0</ele><time>2026-04-25T16:56:01.072Z</time></trkpt><trkpt lat="44.2442289" lon="11.0876542"><ele>235.99999999999997</ele><time>2026-04-25T16:56:02.083Z</time></trkpt><trkpt lat="44.244341" lon="11.087661"><ele>236.99999999999997</ele><time>2026-04-25T16:56:04.083Z</time></trkpt><trkpt lat="44.2444114" lon="11.0876607"><ele>238.0</ele><time>2026-04-25T16:56:05.08Z</time></trkpt><trkpt lat="44.2445321" lon="11.0876642"><ele>239.0</ele><time>2026-04-25T16:56:07.076Z</time></trkpt><trkpt lat="44.2446453" lon="11.0876789"><ele>239.0</ele><time>2026-04-25T16:56:09.077Z</time></trkpt><trkpt lat="44.2447565" lon="11.0877641"><ele>239.0</ele><time>2026-04-25T16:56:11.079Z</time></trkpt><trkpt lat="44.2448593" lon="11.0878469"><ele>239.0</ele><time>2026-04-25T16:56:13.079Z</time></trkpt><trkpt lat="44.2449361" lon="11.0879425"><ele>239.0</ele><time>2026-04-25T16:56:15.083Z</time></trkpt><trkpt lat="44.2450098" lon="11.0880515"><ele>238.5</ele><time>2026-04-25T16:56:17.089Z</time></trkpt><trkpt lat="44.245058" lon="11.0882016"><ele>238.0</ele><time>2026-04-25T16:56:19.079Z</time></trkpt><trkpt lat="44.2450876" lon="11.0883551"><ele>237.5</ele><time>2026-04-25T16:56:21.079Z</time></trkpt><trkpt lat="44.2451169" lon="11.0885094"><ele>237.0</ele><time>2026-04-25T16:56:23.078Z</time></trkpt><trkpt lat="44.2451276" lon="11.0886713"><ele>237.0</ele><time>2026-04-25T16:56:25.072Z</time></trkpt><trkpt lat="44.2451439" lon="11.088835"><ele>237.0</ele><time>2026-04-25T16:56:27.081Z</time></trkpt><trkpt lat="44.2451627" lon="11.0889258"><ele>237.0</ele><time>2026-04-25T16:56:28.076Z</time></trkpt><trkpt lat="44.2451374" lon="11.089014"><ele>237.0</ele><time>2026-04-25T16:56:29.083Z</time></trkpt><trkpt lat="44.2451732" lon="11.0891634"><ele>237.0</ele><time>2026-04-25T16:56:31.074Z</time></trkpt><trkpt lat="44.2452066" lon="11.0893161"><ele>236.5</ele><time>2026-04-25T16:56:33.078Z</time></trkpt><trkpt lat="44.2452273" lon="11.0893991"><ele>236.0</ele><time>2026-04-25T16:56:34.074Z</time></trkpt><trkpt lat="44.2452664" lon="11.0895619"><ele>235.5</ele><time>2026-04-25T16:56:36.081Z</time></trkpt><trkpt lat="44.2453093" lon="11.0897188"><ele>235.0</ele><time>2026-04-25T16:56:38.078Z</time></trkpt><trkpt lat="44.2453468" lon="11.0897903"><ele>234.5</ele><time>2026-04-25T16:56:39.074Z</time></trkpt><trkpt lat="44.2453898" lon="11.0898759"><ele>234.0</ele><time>2026-04-25T16:56:40.079Z</time></trkpt><trkpt lat="44.2454293" lon="11.0899607"><ele>234.66666666666666</ele><time>2026-04-25T16:56:41.078Z</time></trkpt><trkpt lat="44.2454899" lon="11.0900977"><ele>235.33333333333331</ele><time>2026-04-25T16:56:43.079Z</time></trkpt><trkpt lat="44.245518" lon="11.0901821"><ele>236.0</ele><time>2026-04-25T16:56:44.082Z</time></trkpt><trkpt lat="44.2455566" lon="11.0902619"><ele>236.66666666666666</ele><time>2026-04-25T16:56:45.077Z</time></trkpt><trkpt lat="44.2456008" lon="11.0903384"><ele>237.33333333333331</ele><time>2026-04-25T16:56:46.076Z</time></trkpt><trkpt lat="44.2456631" lon="11.0904901"><ele>238.0</ele><time>2026-04-25T16:56:48.084Z</time></trkpt><trkpt lat="44.2457164" lon="11.0905765"><ele>238.0</ele><time>2026-04-25T16:56:49.083Z</time></trkpt><trkpt lat="44.245751" lon="11.0906578"><ele>238.0</ele><time>2026-04-25T16:56:50.078Z</time></trkpt><trkpt lat="44.2457871" lon="11.090741"><ele>238.0</ele><time>2026-04-25T16:56:51.086Z</time></trkpt><trkpt lat="44.2458142" lon="11.0908215"><ele>238.0</ele><time>2026-04-25T16:56:52.076Z</time></trkpt><trkpt lat="44.2458798" lon="11.0909883"><ele>238.0</ele><time>2026-04-25T16:56:54.082Z</time></trkpt><trkpt lat="44.2459527" lon="11.0911383"><ele>237.14285714285714</ele><time>2026-04-25T16:56:56.074Z</time></trkpt><trkpt lat="44.2459868" lon="11.0912341"><ele>236.28571428571428</ele><time>2026-04-25T16:56:57.078Z</time></trkpt><trkpt lat="44.2460394" lon="11.0913277"><ele>235.42857142857144</ele><time>2026-04-25T16:56:58.077Z</time></trkpt><trkpt lat="44.2460778" lon="11.0914196"><ele>234.57142857142858</ele><time>2026-04-25T16:56:59.079Z</time></trkpt><trkpt lat="44.2461158" lon="11.0915078"><ele>233.71428571428572</ele><time>2026-04-25T16:57:00.073Z</time></trkpt><trkpt lat="44.2461516" lon="11.091581"><ele>232.8571428571429</ele><time>2026-04-25T16:57:01.078Z</time></trkpt><trkpt lat="44.2461884" lon="11.0916623"><ele>232.00000000000003</ele><time>2026-04-25T16:57:02.08Z</time></trkpt><trkpt lat="44.2462232" lon="11.0917495"><ele>232.42857142857144</ele><time>2026-04-25T16:57:03.086Z</time></trkpt><trkpt lat="44.2462503" lon="11.0918353"><ele>232.85714285714286</ele><time>2026-04-25T16:57:04.079Z</time></trkpt><trkpt lat="44.2462943" lon="11.0919016"><ele>233.28571428571428</ele><time>2026-04-25T16:57:05.075Z</time></trkpt><trkpt lat="44.246333" lon="11.0919765"><ele>233.71428571428572</ele><time>2026-04-25T16:57:06.078Z</time></trkpt><trkpt lat="44.2463607" lon="11.0920611"><ele>234.1428571428571</ele><time>2026-04-25T16:57:07.084Z</time></trkpt><trkpt lat="44.2464002" lon="11.0921437"><ele>234.57142857142856</ele><time>2026-04-25T16:57:08.075Z</time></trkpt><trkpt lat="44.2464567" lon="11.0922744"><ele>235.0</ele><time>2026-04-25T16:57:10.084Z</time></trkpt><trkpt lat="44.2464932" lon="11.0923507"><ele>234.16666666666666</ele><time>2026-04-25T16:57:11.083Z</time></trkpt><trkpt lat="44.2465287" lon="11.0924346"><ele>233.33333333333331</ele><time>2026-04-25T16:57:12.081Z</time></trkpt><trkpt lat="44.2465911" lon="11.0925805"><ele>232.5</ele><time>2026-04-25T16:57:14.078Z</time></trkpt><trkpt lat="44.246627" lon="11.0926636"><ele>231.66666666666669</ele><time>2026-04-25T16:57:15.086Z</time></trkpt><trkpt lat="44.246668" lon="11.0927453"><ele>230.83333333333334</ele><time>2026-04-25T16:57:16.075Z</time></trkpt><trkpt lat="44.2467054" lon="11.0928307"><ele>230.0</ele><time>2026-04-25T16:57:17.081Z</time></trkpt><trkpt lat="44.2467499" lon="11.092915"><ele>230.0</ele><time>2026-04-25T16:57:18.08Z</time></trkpt><trkpt lat="44.2467959" lon="11.0929969"><ele>230.0</ele><time>2026-04-25T16:57:19.081Z</time></trkpt><trkpt lat="44.2468249" lon="11.0930981"><ele>230.0</ele><time>2026-04-25T16:57:20.079Z</time></trkpt><trkpt lat="44.246879" lon="11.0931897"><ele>230.0</ele><time>2026-04-25T16:57:21.081Z</time></trkpt><trkpt lat="44.2469632" lon="11.0933249"><ele>230.0</ele><time>2026-04-25T16:57:23.081Z</time></trkpt><trkpt lat="44.2469846" lon="11.0934496"><ele>229.4</ele><time>2026-04-25T16:57:25.078Z</time></trkpt><trkpt lat="44.2469926" lon="11.0935376"><ele>228.8</ele><time>2026-04-25T16:57:26.076Z</time></trkpt><trkpt lat="44.2469946" lon="11.0937059"><ele>228.2</ele><time>2026-04-25T16:57:28.084Z</time></trkpt><trkpt lat="44.2469981" lon="11.0938745"><ele>227.6</ele><time>2026-04-25T16:57:30.076Z</time></trkpt><trkpt lat="44.2470295" lon="11.0940251"><ele>227.0</ele><time>2026-04-25T16:57:32.079Z</time></trkpt><trkpt lat="44.2470646" lon="11.0941056"><ele>227.0</ele><time>2026-04-25T16:57:33.076Z</time></trkpt><trkpt lat="44.2470913" lon="11.0942639"><ele>227.0</ele><time>2026-04-25T16:57:35.072Z</time></trkpt><trkpt lat="44.2471094" lon="11.0944267"><ele>227.0</ele><time>2026-04-25T16:57:37.079Z</time></trkpt><trkpt lat="44.2471363" lon="11.094572"><ele>227.0</ele><time>2026-04-25T16:57:39.085Z</time></trkpt><trkpt lat="44.2471442" lon="11.0946951"><ele>227.0</ele><time>2026-04-25T16:57:41.076Z</time></trkpt><trkpt lat="44.2471526" lon="11.0947984"><ele>227.0</ele><time>2026-04-25T16:57:43.079Z</time></trkpt><trkpt lat="44.2471639" lon="11.0948983"><ele>227.00000000000003</ele><time>2026-04-25T16:57:45.073Z</time></trkpt><trkpt lat="44.2471703" lon="11.0949878"><ele>227.0</ele><time>2026-04-25T16:57:47.076Z</time></trkpt><trkpt lat="44.2472025" lon="11.0950654"><ele>227.0</ele><time>2026-04-25T16:57:49.078Z</time></trkpt><trkpt lat="44.2472524" lon="11.0951408"><ele>227.00000000000003</ele><time>2026-04-25T16:57:51.08Z</time></trkpt><trkpt lat="44.2473086" lon="11.0952198"><ele>227.0</ele><time>2026-04-25T16:57:53.081Z</time></trkpt><trkpt lat="44.2473648" lon="11.0952879"><ele>227.0</ele><time>2026-04-25T16:57:55.079Z</time></trkpt><trkpt lat="44.2474297" lon="11.0953578"><ele>227.39999999999998</ele><time>2026-04-25T16:57:57.078Z</time></trkpt><trkpt lat="44.2475032" lon="11.095422"><ele>227.79999999999998</ele><time>2026-04-25T16:57:59.089Z</time></trkpt><trkpt lat="44.2475924" lon="11.0955064"><ele>228.2</ele><time>2026-04-25T16:58:01.07Z</time></trkpt><trkpt lat="44.2476678" lon="11.0955989"><ele>228.6</ele><time>2026-04-25T16:58:03.082Z</time></trkpt><trkpt lat="44.2477559" lon="11.0956867"><ele>229.0</ele><time>2026-04-25T16:58:05.077Z</time></trkpt><trkpt lat="44.2478506" lon="11.0957789"><ele>229.0</ele><time>2026-04-25T16:58:07.076Z</time></trkpt><trkpt lat="44.2479104" lon="11.0958289"><ele>228.99999999999997</ele><time>2026-04-25T16:58:08.075Z</time></trkpt><trkpt lat="44.2479927" lon="11.0958766"><ele>228.99999999999997</ele><time>2026-04-25T16:58:09.081Z</time></trkpt><trkpt lat="44.2480822" lon="11.0959219"><ele>229.0</ele><time>2026-04-25T16:58:10.076Z</time></trkpt><trkpt lat="44.2481903" lon="11.0959706"><ele>229.0</ele><time>2026-04-25T16:58:11.08Z</time></trkpt><trkpt lat="44.2482925" lon="11.0960225"><ele>229.2</ele><time>2026-04-25T16:58:12.075Z</time></trkpt><trkpt lat="44.2483997" lon="11.096075"><ele>229.39999999999998</ele><time>2026-04-25T16:58:13.08Z</time></trkpt><trkpt lat="44.2485036" lon="11.096117"><ele>229.6</ele><time>2026-04-25T16:58:14.075Z</time></trkpt><trkpt lat="44.2486042" lon="11.096164"><ele>229.8</ele><time>2026-04-25T16:58:15.077Z</time></trkpt><trkpt lat="44.248697" lon="11.0962017"><ele>230.0</ele><time>2026-04-25T16:58:16.072Z</time></trkpt><trkpt lat="44.248791" lon="11.096241"><ele>230.0</ele><time>2026-04-25T16:58:17.084Z</time></trkpt><trkpt lat="44.2489034" lon="11.0962799"><ele>230.0</ele><time>2026-04-25T16:58:18.075Z</time></trkpt><trkpt lat="44.249003" lon="11.0963238"><ele>230.0</ele><time>2026-04-25T16:58:19.078Z</time></trkpt><trkpt lat="44.2490958" lon="11.0963727"><ele>230.0</ele><time>2026-04-25T16:58:20.074Z</time></trkpt><trkpt lat="44.249193" lon="11.0964243"><ele>230.0</ele><time>2026-04-25T16:58:21.079Z</time></trkpt><trkpt lat="44.2492994" lon="11.0964697"><ele>230.2</ele><time>2026-04-25T16:58:22.079Z</time></trkpt><trkpt lat="44.2494034" lon="11.0965206"><ele>230.4</ele><time>2026-04-25T16:58:23.08Z</time></trkpt><trkpt lat="44.2495112" lon="11.0965717"><ele>230.60000000000002</ele><time>2026-04-25T16:58:24.082Z</time></trkpt><trkpt lat="44.2496081" lon="11.0965956"><ele>230.8</ele><time>2026-04-25T16:58:25.078Z</time></trkpt><trkpt lat="44.2497029" lon="11.0965847"><ele>231.0</ele><time>2026-04-25T16:58:26.076Z</time></trkpt><trkpt lat="44.2498036" lon="11.0965855"><ele>231.0</ele><time>2026-04-25T16:58:27.08Z</time></trkpt><trkpt lat="44.2498967" lon="11.0965472"><ele>231.00000000000003</ele><time>2026-04-25T16:58:28.084Z</time></trkpt><trkpt lat="44.2499962" lon="11.0965386"><ele>231.00000000000003</ele><time>2026-04-25T16:58:29.078Z</time></trkpt><trkpt lat="44.2501062" lon="11.0965441"><ele>231.0</ele><time>2026-04-25T16:58:30.077Z</time></trkpt><trkpt lat="44.2502124" lon="11.0965674"><ele>231.0</ele><time>2026-04-25T16:58:31.075Z</time></trkpt><trkpt lat="44.2503159" lon="11.0965944"><ele>230.0</ele><time>2026-04-25T16:58:32.077Z</time></trkpt><trkpt lat="44.2504105" lon="11.096622"><ele>229.0</ele><time>2026-04-25T16:58:33.08Z</time></trkpt><trkpt lat="44.2504968" lon="11.0966555"><ele>228.0</ele><time>2026-04-25T16:58:34.078Z</time></trkpt><trkpt lat="44.250573" lon="11.0966854"><ele>227.0</ele><time>2026-04-25T16:58:35.071Z</time></trkpt><trkpt lat="44.250639" lon="11.0967045"><ele>226.0</ele><time>2026-04-25T16:58:36.081Z</time></trkpt><trkpt lat="44.2507231" lon="11.0967354"><ele>225.0</ele><time>2026-04-25T16:58:38.075Z</time></trkpt><trkpt lat="44.250816" lon="11.0967597"><ele>225.0</ele><time>2026-04-25T16:58:41.084Z</time></trkpt><trkpt lat="44.2509044" lon="11.0967844"><ele>225.0</ele><time>2026-04-25T16:58:44.078Z</time></trkpt><trkpt lat="44.2509742" lon="11.0967859"><ele>225.0</ele><time>2026-04-25T16:58:46.09Z</time></trkpt><trkpt lat="44.2510596" lon="11.0967965"><ele>225.0</ele><time>2026-04-25T16:58:49.077Z</time></trkpt><trkpt lat="44.2511487" lon="11.0968074"><ele>225.0</ele><time>2026-04-25T16:58:52.08Z</time></trkpt><trkpt lat="44.2512213" lon="11.0968331"><ele>225.0</ele><time>2026-04-25T16:58:54.077Z</time></trkpt><trkpt lat="44.2513056" lon="11.0968852"><ele>225.0</ele><time>2026-04-25T16:58:56.078Z</time></trkpt><trkpt lat="44.2514137" lon="11.0969326"><ele>225.0</ele><time>2026-04-25T16:58:58.077Z</time></trkpt><trkpt lat="44.2514845" lon="11.096962"><ele>225.0</ele><time>2026-04-25T16:58:59.075Z</time></trkpt><trkpt lat="44.251559" lon="11.0970002"><ele>225.0</ele><time>2026-04-25T16:59:00.077Z</time></trkpt><trkpt lat="44.2516395" lon="11.097035"><ele>225.0</ele><time>2026-04-25T16:59:01.076Z</time></trkpt><trkpt lat="44.2517086" lon="11.0970632"><ele>225.0</ele><time>2026-04-25T16:59:02.082Z</time></trkpt><trkpt lat="44.2517936" lon="11.0970916"><ele>225.5</ele><time>2026-04-25T16:59:03.076Z</time></trkpt><trkpt lat="44.2518733" lon="11.0971586"><ele>226.0</ele><time>2026-04-25T16:59:04.069Z</time></trkpt><trkpt lat="44.2519463" lon="11.0972361"><ele>226.5</ele><time>2026-04-25T16:59:05.077Z</time></trkpt><trkpt lat="44.2519962" lon="11.0973314"><ele>227.0</ele><time>2026-04-25T16:59:06.081Z</time></trkpt><trkpt lat="44.2520345" lon="11.0974383"><ele>227.5</ele><time>2026-04-25T16:59:07.081Z</time></trkpt><trkpt lat="44.2520816" lon="11.0975467"><ele>228.0</ele><time>2026-04-25T16:59:08.077Z</time></trkpt><trkpt lat="44.2521334" lon="11.0976469"><ele>227.5</ele><time>2026-04-25T16:59:09.078Z</time></trkpt><trkpt lat="44.2521826" lon="11.0977425"><ele>227.0</ele><time>2026-04-25T16:59:10.081Z</time></trkpt><trkpt lat="44.2522519" lon="11.0978309"><ele>226.5</ele><time>2026-04-25T16:59:11.079Z</time></trkpt><trkpt lat="44.2523084" lon="11.097925"><ele>226.0</ele><time>2026-04-25T16:59:12.079Z</time></trkpt><trkpt lat="44.2523782" lon="11.0980064"><ele>225.5</ele><time>2026-04-25T16:59:13.074Z</time></trkpt><trkpt lat="44.2524336" lon="11.098088"><ele>225.0</ele><time>2026-04-25T16:59:14.075Z</time></trkpt><trkpt lat="44.2524773" lon="11.0981565"><ele>225.0</ele><time>2026-04-25T16:59:15.08Z</time></trkpt><trkpt lat="44.2525279" lon="11.0982169"><ele>225.0</ele><time>2026-04-25T16:59:16.078Z</time></trkpt><trkpt lat="44.2525815" lon="11.0982708"><ele>225.0</ele><time>2026-04-25T16:59:17.078Z</time></trkpt><trkpt lat="44.2526697" lon="11.0983566"><ele>225.0</ele><time>2026-04-25T16:59:19.079Z</time></trkpt><trkpt lat="44.2527379" lon="11.0984258"><ele>225.0</ele><time>2026-04-25T16:59:21.088Z</time></trkpt><trkpt lat="44.2528168" lon="11.0984825"><ele>225.0</ele><time>2026-04-25T16:59:23.09Z</time></trkpt><trkpt lat="44.2529094" lon="11.0985531"><ele>225.0</ele><time>2026-04-25T16:59:25.079Z</time></trkpt><trkpt lat="44.2530024" lon="11.098645"><ele>225.0</ele><time>2026-04-25T16:59:27.076Z</time></trkpt><trkpt lat="44.2530757" lon="11.0987668"><ele>225.0</ele><time>2026-04-25T16:59:29.078Z</time></trkpt><trkpt lat="44.2531225" lon="11.0989024"><ele>225.0</ele><time>2026-04-25T16:59:31.075Z</time></trkpt><trkpt lat="44.2531805" lon="11.0990514"><ele>224.0</ele><time>2026-04-25T16:59:33.079Z</time></trkpt><trkpt lat="44.2531949" lon="11.0991909"><ele>223.0</ele><time>2026-04-25T16:59:35.084Z</time></trkpt><trkpt lat="44.2532" lon="11.0992972"><ele>222.0</ele><time>2026-04-25T16:59:37.078Z</time></trkpt><trkpt lat="44.2532237" lon="11.0994168"><ele>221.0</ele><time>2026-04-25T16:59:40.075Z</time></trkpt><trkpt lat="44.2532751" lon="11.0994961"><ele>220.0</ele><time>2026-04-25T16:59:42.074Z</time></trkpt><trkpt lat="44.2533403" lon="11.0995644"><ele>219.0</ele><time>2026-04-25T16:59:44.08Z</time></trkpt><trkpt lat="44.2534386" lon="11.0996302"><ele>219.0</ele><time>2026-04-25T16:59:46.081Z</time></trkpt><trkpt lat="44.2535248" lon="11.0997073"><ele>218.99999999999997</ele><time>2026-04-25T16:59:48.073Z</time></trkpt><trkpt lat="44.2535984" lon="11.0997748"><ele>218.99999999999997</ele><time>2026-04-25T16:59:50.075Z</time></trkpt><trkpt lat="44.2536604" lon="11.0998753"><ele>219.0</ele><time>2026-04-25T16:59:52.078Z</time></trkpt><trkpt lat="44.2537168" lon="11.099943"><ele>219.0</ele><time>2026-04-25T16:59:54.075Z</time></trkpt><trkpt lat="44.2537885" lon="11.1000467"><ele>219.2</ele><time>2026-04-25T16:59:56.107Z</time></trkpt><trkpt lat="44.2538462" lon="11.1001387"><ele>219.39999999999998</ele><time>2026-04-25T16:59:58.08Z</time></trkpt><trkpt lat="44.2538874" lon="11.1002514"><ele>219.6</ele><time>2026-04-25T17:00:00.076Z</time></trkpt><trkpt lat="44.2539181" lon="11.100376"><ele>219.8</ele><time>2026-04-25T17:00:02.079Z</time></trkpt><trkpt lat="44.253965" lon="11.10049"><ele>220.0</ele><time>2026-04-25T17:00:04.074Z</time></trkpt><trkpt lat="44.2539843" lon="11.1006204"><ele>219.6</ele><time>2026-04-25T17:00:06.082Z</time></trkpt><trkpt lat="44.2540279" lon="11.100774"><ele>219.2</ele><time>2026-04-25T17:00:08.076Z</time></trkpt><trkpt lat="44.2540587" lon="11.1009326"><ele>218.8</ele><time>2026-04-25T17:00:10.083Z</time></trkpt><trkpt lat="44.254069" lon="11.1010825"><ele>218.4</ele><time>2026-04-25T17:00:12.079Z</time></trkpt><trkpt lat="44.2540843" lon="11.1011726"><ele>218.0</ele><time>2026-04-25T17:00:13.077Z</time></trkpt><trkpt lat="44.2540905" lon="11.1013292"><ele>218.0</ele><time>2026-04-25T17:00:15.074Z</time></trkpt><trkpt lat="44.2540976" lon="11.1014786"><ele>218.0</ele><time>2026-04-25T17:00:17.074Z</time></trkpt><trkpt lat="44.2541142" lon="11.1016526"><ele>218.0</ele><time>2026-04-25T17:00:19.072Z</time></trkpt><trkpt lat="44.2541606" lon="11.1017985"><ele>218.0</ele><time>2026-04-25T17:00:21.077Z</time></trkpt><trkpt lat="44.2542066" lon="11.1019001"><ele>218.0</ele><time>2026-04-25T17:00:23.075Z</time></trkpt><trkpt lat="44.2542578" lon="11.1020038"><ele>217.50000000000003</ele><time>2026-04-25T17:00:25.091Z</time></trkpt><trkpt lat="44.2543115" lon="11.1020862"><ele>217.0</ele><time>2026-04-25T17:00:27.08Z</time></trkpt><trkpt lat="44.2543613" lon="11.1021568"><ele>216.5</ele><time>2026-04-25T17:00:29.075Z</time></trkpt><trkpt lat="44.2543992" lon="11.1022332"><ele>216.0</ele><time>2026-04-25T17:00:31.074Z</time></trkpt><trkpt lat="44.254459" lon="11.1023165"><ele>215.50000000000003</ele><time>2026-04-25T17:00:33.072Z</time></trkpt><trkpt lat="44.2545203" lon="11.1023965"><ele>215.0</ele><time>2026-04-25T17:00:35.088Z</time></trkpt><trkpt lat="44.254582" lon="11.1024711"><ele>214.50000000000003</ele><time>2026-04-25T17:00:37.075Z</time></trkpt><trkpt lat="44.2546512" lon="11.1025419"><ele>214.0</ele><time>2026-04-25T17:00:39.076Z</time></trkpt><trkpt lat="44.2547187" lon="11.1026196"><ele>213.5</ele><time>2026-04-25T17:00:41.076Z</time></trkpt><trkpt lat="44.2547761" lon="11.1026812"><ele>213.0</ele><time>2026-04-25T17:00:43.075Z</time></trkpt><trkpt lat="44.2548229" lon="11.1027492"><ele>212.50000000000003</ele><time>2026-04-25T17:00:46.074Z</time></trkpt><trkpt lat="44.2548743" lon="11.1028096"><ele>212.0</ele><time>2026-04-25T17:00:48.094Z</time></trkpt><trkpt lat="44.2549639" lon="11.1028602"><ele>213.2</ele><time>2026-04-25T17:00:50.079Z</time></trkpt><trkpt lat="44.2550503" lon="11.1028947"><ele>214.39999999999998</ele><time>2026-04-25T17:00:52.069Z</time></trkpt><trkpt lat="44.2551454" lon="11.1029285"><ele>215.60000000000002</ele><time>2026-04-25T17:00:54.079Z</time></trkpt><trkpt lat="44.2552376" lon="11.1029821"><ele>216.8</ele><time>2026-04-25T17:00:56.075Z</time></trkpt><trkpt lat="44.2552996" lon="11.1030224"><ele>218.0</ele><time>2026-04-25T17:00:57.081Z</time></trkpt><trkpt lat="44.2554033" lon="11.1030989"><ele>218.0</ele><time>2026-04-25T17:00:59.076Z</time></trkpt><trkpt lat="44.2555003" lon="11.1031861"><ele>218.0</ele><time>2026-04-25T17:01:01.075Z</time></trkpt><trkpt lat="44.255603" lon="11.1032599"><ele>218.0</ele><time>2026-04-25T17:01:03.08Z</time></trkpt><trkpt lat="44.2556908" lon="11.1033389"><ele>218.0</ele><time>2026-04-25T17:01:05.08Z</time></trkpt><trkpt lat="44.2558044" lon="11.1034146"><ele>217.4</ele><time>2026-04-25T17:01:07.078Z</time></trkpt><trkpt lat="44.2558614" lon="11.103462"><ele>216.8</ele><time>2026-04-25T17:01:08.075Z</time></trkpt><trkpt lat="44.2559365" lon="11.1034841"><ele>216.2</ele><time>2026-04-25T17:01:09.075Z</time></trkpt><trkpt lat="44.2560466" lon="11.1035297"><ele>215.6</ele><time>2026-04-25T17:01:11.08Z</time></trkpt><trkpt lat="44.2561352" lon="11.1035712"><ele>215.0</ele><time>2026-04-25T17:01:13.085Z</time></trkpt><trkpt lat="44.2562512" lon="11.1036104"><ele>215.0</ele><time>2026-04-25T17:01:15.08Z</time></trkpt><trkpt lat="44.2563577" lon="11.1036429"><ele>215.0</ele><time>2026-04-25T17:01:17.077Z</time></trkpt><trkpt lat="44.2564712" lon="11.103619"><ele>215.0</ele><time>2026-04-25T17:01:19.082Z</time></trkpt><trkpt lat="44.2565754" lon="11.1035634"><ele>215.0</ele><time>2026-04-25T17:01:21.076Z</time></trkpt><trkpt lat="44.2566826" lon="11.1035"><ele>215.6</ele><time>2026-04-25T17:01:23.082Z</time></trkpt><trkpt lat="44.2567813" lon="11.1034413"><ele>216.2</ele><time>2026-04-25T17:01:25.077Z</time></trkpt><trkpt lat="44.2568828" lon="11.1034038"><ele>216.8</ele><time>2026-04-25T17:01:27.08Z</time></trkpt><trkpt lat="44.2569904" lon="11.1034131"><ele>217.4</ele><time>2026-04-25T17:01:29.075Z</time></trkpt><trkpt lat="44.2571025" lon="11.1034253"><ele>218.0</ele><time>2026-04-25T17:01:31.075Z</time></trkpt><trkpt lat="44.2572127" lon="11.1034421"><ele>218.2</ele><time>2026-04-25T17:01:33.077Z</time></trkpt><trkpt lat="44.2573133" lon="11.1034995"><ele>218.4</ele><time>2026-04-25T17:01:35.073Z</time></trkpt><trkpt lat="44.2574042" lon="11.1035757"><ele>218.59999999999997</ele><time>2026-04-25T17:01:37.08Z</time></trkpt><trkpt lat="44.2574763" lon="11.1037065"><ele>218.79999999999998</ele><time>2026-04-25T17:01:39.077Z</time></trkpt><trkpt lat="44.2575451" lon="11.1038335"><ele>219.0</ele><time>2026-04-25T17:01:41.077Z</time></trkpt><trkpt lat="44.2576013" lon="11.1039609"><ele>217.6</ele><time>2026-04-25T17:01:43.079Z</time></trkpt><trkpt lat="44.2576631" lon="11.1040969"><ele>216.2</ele><time>2026-04-25T17:01:45.077Z</time></trkpt><trkpt lat="44.2577243" lon="11.1041977"><ele>214.79999999999998</ele><time>2026-04-25T17:01:47.077Z</time></trkpt><trkpt lat="44.2577815" lon="11.1043329"><ele>213.39999999999998</ele><time>2026-04-25T17:01:49.072Z</time></trkpt><trkpt lat="44.2578689" lon="11.104442"><ele>212.0</ele><time>2026-04-25T17:01:51.086Z</time></trkpt><trkpt lat="44.2579754" lon="11.1045547"><ele>212.0</ele><time>2026-04-25T17:01:53.084Z</time></trkpt><trkpt lat="44.2580728" lon="11.1046181"><ele>212.0</ele><time>2026-04-25T17:01:55.079Z</time></trkpt><trkpt lat="44.2581392" lon="11.1046301"><ele>212.0</ele><time>2026-04-25T17:01:56.083Z</time></trkpt><trkpt lat="44.2582303" lon="11.1046724"><ele>212.0</ele><time>2026-04-25T17:01:58.074Z</time></trkpt><trkpt lat="44.2583437" lon="11.1047022"><ele>212.0</ele><time>2026-04-25T17:02:00.078Z</time></trkpt><trkpt lat="44.2584648" lon="11.1047183"><ele>213.5</ele><time>2026-04-25T17:02:02.08Z</time></trkpt><trkpt lat="44.258586" lon="11.1047106"><ele>215.0</ele><time>2026-04-25T17:02:04.082Z</time></trkpt><trkpt lat="44.2586994" lon="11.1047057"><ele>216.5</ele><time>2026-04-25T17:02:06.079Z</time></trkpt><trkpt lat="44.2588223" lon="11.1046855"><ele>218.0</ele><time>2026-04-25T17:02:08.083Z</time></trkpt><trkpt lat="44.2589178" lon="11.1046296"><ele>217.60000000000002</ele><time>2026-04-25T17:02:10.078Z</time></trkpt><trkpt lat="44.2589744" lon="11.104587"><ele>217.20000000000002</ele><time>2026-04-25T17:02:11.076Z</time></trkpt><trkpt lat="44.2590282" lon="11.1045341"><ele>216.8</ele><time>2026-04-25T17:02:12.081Z</time></trkpt><trkpt lat="44.2591302" lon="11.1044456"><ele>216.4</ele><time>2026-04-25T17:02:14.077Z</time></trkpt><trkpt lat="44.2592171" lon="11.104335"><ele>216.0</ele><time>2026-04-25T17:02:16.075Z</time></trkpt><trkpt lat="44.2593061" lon="11.104222"><ele>216.0</ele><time>2026-04-25T17:02:18.081Z</time></trkpt><trkpt lat="44.2593882" lon="11.1041127"><ele>216.00000000000003</ele><time>2026-04-25T17:02:20.074Z</time></trkpt><trkpt lat="44.259481" lon="11.1040459"><ele>216.00000000000003</ele><time>2026-04-25T17:02:22.074Z</time></trkpt><trkpt lat="44.2595946" lon="11.1040497"><ele>216.0</ele><time>2026-04-25T17:02:24.077Z</time></trkpt><trkpt lat="44.2597011" lon="11.1040822"><ele>216.0</ele><time>2026-04-25T17:02:26.074Z</time></trkpt><trkpt lat="44.2598043" lon="11.1041575"><ele>216.8</ele><time>2026-04-25T17:02:28.077Z</time></trkpt><trkpt lat="44.2598939" lon="11.104247"><ele>217.60000000000002</ele><time>2026-04-25T17:02:30.083Z</time></trkpt><trkpt lat="44.2599945" lon="11.104317"><ele>218.4</ele><time>2026-04-25T17:02:32.085Z</time></trkpt><trkpt lat="44.2600801" lon="11.1044075"><ele>219.2</ele><time>2026-04-25T17:02:34.075Z</time></trkpt><trkpt lat="44.2601675" lon="11.1044992"><ele>220.0</ele><time>2026-04-25T17:02:36.079Z</time></trkpt><trkpt lat="44.2602515" lon="11.1046062"><ele>220.0</ele><time>2026-04-25T17:02:38.082Z</time></trkpt><trkpt lat="44.260341" lon="11.1046967"><ele>220.0</ele><time>2026-04-25T17:02:40.076Z</time></trkpt><trkpt lat="44.2604114" lon="11.1047737"><ele>220.0</ele><time>2026-04-25T17:02:42.072Z</time></trkpt><trkpt lat="44.2604752" lon="11.1048539"><ele>220.0</ele><time>2026-04-25T17:02:44.08Z</time></trkpt><trkpt lat="44.2605456" lon="11.1049021"><ele>220.0</ele><time>2026-04-25T17:02:45.081Z</time></trkpt><trkpt lat="44.2606521" lon="11.1049968"><ele>219.25</ele><time>2026-04-25T17:02:47.078Z</time></trkpt><trkpt lat="44.2607469" lon="11.1050607"><ele>218.5</ele><time>2026-04-25T17:02:49.082Z</time></trkpt><trkpt lat="44.2608439" lon="11.1051403"><ele>217.75</ele><time>2026-04-25T17:02:51.075Z</time></trkpt><trkpt lat="44.2609502" lon="11.1052226"><ele>217.0</ele><time>2026-04-25T17:02:53.081Z</time></trkpt><trkpt lat="44.2610579" lon="11.1052913"><ele>217.0</ele><time>2026-04-25T17:02:55.084Z</time></trkpt><trkpt lat="44.2611545" lon="11.10536"><ele>217.0</ele><time>2026-04-25T17:02:57.072Z</time></trkpt><trkpt lat="44.2612535" lon="11.1054222"><ele>217.0</ele><time>2026-04-25T17:02:59.064Z</time></trkpt><trkpt lat="44.2613453" lon="11.1054764"><ele>217.0</ele><time>2026-04-25T17:03:01.074Z</time></trkpt><trkpt lat="44.261445" lon="11.1055135"><ele>217.0</ele><time>2026-04-25T17:03:03.081Z</time></trkpt><trkpt lat="44.2615559" lon="11.1055628"><ele>216.6</ele><time>2026-04-25T17:03:05.071Z</time></trkpt><trkpt lat="44.26166" lon="11.1056237"><ele>216.2</ele><time>2026-04-25T17:03:07.083Z</time></trkpt><trkpt lat="44.2617492" lon="11.10567"><ele>215.8</ele><time>2026-04-25T17:03:09.087Z</time></trkpt><trkpt lat="44.261838" lon="11.1057205"><ele>215.4</ele><time>2026-04-25T17:03:11.082Z</time></trkpt><trkpt lat="44.2619183" lon="11.1057738"><ele>215.0</ele><time>2026-04-25T17:03:13.08Z</time></trkpt><trkpt lat="44.2620116" lon="11.1058308"><ele>215.0</ele><time>2026-04-25T17:03:15.075Z</time></trkpt><trkpt lat="44.2620898" lon="11.1059127"><ele>215.0</ele><time>2026-04-25T17:03:17.08Z</time></trkpt><trkpt lat="44.2621576" lon="11.1060194"><ele>215.0</ele><time>2026-04-25T17:03:19.074Z</time></trkpt><trkpt lat="44.2622047" lon="11.1061156"><ele>215.0</ele><time>2026-04-25T17:03:21.075Z</time></trkpt><trkpt lat="44.2622686" lon="11.1062063"><ele>215.0</ele><time>2026-04-25T17:03:23.08Z</time></trkpt><trkpt lat="44.2622967" lon="11.1063234"><ele>216.2</ele><time>2026-04-25T17:03:25.083Z</time></trkpt><trkpt lat="44.2623576" lon="11.1064404"><ele>217.4</ele><time>2026-04-25T17:03:27.084Z</time></trkpt><trkpt lat="44.2624125" lon="11.1065617"><ele>218.60000000000002</ele><time>2026-04-25T17:03:29.073Z</time></trkpt><trkpt lat="44.2624721" lon="11.1066823"><ele>219.8</ele><time>2026-04-25T17:03:31.078Z</time></trkpt><trkpt lat="44.2625409" lon="11.106782"><ele>221.0</ele><time>2026-04-25T17:03:33.08Z</time></trkpt><trkpt lat="44.262612" lon="11.1068881"><ele>221.0</ele><time>2026-04-25T17:03:35.087Z</time></trkpt><trkpt lat="44.2627122" lon="11.1069337"><ele>221.00000000000003</ele><time>2026-04-25T17:03:37.077Z</time></trkpt><trkpt lat="44.2628202" lon="11.1069575"><ele>221.00000000000003</ele><time>2026-04-25T17:03:39.077Z</time></trkpt><trkpt lat="44.2629181" lon="11.1069569"><ele>221.0</ele><time>2026-04-25T17:03:41.083Z</time></trkpt><trkpt lat="44.2630315" lon="11.1069594"><ele>221.0</ele><time>2026-04-25T17:03:43.071Z</time></trkpt><trkpt lat="44.2631326" lon="11.1069547"><ele>222.20000000000002</ele><time>2026-04-25T17:03:45.085Z</time></trkpt><trkpt lat="44.2632312" lon="11.1069496"><ele>223.40000000000003</ele><time>2026-04-25T17:03:47.078Z</time></trkpt><trkpt lat="44.263339" lon="11.106951"><ele>224.6</ele><time>2026-04-25T17:03:49.076Z</time></trkpt><trkpt lat="44.2634426" lon="11.1069181"><ele>225.8</ele><time>2026-04-25T17:03:51.079Z</time></trkpt><trkpt lat="44.2635324" lon="11.1068946"><ele>227.0</ele><time>2026-04-25T17:03:53.081Z</time></trkpt><trkpt lat="44.2636107" lon="11.1068386"><ele>227.0</ele><time>2026-04-25T17:03:55.078Z</time></trkpt><trkpt lat="44.2637112" lon="11.1067892"><ele>227.0</ele><time>2026-04-25T17:03:57.076Z</time></trkpt><trkpt lat="44.263815" lon="11.1067483"><ele>227.0</ele><time>2026-04-25T17:03:59.088Z</time></trkpt><trkpt lat="44.2639237" lon="11.106743"><ele>227.0</ele><time>2026-04-25T17:04:01.082Z</time></trkpt><trkpt lat="44.264026" lon="11.1067838"><ele>227.0</ele><time>2026-04-25T17:04:03.08Z</time></trkpt><trkpt lat="44.2641159" lon="11.1068491"><ele>227.6</ele><time>2026-04-25T17:04:05.082Z</time></trkpt><trkpt lat="44.2641782" lon="11.1069565"><ele>228.2</ele><time>2026-04-25T17:04:07.074Z</time></trkpt><trkpt lat="44.2642325" lon="11.1070689"><ele>228.8</ele><time>2026-04-25T17:04:09.085Z</time></trkpt><trkpt lat="44.2642736" lon="11.1071831"><ele>229.4</ele><time>2026-04-25T17:04:11.07Z</time></trkpt><trkpt lat="44.2643383" lon="11.1073026"><ele>230.0</ele><time>2026-04-25T17:04:13.075Z</time></trkpt><trkpt lat="44.2644174" lon="11.1074099"><ele>228.5</ele><time>2026-04-25T17:04:15.077Z</time></trkpt><trkpt lat="44.2645023" lon="11.1075065"><ele>227.0</ele><time>2026-04-25T17:04:17.073Z</time></trkpt><trkpt lat="44.2645985" lon="11.1075932"><ele>225.5</ele><time>2026-04-25T17:04:19.08Z</time></trkpt><trkpt lat="44.2647012" lon="11.1076468"><ele>224.0</ele><time>2026-04-25T17:04:21.08Z</time></trkpt><trkpt lat="44.2648281" lon="11.1076778"><ele>224.0</ele><time>2026-04-25T17:04:23.083Z</time></trkpt><trkpt lat="44.2649554" lon="11.1076905"><ele>223.99999999999997</ele><time>2026-04-25T17:04:25.074Z</time></trkpt><trkpt lat="44.2650235" lon="11.1076841"><ele>223.99999999999997</ele><time>2026-04-25T17:04:26.072Z</time></trkpt><trkpt lat="44.26509" lon="11.107668"><ele>224.0</ele><time>2026-04-25T17:04:27.077Z</time></trkpt><trkpt lat="44.2651566" lon="11.1076573"><ele>224.0</ele><time>2026-04-25T17:04:28.072Z</time></trkpt><trkpt lat="44.2652809" lon="11.1076352"><ele>224.0</ele><time>2026-04-25T17:04:30.076Z</time></trkpt><trkpt lat="44.2653954" lon="11.1076237"><ele>223.99999999999997</ele><time>2026-04-25T17:04:32.076Z</time></trkpt><trkpt lat="44.265495" lon="11.1076092"><ele>223.99999999999997</ele><time>2026-04-25T17:04:34.065Z</time></trkpt><trkpt lat="44.2655975" lon="11.1075888"><ele>224.0</ele><time>2026-04-25T17:04:36.077Z</time></trkpt><trkpt lat="44.2656864" lon="11.1075463"><ele>224.0</ele><time>2026-04-25T17:04:38.08Z</time></trkpt><trkpt lat="44.2657775" lon="11.1075539"><ele>224.2</ele><time>2026-04-25T17:04:40.079Z</time></trkpt><trkpt lat="44.2658932" lon="11.1075432"><ele>224.39999999999998</ele><time>2026-04-25T17:04:42.083Z</time></trkpt><trkpt lat="44.2659832" lon="11.1075416"><ele>224.6</ele><time>2026-04-25T17:04:44.073Z</time></trkpt><trkpt lat="44.2660539" lon="11.1076532"><ele>224.8</ele><time>2026-04-25T17:04:46.085Z</time></trkpt><trkpt lat="44.2660687" lon="11.1077976"><ele>225.0</ele><time>2026-04-25T17:04:48.073Z</time></trkpt><trkpt lat="44.2660552" lon="11.107929"><ele>225.0</ele><time>2026-04-25T17:04:50.085Z</time></trkpt><trkpt lat="44.266044" lon="11.1080525"><ele>225.0</ele><time>2026-04-25T17:04:52.078Z</time></trkpt><trkpt lat="44.2660294" lon="11.1081703"><ele>225.0</ele><time>2026-04-25T17:04:54.073Z</time></trkpt><trkpt lat="44.2660547" lon="11.1082888"><ele>225.0</ele><time>2026-04-25T17:04:56.075Z</time></trkpt><trkpt lat="44.2661117" lon="11.108382"><ele>225.0</ele><time>2026-04-25T17:04:58.076Z</time></trkpt><trkpt lat="44.2661617" lon="11.1084357"><ele>225.0</ele><time>2026-04-25T17:05:00.073Z</time></trkpt><trkpt lat="44.2662178" lon="11.1084888"><ele>226.0</ele><time>2026-04-25T17:05:02.077Z</time></trkpt><trkpt lat="44.2662997" lon="11.1085227"><ele>227.0</ele><time>2026-04-25T17:05:04.091Z</time></trkpt><trkpt lat="44.2664034" lon="11.1085334"><ele>228.0</ele><time>2026-04-25T17:05:06.073Z</time></trkpt><trkpt lat="44.2664966" lon="11.1085308"><ele>229.0</ele><time>2026-04-25T17:05:08.072Z</time></trkpt><trkpt lat="44.2666051" lon="11.1085159"><ele>230.0</ele><time>2026-04-25T17:05:10.077Z</time></trkpt><trkpt lat="44.2666926" lon="11.1085004"><ele>230.00000000000003</ele><time>2026-04-25T17:05:12.074Z</time></trkpt><trkpt lat="44.2667738" lon="11.1084799"><ele>230.0</ele><time>2026-04-25T17:05:14.086Z</time></trkpt><trkpt lat="44.2668646" lon="11.108452"><ele>230.0</ele><time>2026-04-25T17:05:16.072Z</time></trkpt><trkpt lat="44.2669488" lon="11.1084629"><ele>230.0</ele><time>2026-04-25T17:05:18.08Z</time></trkpt><trkpt lat="44.2670271" lon="11.108448"><ele>230.00000000000003</ele><time>2026-04-25T17:05:20.071Z</time></trkpt><trkpt lat="44.2671134" lon="11.1084554"><ele>230.0</ele><time>2026-04-25T17:05:22.069Z</time></trkpt><trkpt lat="44.2671822" lon="11.1084909"><ele>229.99999999999997</ele><time>2026-04-25T17:05:24.077Z</time></trkpt><trkpt lat="44.2672459" lon="11.1085206"><ele>230.0</ele><time>2026-04-25T17:05:26.07Z</time></trkpt><trkpt lat="44.2673133" lon="11.1085527"><ele>229.99999999999997</ele><time>2026-04-25T17:05:28.073Z</time></trkpt><trkpt lat="44.2673749" lon="11.1085876"><ele>229.99999999999997</ele><time>2026-04-25T17:05:30.085Z</time></trkpt><trkpt lat="44.2674657" lon="11.1086267"><ele>230.0</ele><time>2026-04-25T17:05:33.083Z</time></trkpt><trkpt lat="44.2675269" lon="11.1086544"><ele>229.99999999999997</ele><time>2026-04-25T17:05:35.084Z</time></trkpt><trkpt lat="44.2675897" lon="11.108683"><ele>229.99999999999997</ele><time>2026-04-25T17:05:37.079Z</time></trkpt><trkpt lat="44.2676527" lon="11.1087202"><ele>230.99999999999997</ele><time>2026-04-25T17:05:39.077Z</time></trkpt><trkpt lat="44.2677217" lon="11.1087523"><ele>232.0</ele><time>2026-04-25T17:05:41.074Z</time></trkpt><trkpt lat="44.267799" lon="11.1087627"><ele>232.99999999999997</ele><time>2026-04-25T17:05:43.081Z</time></trkpt><trkpt lat="44.2678674" lon="11.108774"><ele>233.99999999999997</ele><time>2026-04-25T17:05:45.074Z</time></trkpt><trkpt lat="44.2679357" lon="11.1087461"><ele>235.0</ele><time>2026-04-25T17:05:47.083Z</time></trkpt><trkpt lat="44.2680044" lon="11.108715"><ele>235.99999999999997</ele><time>2026-04-25T17:05:49.077Z</time></trkpt><trkpt lat="44.2680747" lon="11.1086931"><ele>236.99999999999997</ele><time>2026-04-25T17:05:51.077Z</time></trkpt><trkpt lat="44.2681526" lon="11.1086622"><ele>237.0</ele><time>2026-04-25T17:05:53.085Z</time></trkpt><trkpt lat="44.2682302" lon="11.1086363"><ele>237.0</ele><time>2026-04-25T17:05:55.08Z</time></trkpt><trkpt lat="44.2683181" lon="11.1086162"><ele>237.0</ele><time>2026-04-25T17:05:57.082Z</time></trkpt><trkpt lat="44.2684075" lon="11.1086311"><ele>237.0</ele><time>2026-04-25T17:05:59.075Z</time></trkpt><trkpt lat="44.268487" lon="11.1086235"><ele>237.0</ele><time>2026-04-25T17:06:01.076Z</time></trkpt><trkpt lat="44.2685617" lon="11.1086062"><ele>237.0</ele><time>2026-04-25T17:06:03.073Z</time></trkpt><trkpt lat="44.2686375" lon="11.1086067"><ele>237.0</ele><time>2026-04-25T17:06:05.075Z</time></trkpt><trkpt lat="44.2687205" lon="11.1085988"><ele>237.0</ele><time>2026-04-25T17:06:07.078Z</time></trkpt><trkpt lat="44.2688092" lon="11.1086157"><ele>237.0</ele><time>2026-04-25T17:06:09.08Z</time></trkpt><trkpt lat="44.2688841" lon="11.1086439"><ele>237.0</ele><time>2026-04-25T17:06:11.081Z</time></trkpt><trkpt lat="44.2689431" lon="11.1087099"><ele>237.0</ele><time>2026-04-25T17:06:13.083Z</time></trkpt><trkpt lat="44.2690126" lon="11.1088017"><ele>237.0</ele><time>2026-04-25T17:06:15.07Z</time></trkpt><trkpt lat="44.269103" lon="11.1088583"><ele>237.39999999999998</ele><time>2026-04-25T17:06:17.071Z</time></trkpt><trkpt lat="44.2692018" lon="11.1088908"><ele>237.79999999999998</ele><time>2026-04-25T17:06:19.079Z</time></trkpt><trkpt lat="44.2693214" lon="11.1089261"><ele>238.2</ele><time>2026-04-25T17:06:21.072Z</time></trkpt><trkpt lat="44.269447" lon="11.1089474"><ele>238.6</ele><time>2026-04-25T17:06:23.07Z</time></trkpt><trkpt lat="44.2695101" lon="11.1089488"><ele>239.0</ele><time>2026-04-25T17:06:24.08Z</time></trkpt><trkpt lat="44.2695763" lon="11.1089394"><ele>239.00000000000003</ele><time>2026-04-25T17:06:25.074Z</time></trkpt><trkpt lat="44.2696406" lon="11.1089256"><ele>239.0</ele><time>2026-04-25T17:06:26.083Z</time></trkpt><trkpt lat="44.2697061" lon="11.1089044"><ele>239.0</ele><time>2026-04-25T17:06:27.076Z</time></trkpt><trkpt lat="44.2698264" lon="11.1088587"><ele>239.0</ele><time>2026-04-25T17:06:29.079Z</time></trkpt><trkpt lat="44.2698879" lon="11.108836"><ele>239.00000000000003</ele><time>2026-04-25T17:06:30.073Z</time></trkpt><trkpt lat="44.2699488" lon="11.1088063"><ele>239.0</ele><time>2026-04-25T17:06:31.075Z</time></trkpt><trkpt lat="44.2700057" lon="11.1087582"><ele>238.33333333333334</ele><time>2026-04-25T17:06:32.081Z</time></trkpt><trkpt lat="44.2700723" lon="11.1087164"><ele>237.66666666666669</ele><time>2026-04-25T17:06:33.074Z</time></trkpt><trkpt lat="44.2701302" lon="11.1086745"><ele>237.0</ele><time>2026-04-25T17:06:34.078Z</time></trkpt><trkpt lat="44.2701832" lon="11.1086054"><ele>236.33333333333331</ele><time>2026-04-25T17:06:35.081Z</time></trkpt><trkpt lat="44.270271" lon="11.1084848"><ele>235.66666666666666</ele><time>2026-04-25T17:06:37.078Z</time></trkpt><trkpt lat="44.2703174" lon="11.1084223"><ele>235.0</ele><time>2026-04-25T17:06:38.076Z</time></trkpt><trkpt lat="44.2703678" lon="11.1083411"><ele>234.99999999999997</ele><time>2026-04-25T17:06:39.078Z</time></trkpt><trkpt lat="44.2704259" lon="11.1082695"><ele>235.0</ele><time>2026-04-25T17:06:40.085Z</time></trkpt><trkpt lat="44.2704833" lon="11.1082089"><ele>235.0</ele><time>2026-04-25T17:06:41.075Z</time></trkpt><trkpt lat="44.2705506" lon="11.1081569"><ele>235.0</ele><time>2026-04-25T17:06:42.076Z</time></trkpt><trkpt lat="44.2706145" lon="11.1081212"><ele>234.99999999999997</ele><time>2026-04-25T17:06:43.075Z</time></trkpt><trkpt lat="44.2707378" lon="11.108087"><ele>235.0</ele><time>2026-04-25T17:06:45.078Z</time></trkpt><trkpt lat="44.2708029" lon="11.1080575"><ele>235.66666666666666</ele><time>2026-04-25T17:06:46.08Z</time></trkpt><trkpt lat="44.2708661" lon="11.1080344"><ele>236.33333333333331</ele><time>2026-04-25T17:06:47.08Z</time></trkpt><trkpt lat="44.2709296" lon="11.1080165"><ele>237.0</ele><time>2026-04-25T17:06:48.078Z</time></trkpt><trkpt lat="44.2709935" lon="11.1080108"><ele>237.66666666666669</ele><time>2026-04-25T17:06:49.081Z</time></trkpt><trkpt lat="44.2710571" lon="11.1079763"><ele>238.33333333333334</ele><time>2026-04-25T17:06:50.085Z</time></trkpt><trkpt lat="44.2711196" lon="11.1079517"><ele>239.0</ele><time>2026-04-25T17:06:51.079Z</time></trkpt><trkpt lat="44.2712383" lon="11.1078818"><ele>239.0</ele><time>2026-04-25T17:06:53.074Z</time></trkpt><trkpt lat="44.2713494" lon="11.1078268"><ele>239.0</ele><time>2026-04-25T17:06:55.082Z</time></trkpt><trkpt lat="44.2714806" lon="11.1078019"><ele>239.0</ele><time>2026-04-25T17:06:57.078Z</time></trkpt><trkpt lat="44.2715573" lon="11.1077921"><ele>239.0</ele><time>2026-04-25T17:06:58.081Z</time></trkpt><trkpt lat="44.2716742" lon="11.1078435"><ele>237.66666666666669</ele><time>2026-04-25T17:07:00.08Z</time></trkpt><trkpt lat="44.2717423" lon="11.1078701"><ele>236.33333333333334</ele><time>2026-04-25T17:07:01.078Z</time></trkpt><trkpt lat="44.2718709" lon="11.1079322"><ele>235.0</ele><time>2026-04-25T17:07:03.083Z</time></trkpt><trkpt lat="44.2719396" lon="11.1079555"><ele>233.66666666666669</ele><time>2026-04-25T17:07:04.081Z</time></trkpt><trkpt lat="44.2720034" lon="11.1079611"><ele>232.33333333333334</ele><time>2026-04-25T17:07:05.082Z</time></trkpt><trkpt lat="44.2720713" lon="11.1079661"><ele>231.0</ele><time>2026-04-25T17:07:06.077Z</time></trkpt><trkpt lat="44.2721437" lon="11.1079674"><ele>231.0</ele><time>2026-04-25T17:07:07.075Z</time></trkpt><trkpt lat="44.2722131" lon="11.1079564"><ele>231.0</ele><time>2026-04-25T17:07:08.072Z</time></trkpt><trkpt lat="44.2722894" lon="11.1079672"><ele>231.0</ele><time>2026-04-25T17:07:09.076Z</time></trkpt><trkpt lat="44.2723635" lon="11.1080067"><ele>231.0</ele><time>2026-04-25T17:07:10.076Z</time></trkpt><trkpt lat="44.2724331" lon="11.1080612"><ele>231.0</ele><time>2026-04-25T17:07:11.076Z</time></trkpt><trkpt lat="44.2724927" lon="11.1081257"><ele>231.0</ele><time>2026-04-25T17:07:12.086Z</time></trkpt><trkpt lat="44.2725508" lon="11.1081771"><ele>231.5</ele><time>2026-04-25T17:07:13.073Z</time></trkpt><trkpt lat="44.272613" lon="11.1082333"><ele>232.0</ele><time>2026-04-25T17:07:14.082Z</time></trkpt><trkpt lat="44.2726827" lon="11.1082905"><ele>232.5</ele><time>2026-04-25T17:07:15.076Z</time></trkpt><trkpt lat="44.2727497" lon="11.1083462"><ele>233.0</ele><time>2026-04-25T17:07:16.085Z</time></trkpt><trkpt lat="44.2727995" lon="11.1084132"><ele>233.5</ele><time>2026-04-25T17:07:17.081Z</time></trkpt><trkpt lat="44.2728708" lon="11.1084636"><ele>234.0</ele><time>2026-04-25T17:07:18.077Z</time></trkpt><trkpt lat="44.2729332" lon="11.1085105"><ele>232.83333333333334</ele><time>2026-04-25T17:07:19.08Z</time></trkpt><trkpt lat="44.2729966" lon="11.1085667"><ele>231.66666666666669</ele><time>2026-04-25T17:07:20.073Z</time></trkpt><trkpt lat="44.2730622" lon="11.1086358"><ele>230.5</ele><time>2026-04-25T17:07:21.082Z</time></trkpt><trkpt lat="44.2731213" lon="11.1086999"><ele>229.33333333333334</ele><time>2026-04-25T17:07:22.073Z</time></trkpt><trkpt lat="44.2731824" lon="11.1087459"><ele>228.16666666666669</ele><time>2026-04-25T17:07:23.074Z</time></trkpt><trkpt lat="44.2732331" lon="11.1088081"><ele>227.0</ele><time>2026-04-25T17:07:24.078Z</time></trkpt><trkpt lat="44.2733212" lon="11.1089007"><ele>227.00000000000003</ele><time>2026-04-25T17:07:26.079Z</time></trkpt><trkpt lat="44.2734197" lon="11.1089778"><ele>227.0</ele><time>2026-04-25T17:07:28.072Z</time></trkpt><trkpt lat="44.2734779" lon="11.1090182"><ele>227.0</ele><time>2026-04-25T17:07:29.084Z</time></trkpt><trkpt lat="44.2735824" lon="11.1090752"><ele>227.0</ele><time>2026-04-25T17:07:31.082Z</time></trkpt><trkpt lat="44.2736537" lon="11.1090935"><ele>227.00000000000003</ele><time>2026-04-25T17:07:32.072Z</time></trkpt><trkpt lat="44.2737268" lon="11.1090945"><ele>227.0</ele><time>2026-04-25T17:07:33.075Z</time></trkpt><trkpt lat="44.2737946" lon="11.1090817"><ele>227.00000000000003</ele><time>2026-04-25T17:07:34.075Z</time></trkpt><trkpt lat="44.2738699" lon="11.1090524"><ele>227.0</ele><time>2026-04-25T17:07:35.076Z</time></trkpt><trkpt lat="44.2739431" lon="11.1090023"><ele>227.0</ele><time>2026-04-25T17:07:36.08Z</time></trkpt><trkpt lat="44.2740237" lon="11.1089487"><ele>227.0</ele><time>2026-04-25T17:07:37.083Z</time></trkpt><trkpt lat="44.2740972" lon="11.1088921"><ele>227.00000000000003</ele><time>2026-04-25T17:07:38.073Z</time></trkpt><trkpt lat="44.2741657" lon="11.108843"><ele>227.0</ele><time>2026-04-25T17:07:39.082Z</time></trkpt><trkpt lat="44.2742465" lon="11.1088256"><ele>227.00000000000003</ele><time>2026-04-25T17:07:40.08Z</time></trkpt><trkpt lat="44.2743254" lon="11.1088187"><ele>227.0</ele><time>2026-04-25T17:07:41.076Z</time></trkpt><trkpt lat="44.2744029" lon="11.1088232"><ele>227.0</ele><time>2026-04-25T17:07:42.071Z</time></trkpt><trkpt lat="44.274485" lon="11.1088425"><ele>227.0</ele><time>2026-04-25T17:07:43.076Z</time></trkpt><trkpt lat="44.2745631" lon="11.1088803"><ele>227.00000000000003</ele><time>2026-04-25T17:07:44.087Z</time></trkpt><trkpt lat="44.274633" lon="11.1089333"><ele>227.0</ele><time>2026-04-25T17:07:45.074Z</time></trkpt><trkpt lat="44.2747035" lon="11.1089775"><ele>227.00000000000003</ele><time>2026-04-25T17:07:46.077Z</time></trkpt><trkpt lat="44.2747681" lon="11.1090217"><ele>227.0</ele><time>2026-04-25T17:07:47.083Z</time></trkpt><trkpt lat="44.2748447" lon="11.1090659"><ele>227.0</ele><time>2026-04-25T17:07:48.074Z</time></trkpt><trkpt lat="44.2749272" lon="11.1091036"><ele>227.0</ele><time>2026-04-25T17:07:49.079Z</time></trkpt><trkpt lat="44.2750077" lon="11.1091325"><ele>227.00000000000003</ele><time>2026-04-25T17:07:50.076Z</time></trkpt><trkpt lat="44.2750907" lon="11.1091402"><ele>227.0</ele><time>2026-04-25T17:07:51.073Z</time></trkpt><trkpt lat="44.2751761" lon="11.1090988"><ele>226.83333333333334</ele><time>2026-04-25T17:07:52.084Z</time></trkpt><trkpt lat="44.2752592" lon="11.109067"><ele>226.66666666666669</ele><time>2026-04-25T17:07:53.076Z</time></trkpt><trkpt lat="44.2753434" lon="11.1090371"><ele>226.5</ele><time>2026-04-25T17:07:54.076Z</time></trkpt><trkpt lat="44.2754231" lon="11.1090088"><ele>226.33333333333331</ele><time>2026-04-25T17:07:55.075Z</time></trkpt><trkpt lat="44.2755009" lon="11.1089938"><ele>226.16666666666666</ele><time>2026-04-25T17:07:56.082Z</time></trkpt><trkpt lat="44.2755737" lon="11.1089635"><ele>226.0</ele><time>2026-04-25T17:07:57.076Z</time></trkpt><trkpt lat="44.2756484" lon="11.1089183"><ele>225.20000000000002</ele><time>2026-04-25T17:07:58.078Z</time></trkpt><trkpt lat="44.2757642" lon="11.1088593"><ele>224.40000000000003</ele><time>2026-04-25T17:08:00.074Z</time></trkpt><trkpt lat="44.2758214" lon="11.1088197"><ele>223.6</ele><time>2026-04-25T17:08:01.081Z</time></trkpt><trkpt lat="44.2759123" lon="11.1087219"><ele>222.8</ele><time>2026-04-25T17:08:03.078Z</time></trkpt><trkpt lat="44.2760058" lon="11.1086588"><ele>222.0</ele><time>2026-04-25T17:08:05.083Z</time></trkpt><trkpt lat="44.2761192" lon="11.1086369"><ele>222.0</ele><time>2026-04-25T17:08:07.076Z</time></trkpt><trkpt lat="44.2762367" lon="11.1086326"><ele>222.0</ele><time>2026-04-25T17:08:09.083Z</time></trkpt><trkpt lat="44.2763527" lon="11.1086589"><ele>222.0</ele><time>2026-04-25T17:08:11.083Z</time></trkpt><trkpt lat="44.2764678" lon="11.1086833"><ele>222.0</ele><time>2026-04-25T17:08:13.077Z</time></trkpt><trkpt lat="44.276572" lon="11.1087286"><ele>221.8</ele><time>2026-04-25T17:08:15.085Z</time></trkpt><trkpt lat="44.2766871" lon="11.1087482"><ele>221.6</ele><time>2026-04-25T17:08:17.083Z</time></trkpt><trkpt lat="44.2767526" lon="11.10876"><ele>221.40000000000003</ele><time>2026-04-25T17:08:18.074Z</time></trkpt><trkpt lat="44.2768734" lon="11.1087816"><ele>221.20000000000002</ele><time>2026-04-25T17:08:20.083Z</time></trkpt><trkpt lat="44.2769931" lon="11.1087963"><ele>221.0</ele><time>2026-04-25T17:08:22.081Z</time></trkpt><trkpt lat="44.2771175" lon="11.1088164"><ele>221.0</ele><time>2026-04-25T17:08:24.084Z</time></trkpt><trkpt lat="44.2772433" lon="11.1088302"><ele>221.0</ele><time>2026-04-25T17:08:26.084Z</time></trkpt><trkpt lat="44.277362" lon="11.1088358"><ele>221.0</ele><time>2026-04-25T17:08:28.075Z</time></trkpt><trkpt lat="44.2774844" lon="11.1088458"><ele>221.0</ele><time>2026-04-25T17:08:30.076Z</time></trkpt><trkpt lat="44.2776058" lon="11.1088285"><ele>220.5</ele><time>2026-04-25T17:08:32.079Z</time></trkpt><trkpt lat="44.2777267" lon="11.108821"><ele>220.0</ele><time>2026-04-25T17:08:34.076Z</time></trkpt><trkpt lat="44.2778461" lon="11.1088118"><ele>219.5</ele><time>2026-04-25T17:08:36.087Z</time></trkpt><trkpt lat="44.2779628" lon="11.1088034"><ele>219.0</ele><time>2026-04-25T17:08:38.076Z</time></trkpt><trkpt lat="44.2780739" lon="11.1087926"><ele>220.6</ele><time>2026-04-25T17:08:40.079Z</time></trkpt><trkpt lat="44.278185" lon="11.1087754"><ele>222.2</ele><time>2026-04-25T17:08:42.078Z</time></trkpt><trkpt lat="44.2782944" lon="11.1088297"><ele>223.79999999999998</ele><time>2026-04-25T17:08:44.073Z</time></trkpt><trkpt lat="44.2784036" lon="11.1088706"><ele>225.39999999999998</ele><time>2026-04-25T17:08:46.072Z</time></trkpt><trkpt lat="44.2785007" lon="11.1089268"><ele>227.0</ele><time>2026-04-25T17:08:48.079Z</time></trkpt><trkpt lat="44.2786043" lon="11.1089971"><ele>227.00000000000003</ele><time>2026-04-25T17:08:50.071Z</time></trkpt><trkpt lat="44.2787149" lon="11.1090696"><ele>227.0</ele><time>2026-04-25T17:08:52.075Z</time></trkpt><trkpt lat="44.2787682" lon="11.1091294"><ele>227.0</ele><time>2026-04-25T17:08:53.075Z</time></trkpt><trkpt lat="44.27888" lon="11.1092091"><ele>227.0</ele><time>2026-04-25T17:08:55.076Z</time></trkpt><trkpt lat="44.2789377" lon="11.1092511"><ele>227.00000000000003</ele><time>2026-04-25T17:08:56.075Z</time></trkpt><trkpt lat="44.2789979" lon="11.1092911"><ele>227.0</ele><time>2026-04-25T17:08:57.066Z</time></trkpt><trkpt lat="44.2790687" lon="11.1092983"><ele>224.50000000000003</ele><time>2026-04-25T17:08:58.078Z</time></trkpt><trkpt lat="44.2791398" lon="11.1093188"><ele>222.0</ele><time>2026-04-25T17:08:59.074Z</time></trkpt><trkpt lat="44.2792217" lon="11.1093192"><ele>219.5</ele><time>2026-04-25T17:09:00.074Z</time></trkpt><trkpt lat="44.2792918" lon="11.1093354"><ele>217.0</ele><time>2026-04-25T17:09:01.082Z</time></trkpt><trkpt lat="44.2793709" lon="11.10934"><ele>214.50000000000003</ele><time>2026-04-25T17:09:02.078Z</time></trkpt><trkpt lat="44.2794498" lon="11.1093415"><ele>212.0</ele><time>2026-04-25T17:09:03.081Z</time></trkpt><trkpt lat="44.2795325" lon="11.1093669"><ele>212.00000000000003</ele><time>2026-04-25T17:09:04.076Z</time></trkpt><trkpt lat="44.279624" lon="11.109361"><ele>212.0</ele><time>2026-04-25T17:09:05.077Z</time></trkpt><trkpt lat="44.279712" lon="11.1093729"><ele>212.0</ele><time>2026-04-25T17:09:06.072Z</time></trkpt><trkpt lat="44.2798056" lon="11.1093898"><ele>212.0</ele><time>2026-04-25T17:09:07.078Z</time></trkpt><trkpt lat="44.2798795" lon="11.1094409"><ele>212.00000000000003</ele><time>2026-04-25T17:09:08.071Z</time></trkpt><trkpt lat="44.279948" lon="11.109519"><ele>212.0</ele><time>2026-04-25T17:09:09.076Z</time></trkpt><trkpt lat="44.2800207" lon="11.1096037"><ele>212.66666666666669</ele><time>2026-04-25T17:09:10.079Z</time></trkpt><trkpt lat="44.2800671" lon="11.1097065"><ele>213.33333333333334</ele><time>2026-04-25T17:09:11.073Z</time></trkpt><trkpt lat="44.2801243" lon="11.1098112"><ele>214.0</ele><time>2026-04-25T17:09:12.096Z</time></trkpt><trkpt lat="44.2801695" lon="11.1098913"><ele>214.66666666666669</ele><time>2026-04-25T17:09:13.073Z</time></trkpt><trkpt lat="44.2802165" lon="11.1099608"><ele>215.33333333333334</ele><time>2026-04-25T17:09:14.072Z</time></trkpt><trkpt lat="44.280285" lon="11.1100485"><ele>216.0</ele><time>2026-04-25T17:09:16.082Z</time></trkpt><trkpt lat="44.2803725" lon="11.1100861"><ele>214.60000000000002</ele><time>2026-04-25T17:10:24.073Z</time></trkpt><trkpt lat="44.2804256" lon="11.1101748"><ele>213.20000000000002</ele><time>2026-04-25T17:10:26.079Z</time></trkpt><trkpt lat="44.280509" lon="11.1102521"><ele>211.8</ele><time>2026-04-25T17:10:28.075Z</time></trkpt><trkpt lat="44.2805865" lon="11.1103409"><ele>210.39999999999998</ele><time>2026-04-25T17:10:30.081Z</time></trkpt><trkpt lat="44.280662" lon="11.1104533"><ele>209.0</ele><time>2026-04-25T17:10:32.074Z</time></trkpt><trkpt lat="44.2807317" lon="11.1105593"><ele>209.0</ele><time>2026-04-25T17:10:34.079Z</time></trkpt><trkpt lat="44.2808027" lon="11.1106627"><ele>209.0</ele><time>2026-04-25T17:10:36.087Z</time></trkpt><trkpt lat="44.280882" lon="11.1107393"><ele>209.0</ele><time>2026-04-25T17:10:38.078Z</time></trkpt><trkpt lat="44.2809581" lon="11.1108462"><ele>209.0</ele><time>2026-04-25T17:10:40.077Z</time></trkpt><trkpt lat="44.281054" lon="11.1109561"><ele>209.0</ele><time>2026-04-25T17:10:42.084Z</time></trkpt><trkpt lat="44.2811587" lon="11.1110586"><ele>207.71428571428572</ele><time>2026-04-25T17:10:44.074Z</time></trkpt><trkpt lat="44.2812128" lon="11.1111074"><ele>206.42857142857142</ele><time>2026-04-25T17:10:45.064Z</time></trkpt><trkpt lat="44.281277" lon="11.1111423"><ele>205.14285714285717</ele><time>2026-04-25T17:10:46.076Z</time></trkpt><trkpt lat="44.2813381" lon="11.1111861"><ele>203.85714285714286</ele><time>2026-04-25T17:10:47.073Z</time></trkpt><trkpt lat="44.2813975" lon="11.1112575"><ele>202.57142857142858</ele><time>2026-04-25T17:10:48.071Z</time></trkpt><trkpt lat="44.2814429" lon="11.1113355"><ele>201.2857142857143</ele><time>2026-04-25T17:10:49.075Z</time></trkpt><trkpt lat="44.2814789" lon="11.1114156"><ele>200.0</ele><time>2026-04-25T17:10:50.071Z</time></trkpt><trkpt lat="44.2814775" lon="11.1115091"><ele>199.57142857142858</ele><time>2026-04-25T17:10:51.074Z</time></trkpt><trkpt lat="44.281479" lon="11.1115973"><ele>199.14285714285714</ele><time>2026-04-25T17:10:52.074Z</time></trkpt><trkpt lat="44.2814781" lon="11.1117287"><ele>198.71428571428572</ele><time>2026-04-25T17:10:54.081Z</time></trkpt><trkpt lat="44.2814258" lon="11.1118048"><ele>198.28571428571428</ele><time>2026-04-25T17:10:56.072Z</time></trkpt><trkpt lat="44.2813541" lon="11.111812"><ele>197.85714285714286</ele><time>2026-04-25T17:10:58.071Z</time></trkpt><trkpt lat="44.2812824" lon="11.1117915"><ele>197.42857142857144</ele><time>2026-04-25T17:11:00.081Z</time></trkpt><trkpt lat="44.2812137" lon="11.1117705"><ele>197.0</ele><time>2026-04-25T17:11:02.076Z</time></trkpt><trkpt lat="44.281148" lon="11.1117231"><ele>197.0</ele><time>2026-04-25T17:11:04.085Z</time></trkpt><trkpt lat="44.2810979" lon="11.1116519"><ele>197.0</ele><time>2026-04-25T17:11:07.079Z</time></trkpt><trkpt lat="44.2811007" lon="11.1115464"><ele>200.0</ele><time>2026-04-25T17:11:48.081Z</time></trkpt><trkpt lat="44.2811207" lon="11.111459"><ele>200.0</ele><time>2026-04-25T17:11:51.074Z</time></trkpt><trkpt lat="44.2811908" lon="11.1114757"><ele>200.0</ele><time>2026-04-25T17:11:58.075Z</time></trkpt></trkseg></trk></gpx>